<?xml version='1.0' encoding='UTF-8'?>
<gpx version="1.1" creator="https://www.komoot.de" xmlns="http://www.topografix.com/GPX/1/1" xmlns:xsi="http://www.w3.org/2001/XMLSchema-instance" xsi:schemaLocation="http://www.topografix.com/GPX/1/1 http://www.topografix.com/GPX/1/1/gpx.xsd">
  <metadata>
    <name>80_1200TodtmoosZell</name>
    <author>
      <link href="https://www.komoot.de">
        <text>komoot</text>
        <type>text/html</type>
      </link>
    </author>
  </metadata>
  <trk>
    <name>80_1200TodtmoosZell</name>
    <trkseg>
      <trkpt lat="47.543499" lon="7.872266">
        <ele>356.129440</ele>
        <time>2021-11-22T06:44:28.616Z</time>
      </trkpt>
      <trkpt lat="47.544390" lon="7.872423">
        <ele>356.129440</ele>
        <time>2021-11-22T06:44:55.875Z</time>
      </trkpt>
      <trkpt lat="47.544883" lon="7.872555">
        <ele>359.194499</ele>
        <time>2021-11-22T06:45:14.863Z</time>
      </trkpt>
      <trkpt lat="47.545131" lon="7.872664">
        <ele>360.783611</ele>
        <time>2021-11-22T06:45:25.284Z</time>
      </trkpt>
      <trkpt lat="47.545375" lon="7.872836">
        <ele>362.443552</ele>
        <time>2021-11-22T06:45:35.828Z</time>
      </trkpt>
      <trkpt lat="47.545478" lon="7.872968">
        <ele>363.280181</ele>
        <time>2021-11-22T06:45:42.499Z</time>
      </trkpt>
      <trkpt lat="47.545515" lon="7.873015">
        <ele>363.579588</ele>
        <time>2021-11-22T06:45:44.419Z</time>
      </trkpt>
      <trkpt lat="47.545746" lon="7.873302">
        <ele>365.431604</ele>
        <time>2021-11-22T06:45:57.454Z</time>
      </trkpt>
      <trkpt lat="47.545934" lon="7.873549">
        <ele>366.975228</ele>
        <time>2021-11-22T06:46:07.554Z</time>
      </trkpt>
      <trkpt lat="47.546077" lon="7.873763">
        <ele>368.039227</ele>
        <time>2021-11-22T06:46:16.751Z</time>
      </trkpt>
      <trkpt lat="47.546135" lon="7.873859">
        <ele>368.479091</ele>
        <time>2021-11-22T06:46:19.990Z</time>
      </trkpt>
      <trkpt lat="47.546309" lon="7.874154">
        <ele>369.816581</ele>
        <time>2021-11-22T06:46:31.104Z</time>
      </trkpt>
      <trkpt lat="47.547126" lon="7.875801">
        <ele>376.385080</ele>
        <time>2021-11-22T06:47:16.866Z</time>
      </trkpt>
      <trkpt lat="47.547574" lon="7.876801">
        <ele>377.246984</ele>
        <time>2021-11-22T06:47:35.861Z</time>
      </trkpt>
      <trkpt lat="47.547992" lon="7.877974">
        <ele>378.158132</ele>
        <time>2021-11-22T06:47:48.662Z</time>
      </trkpt>
      <trkpt lat="47.548234" lon="7.878638">
        <ele>376.441589</ele>
        <time>2021-11-22T06:47:53.974Z</time>
      </trkpt>
      <trkpt lat="47.548422" lon="7.878959">
        <ele>375.474844</ele>
        <time>2021-11-22T06:47:56.817Z</time>
      </trkpt>
      <trkpt lat="47.548718" lon="7.879258">
        <ele>374.267491</ele>
        <time>2021-11-22T06:48:00.355Z</time>
      </trkpt>
      <trkpt lat="47.549140" lon="7.879391">
        <ele>372.813481</ele>
        <time>2021-11-22T06:48:04.542Z</time>
      </trkpt>
      <trkpt lat="47.549318" lon="7.879398">
        <ele>372.213389</ele>
        <time>2021-11-22T06:48:06.169Z</time>
      </trkpt>
      <trkpt lat="47.549327" lon="7.879547">
        <ele>371.824612</ele>
        <time>2021-11-22T06:48:07.155Z</time>
      </trkpt>
      <trkpt lat="47.549726" lon="7.880786">
        <ele>368.107719</ele>
        <time>2021-11-22T06:48:16.090Z</time>
      </trkpt>
      <trkpt lat="47.549927" lon="7.881490">
        <ele>366.038110</ele>
        <time>2021-11-22T06:48:21.122Z</time>
      </trkpt>
      <trkpt lat="47.550234" lon="7.883221">
        <ele>361.453639</ele>
        <time>2021-11-22T06:48:33.522Z</time>
      </trkpt>
      <trkpt lat="47.550332" lon="7.884727">
        <ele>357.419884</ele>
        <time>2021-11-22T06:48:43.367Z</time>
      </trkpt>
      <trkpt lat="47.550391" lon="7.885109">
        <ele>356.036551</ele>
        <time>2021-11-22T06:48:45.899Z</time>
      </trkpt>
      <trkpt lat="47.550548" lon="7.885799">
        <ele>353.466140</ele>
        <time>2021-11-22T06:48:50.503Z</time>
      </trkpt>
      <trkpt lat="47.550677" lon="7.886476">
        <ele>350.982900</ele>
        <time>2021-11-22T06:48:54.934Z</time>
      </trkpt>
      <trkpt lat="47.550758" lon="7.887295">
        <ele>347.929673</ele>
        <time>2021-11-22T06:49:00.076Z</time>
      </trkpt>
      <trkpt lat="47.550789" lon="7.887816">
        <ele>345.754268</ele>
        <time>2021-11-22T06:49:03.308Z</time>
      </trkpt>
      <trkpt lat="47.550831" lon="7.888611">
        <ele>342.437505</ele>
        <time>2021-11-22T06:49:08.264Z</time>
      </trkpt>
      <trkpt lat="47.550833" lon="7.889069">
        <ele>340.532504</ele>
        <time>2021-11-22T06:49:11.074Z</time>
      </trkpt>
      <trkpt lat="47.550915" lon="7.890600">
        <ele>334.563759</ele>
        <time>2021-11-22T06:49:20.467Z</time>
      </trkpt>
      <trkpt lat="47.550904" lon="7.891725">
        <ele>330.433744</ele>
        <time>2021-11-22T06:49:27.471Z</time>
      </trkpt>
      <trkpt lat="47.550892" lon="7.893176">
        <ele>326.928098</ele>
        <time>2021-11-22T06:49:37.083Z</time>
      </trkpt>
      <trkpt lat="47.550908" lon="7.894308">
        <ele>325.452127</ele>
        <time>2021-11-22T06:49:46.288Z</time>
      </trkpt>
      <trkpt lat="47.550878" lon="7.895158">
        <ele>324.352134</ele>
        <time>2021-11-22T06:49:53.473Z</time>
      </trkpt>
      <trkpt lat="47.550838" lon="7.895509">
        <ele>323.926879</ele>
        <time>2021-11-22T06:49:56.637Z</time>
      </trkpt>
      <trkpt lat="47.550660" lon="7.896255">
        <ele>322.981620</ele>
        <time>2021-11-22T06:50:03.125Z</time>
      </trkpt>
      <trkpt lat="47.550639" lon="7.896345">
        <ele>322.867858</ele>
        <time>2021-11-22T06:50:04.313Z</time>
      </trkpt>
      <trkpt lat="47.550648" lon="7.896481">
        <ele>322.704606</ele>
        <time>2021-11-22T06:50:05.268Z</time>
      </trkpt>
      <trkpt lat="47.550819" lon="7.898109">
        <ele>320.059340</ele>
        <time>2021-11-22T06:50:17.016Z</time>
      </trkpt>
      <trkpt lat="47.550801" lon="7.900244">
        <ele>314.293289</ele>
        <time>2021-11-22T06:50:30.853Z</time>
      </trkpt>
      <trkpt lat="47.550769" lon="7.901362">
        <ele>311.370732</ele>
        <time>2021-11-22T06:50:38.125Z</time>
      </trkpt>
      <trkpt lat="47.550757" lon="7.901591">
        <ele>310.772416</ele>
        <time>2021-11-22T06:50:40.261Z</time>
      </trkpt>
      <trkpt lat="47.550688" lon="7.902451">
        <ele>308.516432</ele>
        <time>2021-11-22T06:50:48.695Z</time>
      </trkpt>
      <trkpt lat="47.550498" lon="7.903445">
        <ele>305.832068</ele>
        <time>2021-11-22T06:50:58.945Z</time>
      </trkpt>
      <trkpt lat="47.550302" lon="7.904164">
        <ele>303.822544</ele>
        <time>2021-11-22T06:51:06.205Z</time>
      </trkpt>
      <trkpt lat="47.550025" lon="7.904774">
        <ele>301.917244</ele>
        <time>2021-11-22T06:51:13.130Z</time>
      </trkpt>
      <trkpt lat="47.549868" lon="7.905010">
        <ele>301.058501</ele>
        <time>2021-11-22T06:51:16.261Z</time>
      </trkpt>
      <trkpt lat="47.549867" lon="7.905155">
        <ele>300.682711</ele>
        <time>2021-11-22T06:51:17.658Z</time>
      </trkpt>
      <trkpt lat="47.550067" lon="7.905245">
        <ele>299.972188</ele>
        <time>2021-11-22T06:51:20.583Z</time>
      </trkpt>
      <trkpt lat="47.550283" lon="7.905413">
        <ele>299.282706</ele>
        <time>2021-11-22T06:51:24.033Z</time>
      </trkpt>
      <trkpt lat="47.550497" lon="7.905558">
        <ele>298.617636</ele>
        <time>2021-11-22T06:51:27.392Z</time>
      </trkpt>
      <trkpt lat="47.549539" lon="7.908625">
        <ele>293.254349</ele>
        <time>2021-11-22T06:51:51.831Z</time>
      </trkpt>
      <trkpt lat="47.549520" lon="7.908678">
        <ele>293.181568</ele>
        <time>2021-11-22T06:51:52.335Z</time>
      </trkpt>
      <trkpt lat="47.549332" lon="7.909302">
        <ele>292.352820</ele>
        <time>2021-11-22T06:51:57.910Z</time>
      </trkpt>
      <trkpt lat="47.549195" lon="7.909756">
        <ele>291.808436</ele>
        <time>2021-11-22T06:52:01.978Z</time>
      </trkpt>
      <trkpt lat="47.549102" lon="7.910058">
        <ele>291.550185</ele>
        <time>2021-11-22T06:52:04.672Z</time>
      </trkpt>
      <trkpt lat="47.549012" lon="7.910340">
        <ele>291.307503</ele>
        <time>2021-11-22T06:52:07.189Z</time>
      </trkpt>
      <trkpt lat="47.548412" lon="7.912168">
        <ele>289.769251</ele>
        <time>2021-11-22T06:52:23.525Z</time>
      </trkpt>
      <trkpt lat="47.548027" lon="7.913334">
        <ele>289.140865</ele>
        <time>2021-11-22T06:52:34.286Z</time>
      </trkpt>
      <trkpt lat="47.547994" lon="7.913433">
        <ele>289.087413</ele>
        <time>2021-11-22T06:52:35.207Z</time>
      </trkpt>
      <trkpt lat="47.547423" lon="7.915080">
        <ele>288.652877</ele>
        <time>2021-11-22T06:52:52.683Z</time>
      </trkpt>
      <trkpt lat="47.547113" lon="7.915971">
        <ele>288.791410</ele>
        <time>2021-11-22T06:53:03.131Z</time>
      </trkpt>
      <trkpt lat="47.547091" lon="7.916039">
        <ele>288.801831</ele>
        <time>2021-11-22T06:53:04.155Z</time>
      </trkpt>
      <trkpt lat="47.547032" lon="7.916218">
        <ele>288.829361</ele>
        <time>2021-11-22T06:53:06.357Z</time>
      </trkpt>
      <trkpt lat="47.546821" lon="7.916867">
        <ele>288.943863</ele>
        <time>2021-11-22T06:53:14.467Z</time>
      </trkpt>
      <trkpt lat="47.546262" lon="7.919081">
        <ele>289.743239</ele>
        <time>2021-11-22T06:53:41.978Z</time>
      </trkpt>
      <trkpt lat="47.546128" lon="7.919617">
        <ele>289.965155</ele>
        <time>2021-11-22T06:53:47.447Z</time>
      </trkpt>
      <trkpt lat="47.545973" lon="7.920313">
        <ele>290.273728</ele>
        <time>2021-11-22T06:53:55.910Z</time>
      </trkpt>
      <trkpt lat="47.545913" lon="7.920765">
        <ele>290.467678</ele>
        <time>2021-11-22T06:54:00.084Z</time>
      </trkpt>
      <trkpt lat="47.545881" lon="7.921096">
        <ele>290.608461</ele>
        <time>2021-11-22T06:54:04.100Z</time>
      </trkpt>
      <trkpt lat="47.545810" lon="7.921755">
        <ele>290.889432</ele>
        <time>2021-11-22T06:54:13.009Z</time>
      </trkpt>
      <trkpt lat="47.545778" lon="7.921947">
        <ele>291.075513</ele>
        <time>2021-11-22T06:54:16.618Z</time>
      </trkpt>
      <trkpt lat="47.545714" lon="7.922249">
        <ele>291.649530</ele>
        <time>2021-11-22T06:54:19.816Z</time>
      </trkpt>
      <trkpt lat="47.545699" lon="7.922325">
        <ele>291.793123</ele>
        <time>2021-11-22T06:54:21.014Z</time>
      </trkpt>
      <trkpt lat="47.545690" lon="7.922369">
        <ele>291.876498</ele>
        <time>2021-11-22T06:54:23.112Z</time>
      </trkpt>
      <trkpt lat="47.545641" lon="7.922610">
        <ele>292.332935</ele>
        <time>2021-11-22T06:54:25.466Z</time>
      </trkpt>
      <trkpt lat="47.545587" lon="7.922895">
        <ele>292.869743</ele>
        <time>2021-11-22T06:54:31.262Z</time>
      </trkpt>
      <trkpt lat="47.545553" lon="7.923142">
        <ele>293.326885</ele>
        <time>2021-11-22T06:54:33.909Z</time>
      </trkpt>
      <trkpt lat="47.545536" lon="7.923407">
        <ele>293.809615</ele>
        <time>2021-11-22T06:54:39.798Z</time>
      </trkpt>
      <trkpt lat="47.545521" lon="7.923709">
        <ele>294.358759</ele>
        <time>2021-11-22T06:54:43.952Z</time>
      </trkpt>
      <trkpt lat="47.545481" lon="7.924396">
        <ele>295.609228</ele>
        <time>2021-11-22T06:54:58.555Z</time>
      </trkpt>
      <trkpt lat="47.545466" lon="7.924880">
        <ele>296.690986</ele>
        <time>2021-11-22T06:55:09.862Z</time>
      </trkpt>
      <trkpt lat="47.545446" lon="7.925350">
        <ele>297.787936</ele>
        <time>2021-11-22T06:55:20.237Z</time>
      </trkpt>
      <trkpt lat="47.545417" lon="7.925848">
        <ele>298.952243</ele>
        <time>2021-11-22T06:55:30.716Z</time>
      </trkpt>
      <trkpt lat="47.545409" lon="7.926773">
        <ele>301.107035</ele>
        <time>2021-11-22T06:55:47.917Z</time>
      </trkpt>
      <trkpt lat="47.545407" lon="7.927001">
        <ele>301.638164</ele>
        <time>2021-11-22T06:55:51.726Z</time>
      </trkpt>
      <trkpt lat="47.545406" lon="7.927306">
        <ele>301.974895</ele>
        <time>2021-11-22T06:55:56.330Z</time>
      </trkpt>
      <trkpt lat="47.545421" lon="7.927686">
        <ele>301.961196</ele>
        <time>2021-11-22T06:56:01.866Z</time>
      </trkpt>
      <trkpt lat="47.545475" lon="7.928419">
        <ele>301.934661</ele>
        <time>2021-11-22T06:56:11.183Z</time>
      </trkpt>
      <trkpt lat="47.545563" lon="7.929641">
        <ele>301.890436</ele>
        <time>2021-11-22T06:56:21.063Z</time>
      </trkpt>
      <trkpt lat="47.545661" lon="7.930955">
        <ele>300.405814</ele>
        <time>2021-11-22T06:56:30.459Z</time>
      </trkpt>
      <trkpt lat="47.545696" lon="7.931497">
        <ele>299.713039</ele>
        <time>2021-11-22T06:56:34.427Z</time>
      </trkpt>
      <trkpt lat="47.545721" lon="7.931992">
        <ele>299.081454</ele>
        <time>2021-11-22T06:56:38.220Z</time>
      </trkpt>
      <trkpt lat="47.545724" lon="7.932758">
        <ele>298.524554</ele>
        <time>2021-11-22T06:56:44.429Z</time>
      </trkpt>
      <trkpt lat="47.545702" lon="7.933290">
        <ele>298.577572</ele>
        <time>2021-11-22T06:56:49.072Z</time>
      </trkpt>
      <trkpt lat="47.545674" lon="7.933625">
        <ele>298.611150</ele>
        <time>2021-11-22T06:56:52.273Z</time>
      </trkpt>
      <trkpt lat="47.545457" lon="7.935110">
        <ele>298.790871</ele>
        <time>2021-11-22T06:57:10.407Z</time>
      </trkpt>
      <trkpt lat="47.545074" lon="7.936484">
        <ele>300.363078</ele>
        <time>2021-11-22T06:57:31.935Z</time>
      </trkpt>
      <trkpt lat="47.544903" lon="7.936917">
        <ele>300.893651</ele>
        <time>2021-11-22T06:57:39.251Z</time>
      </trkpt>
      <trkpt lat="47.544705" lon="7.937395">
        <ele>301.486799</ele>
        <time>2021-11-22T06:57:47.435Z</time>
      </trkpt>
      <trkpt lat="47.544472" lon="7.937932">
        <ele>302.250645</ele>
        <time>2021-11-22T06:57:56.842Z</time>
      </trkpt>
      <trkpt lat="47.543826" lon="7.939433">
        <ele>304.419065</ele>
        <time>2021-11-22T06:58:23.724Z</time>
      </trkpt>
      <trkpt lat="47.543435" lon="7.940670">
        <ele>305.651986</ele>
        <time>2021-11-22T06:58:43.684Z</time>
      </trkpt>
      <trkpt lat="47.543161" lon="7.942213">
        <ele>306.930633</ele>
        <time>2021-11-22T06:59:04.534Z</time>
      </trkpt>
      <trkpt lat="47.543007" lon="7.943867">
        <ele>306.125745</ele>
        <time>2021-11-22T06:59:20.078Z</time>
      </trkpt>
      <trkpt lat="47.542913" lon="7.945267">
        <ele>304.934088</ele>
        <time>2021-11-22T06:59:30.837Z</time>
      </trkpt>
      <trkpt lat="47.542872" lon="7.945781">
        <ele>304.018670</ele>
        <time>2021-11-22T06:59:34.434Z</time>
      </trkpt>
      <trkpt lat="47.542875" lon="7.946089">
        <ele>303.473865</ele>
        <time>2021-11-22T06:59:36.525Z</time>
      </trkpt>
      <trkpt lat="47.542902" lon="7.946514">
        <ele>302.718861</ele>
        <time>2021-11-22T06:59:39.404Z</time>
      </trkpt>
      <trkpt lat="47.542943" lon="7.946806">
        <ele>302.191358</ele>
        <time>2021-11-22T06:59:41.450Z</time>
      </trkpt>
      <trkpt lat="47.542974" lon="7.946965">
        <ele>301.898646</ele>
        <time>2021-11-22T06:59:42.661Z</time>
      </trkpt>
      <trkpt lat="47.542979" lon="7.946989">
        <ele>301.854223</ele>
        <time>2021-11-22T06:59:42.817Z</time>
      </trkpt>
      <trkpt lat="47.543007" lon="7.947104">
        <ele>301.638001</ele>
        <time>2021-11-22T06:59:43.683Z</time>
      </trkpt>
      <trkpt lat="47.543087" lon="7.947317">
        <ele>301.206890</ele>
        <time>2021-11-22T06:59:45.424Z</time>
      </trkpt>
      <trkpt lat="47.543191" lon="7.947615">
        <ele>300.776527</ele>
        <time>2021-11-22T06:59:47.879Z</time>
      </trkpt>
      <trkpt lat="47.543242" lon="7.947745">
        <ele>300.668270</ele>
        <time>2021-11-22T06:59:48.995Z</time>
      </trkpt>
      <trkpt lat="47.543273" lon="7.947816">
        <ele>300.607390</ele>
        <time>2021-11-22T06:59:49.619Z</time>
      </trkpt>
      <trkpt lat="47.543358" lon="7.947967">
        <ele>300.465831</ele>
        <time>2021-11-22T06:59:51.058Z</time>
      </trkpt>
      <trkpt lat="47.543455" lon="7.948127">
        <ele>300.310995</ele>
        <time>2021-11-22T06:59:52.738Z</time>
      </trkpt>
      <trkpt lat="47.543532" lon="7.948214">
        <ele>300.207707</ele>
        <time>2021-11-22T06:59:53.811Z</time>
      </trkpt>
      <trkpt lat="47.543579" lon="7.948287">
        <ele>300.135075</ele>
        <time>2021-11-22T06:59:54.569Z</time>
      </trkpt>
      <trkpt lat="47.543760" lon="7.948548">
        <ele>299.865665</ele>
        <time>2021-11-22T06:59:57.468Z</time>
      </trkpt>
      <trkpt lat="47.543864" lon="7.948694">
        <ele>299.712845</ele>
        <time>2021-11-22T06:59:59.124Z</time>
      </trkpt>
      <trkpt lat="47.543915" lon="7.948763">
        <ele>299.639178</ele>
        <time>2021-11-22T07:00:00.073Z</time>
      </trkpt>
      <trkpt lat="47.544239" lon="7.949202">
        <ele>299.170860</ele>
        <time>2021-11-22T07:00:06.563Z</time>
      </trkpt>
      <trkpt lat="47.544521" lon="7.949558">
        <ele>298.855421</ele>
        <time>2021-11-22T07:00:12.733Z</time>
      </trkpt>
      <trkpt lat="47.544901" lon="7.950044">
        <ele>298.539690</ele>
        <time>2021-11-22T07:00:21.485Z</time>
      </trkpt>
      <trkpt lat="47.545166" lon="7.950366">
        <ele>298.324135</ele>
        <time>2021-11-22T07:00:26.732Z</time>
      </trkpt>
      <trkpt lat="47.545434" lon="7.950668">
        <ele>298.112365</ele>
        <time>2021-11-22T07:00:30.937Z</time>
      </trkpt>
      <trkpt lat="47.545542" lon="7.950842">
        <ele>298.012015</ele>
        <time>2021-11-22T07:00:32.716Z</time>
      </trkpt>
      <trkpt lat="47.545667" lon="7.950979">
        <ele>297.914224</ele>
        <time>2021-11-22T07:00:34.485Z</time>
      </trkpt>
      <trkpt lat="47.545737" lon="7.951055">
        <ele>297.859643</ele>
        <time>2021-11-22T07:00:35.416Z</time>
      </trkpt>
      <trkpt lat="47.545759" lon="7.950982">
        <ele>297.764151</ele>
        <time>2021-11-22T07:00:35.982Z</time>
      </trkpt>
      <trkpt lat="47.545852" lon="7.950808">
        <ele>297.226690</ele>
        <time>2021-11-22T07:00:37.554Z</time>
      </trkpt>
      <trkpt lat="47.545858" lon="7.950769">
        <ele>297.129824</ele>
        <time>2021-11-22T07:00:37.834Z</time>
      </trkpt>
      <trkpt lat="47.545875" lon="7.950668">
        <ele>296.877752</ele>
        <time>2021-11-22T07:00:38.577Z</time>
      </trkpt>
      <trkpt lat="47.545948" lon="7.950297">
        <ele>295.941939</ele>
        <time>2021-11-22T07:00:41.177Z</time>
      </trkpt>
      <trkpt lat="47.545949" lon="7.950185">
        <ele>295.670695</ele>
        <time>2021-11-22T07:00:41.935Z</time>
      </trkpt>
      <trkpt lat="47.546159" lon="7.949303">
        <ele>293.405857</ele>
        <time>2021-11-22T07:00:47.958Z</time>
      </trkpt>
      <trkpt lat="47.546572" lon="7.947545">
        <ele>289.830483</ele>
        <time>2021-11-22T07:01:00.430Z</time>
      </trkpt>
      <trkpt lat="47.546664" lon="7.947227">
        <ele>289.306626</ele>
        <time>2021-11-22T07:01:02.954Z</time>
      </trkpt>
      <trkpt lat="47.546749" lon="7.946929">
        <ele>288.816784</ele>
        <time>2021-11-22T07:01:05.338Z</time>
      </trkpt>
      <trkpt lat="47.546772" lon="7.946847">
        <ele>288.682332</ele>
        <time>2021-11-22T07:01:06.013Z</time>
      </trkpt>
      <trkpt lat="47.546815" lon="7.946690">
        <ele>288.425790</ele>
        <time>2021-11-22T07:01:07.303Z</time>
      </trkpt>
      <trkpt lat="47.546959" lon="7.946071">
        <ele>287.434446</ele>
        <time>2021-11-22T07:01:12.611Z</time>
      </trkpt>
      <trkpt lat="47.547022" lon="7.945790">
        <ele>287.294949</ele>
        <time>2021-11-22T07:01:15.446Z</time>
      </trkpt>
      <trkpt lat="47.547075" lon="7.945550">
        <ele>287.235938</ele>
        <time>2021-11-22T07:01:17.767Z</time>
      </trkpt>
      <trkpt lat="47.547150" lon="7.945242">
        <ele>287.159421</ele>
        <time>2021-11-22T07:01:21.573Z</time>
      </trkpt>
      <trkpt lat="47.547161" lon="7.945196">
        <ele>287.148017</ele>
        <time>2021-11-22T07:01:22.051Z</time>
      </trkpt>
      <trkpt lat="47.547282" lon="7.944699">
        <ele>287.024549</ele>
        <time>2021-11-22T07:01:27.699Z</time>
      </trkpt>
      <trkpt lat="47.547318" lon="7.944515">
        <ele>286.979781</ele>
        <time>2021-11-22T07:01:29.383Z</time>
      </trkpt>
      <trkpt lat="47.547344" lon="7.944382">
        <ele>286.947423</ele>
        <time>2021-11-22T07:01:30.758Z</time>
      </trkpt>
      <trkpt lat="47.547354" lon="7.944331">
        <ele>286.935012</ele>
        <time>2021-11-22T07:01:31.289Z</time>
      </trkpt>
      <trkpt lat="47.547734" lon="7.942722">
        <ele>286.343170</ele>
        <time>2021-11-22T07:01:46.272Z</time>
      </trkpt>
      <trkpt lat="47.547790" lon="7.942490">
        <ele>286.227550</ele>
        <time>2021-11-22T07:01:48.308Z</time>
      </trkpt>
      <trkpt lat="47.548087" lon="7.941446">
        <ele>285.695912</ele>
        <time>2021-11-22T07:01:58.356Z</time>
      </trkpt>
      <trkpt lat="47.548484" lon="7.940313">
        <ele>285.005460</ele>
        <time>2021-11-22T07:02:08.685Z</time>
      </trkpt>
      <trkpt lat="47.548550" lon="7.940126">
        <ele>284.882695</ele>
        <time>2021-11-22T07:02:10.427Z</time>
      </trkpt>
      <trkpt lat="47.548587" lon="7.940118">
        <ele>284.850466</ele>
        <time>2021-11-22T07:02:10.914Z</time>
      </trkpt>
      <trkpt lat="47.548632" lon="7.940087">
        <ele>284.807692</ele>
        <time>2021-11-22T07:02:11.555Z</time>
      </trkpt>
      <trkpt lat="47.548653" lon="7.940052">
        <ele>284.780448</ele>
        <time>2021-11-22T07:02:11.960Z</time>
      </trkpt>
      <trkpt lat="47.548676" lon="7.939951">
        <ele>284.718436</ele>
        <time>2021-11-22T07:02:12.841Z</time>
      </trkpt>
      <trkpt lat="47.548673" lon="7.939890">
        <ele>284.682855</ele>
        <time>2021-11-22T07:02:13.373Z</time>
      </trkpt>
      <trkpt lat="47.548643" lon="7.939810">
        <ele>284.629613</ele>
        <time>2021-11-22T07:02:14.141Z</time>
      </trkpt>
      <trkpt lat="47.548614" lon="7.939778">
        <ele>284.598446</ele>
        <time>2021-11-22T07:02:14.575Z</time>
      </trkpt>
      <trkpt lat="47.548563" lon="7.939753">
        <ele>284.552145</ele>
        <time>2021-11-22T07:02:15.243Z</time>
      </trkpt>
      <trkpt lat="47.548509" lon="7.939765">
        <ele>284.505081</ele>
        <time>2021-11-22T07:02:15.960Z</time>
      </trkpt>
      <trkpt lat="47.548230" lon="7.939581">
        <ele>284.241857</ele>
        <time>2021-11-22T07:02:19.788Z</time>
      </trkpt>
      <trkpt lat="47.548150" lon="7.939478">
        <ele>284.150505</ele>
        <time>2021-11-22T07:02:21.190Z</time>
      </trkpt>
      <trkpt lat="47.548129" lon="7.939460">
        <ele>284.129594</ele>
        <time>2021-11-22T07:02:21.487Z</time>
      </trkpt>
      <trkpt lat="47.548085" lon="7.939422">
        <ele>284.085696</ele>
        <time>2021-11-22T07:02:22.130Z</time>
      </trkpt>
      <trkpt lat="47.547474" lon="7.938844">
        <ele>283.766498</ele>
        <time>2021-11-22T07:02:31.771Z</time>
      </trkpt>
      <trkpt lat="47.547174" lon="7.938475">
        <ele>283.650373</ele>
        <time>2021-11-22T07:02:36.833Z</time>
      </trkpt>
      <trkpt lat="47.547115" lon="7.938377">
        <ele>283.623975</ele>
        <time>2021-11-22T07:02:38.005Z</time>
      </trkpt>
      <trkpt lat="47.547044" lon="7.938237">
        <ele>283.588774</ele>
        <time>2021-11-22T07:02:39.688Z</time>
      </trkpt>
      <trkpt lat="47.546977" lon="7.938045">
        <ele>283.545324</ele>
        <time>2021-11-22T07:02:41.842Z</time>
      </trkpt>
      <trkpt lat="47.546969" lon="7.938023">
        <ele>283.540301</ele>
        <time>2021-11-22T07:02:42.091Z</time>
      </trkpt>
      <trkpt lat="47.546915" lon="7.937800">
        <ele>283.492675</ele>
        <time>2021-11-22T07:02:44.472Z</time>
      </trkpt>
      <trkpt lat="47.546890" lon="7.937602">
        <ele>283.452182</ele>
        <time>2021-11-22T07:02:46.659Z</time>
      </trkpt>
      <trkpt lat="47.546895" lon="7.937196">
        <ele>283.412715</ele>
        <time>2021-11-22T07:02:50.744Z</time>
      </trkpt>
      <trkpt lat="47.547020" lon="7.936617">
        <ele>283.528648</ele>
        <time>2021-11-22T07:02:57.061Z</time>
      </trkpt>
      <trkpt lat="47.547523" lon="7.935115">
        <ele>283.848414</ele>
        <time>2021-11-22T07:03:15.153Z</time>
      </trkpt>
      <trkpt lat="47.547539" lon="7.935068">
        <ele>283.858453</ele>
        <time>2021-11-22T07:03:15.719Z</time>
      </trkpt>
      <trkpt lat="47.547663" lon="7.934665">
        <ele>284.001704</ele>
        <time>2021-11-22T07:03:20.672Z</time>
      </trkpt>
      <trkpt lat="47.547956" lon="7.933604">
        <ele>284.522470</ele>
        <time>2021-11-22T07:03:34.022Z</time>
      </trkpt>
      <trkpt lat="47.548144" lon="7.932614">
        <ele>284.989661</ele>
        <time>2021-11-22T07:03:46.948Z</time>
      </trkpt>
      <trkpt lat="47.548252" lon="7.930989">
        <ele>285.792179</ele>
        <time>2021-11-22T07:04:06.446Z</time>
      </trkpt>
      <trkpt lat="47.548241" lon="7.930335">
        <ele>286.118463</ele>
        <time>2021-11-22T07:04:13.645Z</time>
      </trkpt>
      <trkpt lat="47.548236" lon="7.930144">
        <ele>286.213796</ele>
        <time>2021-11-22T07:04:15.624Z</time>
      </trkpt>
      <trkpt lat="47.548226" lon="7.929841">
        <ele>286.365098</ele>
        <time>2021-11-22T07:04:19.606Z</time>
      </trkpt>
      <trkpt lat="47.548192" lon="7.928866">
        <ele>287.307235</ele>
        <time>2021-11-22T07:04:32.246Z</time>
      </trkpt>
      <trkpt lat="47.548186" lon="7.928343">
        <ele>287.856326</ele>
        <time>2021-11-22T07:04:39.750Z</time>
      </trkpt>
      <trkpt lat="47.548228" lon="7.928033">
        <ele>288.188235</ele>
        <time>2021-11-22T07:04:43.814Z</time>
      </trkpt>
      <trkpt lat="47.548275" lon="7.927880">
        <ele>288.364696</ele>
        <time>2021-11-22T07:04:46.143Z</time>
      </trkpt>
      <trkpt lat="47.548298" lon="7.927820">
        <ele>288.437128</ele>
        <time>2021-11-22T07:04:47.881Z</time>
      </trkpt>
      <trkpt lat="47.548534" lon="7.927518">
        <ele>288.922119</ele>
        <time>2021-11-22T07:04:54.273Z</time>
      </trkpt>
      <trkpt lat="47.548777" lon="7.927430">
        <ele>289.324349</ele>
        <time>2021-11-22T07:05:00.269Z</time>
      </trkpt>
      <trkpt lat="47.548912" lon="7.927437">
        <ele>289.571919</ele>
        <time>2021-11-22T07:05:03.902Z</time>
      </trkpt>
      <trkpt lat="47.549059" lon="7.927444">
        <ele>289.841470</ele>
        <time>2021-11-22T07:05:07.553Z</time>
      </trkpt>
      <trkpt lat="47.549697" lon="7.927581">
        <ele>291.022972</ele>
        <time>2021-11-22T07:05:23.176Z</time>
      </trkpt>
      <trkpt lat="47.550041" lon="7.927651">
        <ele>291.659351</ele>
        <time>2021-11-22T07:05:30.739Z</time>
      </trkpt>
      <trkpt lat="47.550381" lon="7.927709">
        <ele>292.286597</ele>
        <time>2021-11-22T07:05:37.884Z</time>
      </trkpt>
      <trkpt lat="47.550481" lon="7.927724">
        <ele>292.470807</ele>
        <time>2021-11-22T07:05:39.823Z</time>
      </trkpt>
      <trkpt lat="47.550669" lon="7.927757">
        <ele>292.610760</ele>
        <time>2021-11-22T07:05:43.042Z</time>
      </trkpt>
      <trkpt lat="47.551076" lon="7.927850">
        <ele>292.815456</ele>
        <time>2021-11-22T07:05:50.021Z</time>
      </trkpt>
      <trkpt lat="47.551163" lon="7.927871">
        <ele>292.859271</ele>
        <time>2021-11-22T07:05:51.415Z</time>
      </trkpt>
      <trkpt lat="47.551192" lon="7.927575">
        <ele>292.959615</ele>
        <time>2021-11-22T07:05:54.775Z</time>
      </trkpt>
      <trkpt lat="47.551183" lon="7.927256">
        <ele>293.066728</ele>
        <time>2021-11-22T07:05:58.290Z</time>
      </trkpt>
      <trkpt lat="47.551209" lon="7.927048">
        <ele>293.137695</ele>
        <time>2021-11-22T07:06:00.558Z</time>
      </trkpt>
      <trkpt lat="47.551236" lon="7.926890">
        <ele>293.192374</ele>
        <time>2021-11-22T07:06:02.427Z</time>
      </trkpt>
      <trkpt lat="47.551262" lon="7.926787">
        <ele>293.229266</ele>
        <time>2021-11-22T07:06:03.527Z</time>
      </trkpt>
      <trkpt lat="47.551300" lon="7.926708">
        <ele>293.261812</ele>
        <time>2021-11-22T07:06:04.532Z</time>
      </trkpt>
      <trkpt lat="47.551345" lon="7.926636">
        <ele>293.294732</ele>
        <time>2021-11-22T07:06:05.543Z</time>
      </trkpt>
      <trkpt lat="47.551423" lon="7.926561">
        <ele>293.340952</ele>
        <time>2021-11-22T07:06:07.165Z</time>
      </trkpt>
      <trkpt lat="47.551676" lon="7.926477">
        <ele>293.456126</ele>
        <time>2021-11-22T07:06:11.099Z</time>
      </trkpt>
      <trkpt lat="47.551788" lon="7.926512">
        <ele>293.494490</ele>
        <time>2021-11-22T07:06:13.102Z</time>
      </trkpt>
      <trkpt lat="47.552250" lon="7.926787">
        <ele>293.661364</ele>
        <time>2021-11-22T07:06:20.857Z</time>
      </trkpt>
      <trkpt lat="47.552388" lon="7.926860">
        <ele>293.710476</ele>
        <time>2021-11-22T07:06:23.285Z</time>
      </trkpt>
      <trkpt lat="47.552729" lon="7.927061">
        <ele>293.833478</ele>
        <time>2021-11-22T07:06:29.319Z</time>
      </trkpt>
      <trkpt lat="47.552928" lon="7.927209">
        <ele>293.908106</ele>
        <time>2021-11-22T07:06:32.972Z</time>
      </trkpt>
      <trkpt lat="47.553166" lon="7.927389">
        <ele>293.997666</ele>
        <time>2021-11-22T07:06:37.554Z</time>
      </trkpt>
      <trkpt lat="47.553221" lon="7.927438">
        <ele>294.019175</ele>
        <time>2021-11-22T07:06:38.509Z</time>
      </trkpt>
      <trkpt lat="47.553257" lon="7.927322">
        <ele>294.033473</ele>
        <time>2021-11-22T07:06:39.957Z</time>
      </trkpt>
      <trkpt lat="47.553294" lon="7.927186">
        <ele>294.038932</ele>
        <time>2021-11-22T07:06:41.595Z</time>
      </trkpt>
      <trkpt lat="47.553381" lon="7.926895">
        <ele>294.050781</ele>
        <time>2021-11-22T07:06:44.928Z</time>
      </trkpt>
      <trkpt lat="47.553408" lon="7.926803">
        <ele>294.054516</ele>
        <time>2021-11-22T07:06:46.043Z</time>
      </trkpt>
      <trkpt lat="47.553539" lon="7.926451">
        <ele>294.069481</ele>
        <time>2021-11-22T07:06:50.170Z</time>
      </trkpt>
      <trkpt lat="47.553834" lon="7.925632">
        <ele>294.104043</ele>
        <time>2021-11-22T07:06:59.310Z</time>
      </trkpt>
      <trkpt lat="47.554226" lon="7.924713">
        <ele>294.086352</ele>
        <time>2021-11-22T07:07:09.828Z</time>
      </trkpt>
      <trkpt lat="47.554705" lon="7.923835">
        <ele>293.962061</ele>
        <time>2021-11-22T07:07:20.653Z</time>
      </trkpt>
      <trkpt lat="47.555272" lon="7.922934">
        <ele>293.828904</ele>
        <time>2021-11-22T07:07:32.260Z</time>
      </trkpt>
      <trkpt lat="47.556542" lon="7.921551">
        <ele>293.635339</ele>
        <time>2021-11-22T07:07:54.973Z</time>
      </trkpt>
      <trkpt lat="47.557147" lon="7.921064">
        <ele>293.562157</ele>
        <time>2021-11-22T07:08:05.099Z</time>
      </trkpt>
      <trkpt lat="47.558098" lon="7.920440">
        <ele>293.456868</ele>
        <time>2021-11-22T07:08:20.150Z</time>
      </trkpt>
      <trkpt lat="47.558905" lon="7.920046">
        <ele>293.175100</ele>
        <time>2021-11-22T07:08:32.253Z</time>
      </trkpt>
      <trkpt lat="47.559263" lon="7.919871">
        <ele>293.017571</ele>
        <time>2021-11-22T07:08:37.582Z</time>
      </trkpt>
      <trkpt lat="47.561244" lon="7.918902">
        <ele>291.378334</ele>
        <time>2021-11-22T07:09:03.965Z</time>
      </trkpt>
      <trkpt lat="47.561405" lon="7.918835">
        <ele>291.208392</ele>
        <time>2021-11-22T07:09:05.880Z</time>
      </trkpt>
      <trkpt lat="47.561792" lon="7.918633">
        <ele>290.777497</ele>
        <time>2021-11-22T07:09:10.574Z</time>
      </trkpt>
      <trkpt lat="47.562098" lon="7.918473">
        <ele>290.374306</ele>
        <time>2021-11-22T07:09:14.313Z</time>
      </trkpt>
      <trkpt lat="47.562192" lon="7.918413">
        <ele>290.247133</ele>
        <time>2021-11-22T07:09:15.471Z</time>
      </trkpt>
      <trkpt lat="47.562330" lon="7.918325">
        <ele>290.060461</ele>
        <time>2021-11-22T07:09:17.227Z</time>
      </trkpt>
      <trkpt lat="47.562491" lon="7.918206">
        <ele>289.836910</ele>
        <time>2021-11-22T07:09:19.267Z</time>
      </trkpt>
      <trkpt lat="47.562766" lon="7.918001">
        <ele>289.454415</ele>
        <time>2021-11-22T07:09:22.851Z</time>
      </trkpt>
      <trkpt lat="47.562783" lon="7.917983">
        <ele>289.428454</ele>
        <time>2021-11-22T07:09:23.070Z</time>
      </trkpt>
      <trkpt lat="47.563304" lon="7.917434">
        <ele>288.634123</ele>
        <time>2021-11-22T07:09:30.814Z</time>
      </trkpt>
      <trkpt lat="47.563485" lon="7.917258">
        <ele>288.606168</ele>
        <time>2021-11-22T07:09:33.668Z</time>
      </trkpt>
      <trkpt lat="47.564482" lon="7.916219">
        <ele>288.529088</ele>
        <time>2021-11-22T07:09:52.049Z</time>
      </trkpt>
      <trkpt lat="47.564500" lon="7.916200">
        <ele>288.527690</ele>
        <time>2021-11-22T07:09:52.404Z</time>
      </trkpt>
      <trkpt lat="47.564526" lon="7.916174">
        <ele>288.525707</ele>
        <time>2021-11-22T07:09:52.891Z</time>
      </trkpt>
      <trkpt lat="47.564899" lon="7.915798">
        <ele>288.524289</ele>
        <time>2021-11-22T07:10:00.083Z</time>
      </trkpt>
      <trkpt lat="47.565627" lon="7.915066">
        <ele>288.653345</ele>
        <time>2021-11-22T07:10:13.976Z</time>
      </trkpt>
      <trkpt lat="47.565672" lon="7.915025">
        <ele>288.661094</ele>
        <time>2021-11-22T07:10:14.813Z</time>
      </trkpt>
      <trkpt lat="47.565748" lon="7.914949">
        <ele>288.674543</ele>
        <time>2021-11-22T07:10:16.269Z</time>
      </trkpt>
      <trkpt lat="47.565830" lon="7.914880">
        <ele>288.688376</ele>
        <time>2021-11-22T07:10:17.776Z</time>
      </trkpt>
      <trkpt lat="47.565995" lon="7.914739">
        <ele>288.716317</ele>
        <time>2021-11-22T07:10:20.701Z</time>
      </trkpt>
      <trkpt lat="47.566025" lon="7.914720">
        <ele>288.721103</ele>
        <time>2021-11-22T07:10:21.130Z</time>
      </trkpt>
      <trkpt lat="47.566096" lon="7.914676">
        <ele>288.732392</ele>
        <time>2021-11-22T07:10:22.312Z</time>
      </trkpt>
      <trkpt lat="47.566250" lon="7.914580">
        <ele>288.756901</ele>
        <time>2021-11-22T07:10:24.832Z</time>
      </trkpt>
      <trkpt lat="47.566474" lon="7.914468">
        <ele>288.709371</ele>
        <time>2021-11-22T07:10:28.143Z</time>
      </trkpt>
      <trkpt lat="47.566489" lon="7.914461">
        <ele>288.703203</ele>
        <time>2021-11-22T07:10:28.383Z</time>
      </trkpt>
      <trkpt lat="47.566534" lon="7.914439">
        <ele>288.684619</ele>
        <time>2021-11-22T07:10:29.059Z</time>
      </trkpt>
      <trkpt lat="47.566601" lon="7.914411">
        <ele>288.657316</ele>
        <time>2021-11-22T07:10:30.074Z</time>
      </trkpt>
      <trkpt lat="47.566984" lon="7.914229">
        <ele>288.499569</ele>
        <time>2021-11-22T07:10:35.609Z</time>
      </trkpt>
      <trkpt lat="47.567335" lon="7.914048">
        <ele>288.353811</ele>
        <time>2021-11-22T07:10:40.539Z</time>
      </trkpt>
      <trkpt lat="47.567374" lon="7.914028">
        <ele>288.337625</ele>
        <time>2021-11-22T07:10:41.018Z</time>
      </trkpt>
      <trkpt lat="47.568301" lon="7.913554">
        <ele>287.985832</ele>
        <time>2021-11-22T07:10:54.020Z</time>
      </trkpt>
      <trkpt lat="47.568566" lon="7.913414">
        <ele>287.908183</ele>
        <time>2021-11-22T07:10:57.727Z</time>
      </trkpt>
      <trkpt lat="47.569155" lon="7.913298">
        <ele>287.744187</ele>
        <time>2021-11-22T07:11:05.766Z</time>
      </trkpt>
      <trkpt lat="47.569682" lon="7.913220">
        <ele>287.598008</ele>
        <time>2021-11-22T07:11:13.337Z</time>
      </trkpt>
      <trkpt lat="47.571638" lon="7.913041">
        <ele>287.800313</ele>
        <time>2021-11-22T07:11:43.913Z</time>
      </trkpt>
      <trkpt lat="47.571807" lon="7.913030">
        <ele>287.740872</ele>
        <time>2021-11-22T07:11:46.564Z</time>
      </trkpt>
      <trkpt lat="47.571801" lon="7.912878">
        <ele>287.704776</ele>
        <time>2021-11-22T07:11:48.082Z</time>
      </trkpt>
      <trkpt lat="47.571815" lon="7.912822">
        <ele>287.690618</ele>
        <time>2021-11-22T07:11:48.670Z</time>
      </trkpt>
      <trkpt lat="47.571842" lon="7.912780">
        <ele>287.676865</ele>
        <time>2021-11-22T07:11:49.151Z</time>
      </trkpt>
      <trkpt lat="47.572195" lon="7.912650">
        <ele>287.549054</ele>
        <time>2021-11-22T07:11:54.320Z</time>
      </trkpt>
      <trkpt lat="47.572843" lon="7.912399">
        <ele>287.313709</ele>
        <time>2021-11-22T07:12:03.373Z</time>
      </trkpt>
      <trkpt lat="47.572921" lon="7.912369">
        <ele>287.285393</ele>
        <time>2021-11-22T07:12:04.329Z</time>
      </trkpt>
      <trkpt lat="47.573759" lon="7.912034">
        <ele>286.778520</ele>
        <time>2021-11-22T07:12:15.331Z</time>
      </trkpt>
      <trkpt lat="47.573998" lon="7.911915">
        <ele>286.602861</ele>
        <time>2021-11-22T07:12:18.448Z</time>
      </trkpt>
      <trkpt lat="47.574566" lon="7.911447">
        <ele>286.150096</ele>
        <time>2021-11-22T07:12:26.772Z</time>
      </trkpt>
      <trkpt lat="47.574901" lon="7.911251">
        <ele>285.918893</ele>
        <time>2021-11-22T07:12:31.458Z</time>
      </trkpt>
      <trkpt lat="47.575508" lon="7.910912">
        <ele>285.732877</ele>
        <time>2021-11-22T07:12:40.086Z</time>
      </trkpt>
      <trkpt lat="47.575539" lon="7.910898">
        <ele>285.723584</ele>
        <time>2021-11-22T07:12:40.597Z</time>
      </trkpt>
      <trkpt lat="47.575854" lon="7.910743">
        <ele>285.628403</ele>
        <time>2021-11-22T07:12:45.102Z</time>
      </trkpt>
      <trkpt lat="47.576932" lon="7.910134">
        <ele>285.551020</ele>
        <time>2021-11-22T07:13:02.088Z</time>
      </trkpt>
      <trkpt lat="47.577424" lon="7.909886">
        <ele>285.718553</ele>
        <time>2021-11-22T07:13:10.243Z</time>
      </trkpt>
      <trkpt lat="47.577771" lon="7.909710">
        <ele>285.836788</ele>
        <time>2021-11-22T07:13:16.335Z</time>
      </trkpt>
      <trkpt lat="47.578895" lon="7.909087">
        <ele>286.286393</ele>
        <time>2021-11-22T07:13:37.025Z</time>
      </trkpt>
      <trkpt lat="47.579056" lon="7.908962">
        <ele>286.361186</ele>
        <time>2021-11-22T07:13:40.490Z</time>
      </trkpt>
      <trkpt lat="47.579708" lon="7.908314">
        <ele>286.684224</ele>
        <time>2021-11-22T07:13:53.403Z</time>
      </trkpt>
      <trkpt lat="47.580105" lon="7.908168">
        <ele>286.514781</ele>
        <time>2021-11-22T07:13:59.152Z</time>
      </trkpt>
      <trkpt lat="47.580194" lon="7.908192">
        <ele>286.443247</ele>
        <time>2021-11-22T07:14:00.317Z</time>
      </trkpt>
      <trkpt lat="47.580422" lon="7.908273">
        <ele>286.257846</ele>
        <time>2021-11-22T07:14:03.446Z</time>
      </trkpt>
      <trkpt lat="47.580470" lon="7.908164">
        <ele>286.188411</ele>
        <time>2021-11-22T07:14:04.435Z</time>
      </trkpt>
      <trkpt lat="47.580552" lon="7.908081">
        <ele>286.109894</ele>
        <time>2021-11-22T07:14:05.802Z</time>
      </trkpt>
      <trkpt lat="47.581568" lon="7.907612">
        <ele>285.280428</ele>
        <time>2021-11-22T07:14:18.660Z</time>
      </trkpt>
      <trkpt lat="47.581793" lon="7.907472">
        <ele>285.137618</ele>
        <time>2021-11-22T07:14:21.432Z</time>
      </trkpt>
      <trkpt lat="47.582248" lon="7.907090">
        <ele>284.831593</ele>
        <time>2021-11-22T07:14:27.645Z</time>
      </trkpt>
      <trkpt lat="47.582657" lon="7.906618">
        <ele>284.528252</ele>
        <time>2021-11-22T07:14:34.278Z</time>
      </trkpt>
      <trkpt lat="47.582951" lon="7.906415">
        <ele>284.338442</ele>
        <time>2021-11-22T07:14:39.207Z</time>
      </trkpt>
      <trkpt lat="47.583077" lon="7.906399">
        <ele>284.264430</ele>
        <time>2021-11-22T07:14:41.085Z</time>
      </trkpt>
      <trkpt lat="47.583245" lon="7.906443">
        <ele>284.549719</ele>
        <time>2021-11-22T07:14:44.499Z</time>
      </trkpt>
      <trkpt lat="47.583451" lon="7.906619">
        <ele>284.960910</ele>
        <time>2021-11-22T07:14:49.040Z</time>
      </trkpt>
      <trkpt lat="47.583711" lon="7.906911">
        <ele>285.525017</ele>
        <time>2021-11-22T07:14:55.782Z</time>
      </trkpt>
      <trkpt lat="47.583887" lon="7.907113">
        <ele>285.909951</ele>
        <time>2021-11-22T07:15:00.765Z</time>
      </trkpt>
      <trkpt lat="47.584719" lon="7.908091">
        <ele>288.097688</ele>
        <time>2021-11-22T07:15:26.387Z</time>
      </trkpt>
      <trkpt lat="47.585084" lon="7.908692">
        <ele>289.928439</ele>
        <time>2021-11-22T07:15:41.074Z</time>
      </trkpt>
      <trkpt lat="47.585149" lon="7.908804">
        <ele>290.262912</ele>
        <time>2021-11-22T07:15:44.029Z</time>
      </trkpt>
      <trkpt lat="47.585222" lon="7.908901">
        <ele>290.591915</ele>
        <time>2021-11-22T07:15:47.191Z</time>
      </trkpt>
      <trkpt lat="47.585337" lon="7.909031">
        <ele>291.077271</ele>
        <time>2021-11-22T07:15:51.370Z</time>
      </trkpt>
      <trkpt lat="47.585078" lon="7.909509">
        <ele>292.465244</ele>
        <time>2021-11-22T07:16:03.409Z</time>
      </trkpt>
      <trkpt lat="47.585045" lon="7.909674">
        <ele>292.854836</ele>
        <time>2021-11-22T07:16:06.821Z</time>
      </trkpt>
      <trkpt lat="47.585051" lon="7.909751">
        <ele>293.030303</ele>
        <time>2021-11-22T07:16:08.678Z</time>
      </trkpt>
      <trkpt lat="47.585066" lon="7.909809">
        <ele>293.170921</ele>
        <time>2021-11-22T07:16:09.958Z</time>
      </trkpt>
      <trkpt lat="47.585093" lon="7.909869">
        <ele>293.334199</ele>
        <time>2021-11-22T07:16:11.290Z</time>
      </trkpt>
      <trkpt lat="47.585157" lon="7.909965">
        <ele>293.715779</ele>
        <time>2021-11-22T07:16:13.667Z</time>
      </trkpt>
      <trkpt lat="47.585271" lon="7.910136">
        <ele>294.439536</ele>
        <time>2021-11-22T07:16:18.638Z</time>
      </trkpt>
      <trkpt lat="47.585430" lon="7.910346">
        <ele>295.389884</ele>
        <time>2021-11-22T07:16:25.560Z</time>
      </trkpt>
      <trkpt lat="47.585610" lon="7.910640">
        <ele>296.585116</ele>
        <time>2021-11-22T07:16:35.189Z</time>
      </trkpt>
      <trkpt lat="47.586028" lon="7.911561">
        <ele>299.926727</ele>
        <time>2021-11-22T07:17:01.269Z</time>
      </trkpt>
      <trkpt lat="47.586263" lon="7.911881">
        <ele>301.350752</ele>
        <time>2021-11-22T07:17:11.525Z</time>
      </trkpt>
      <trkpt lat="47.586433" lon="7.912047">
        <ele>301.863523</ele>
        <time>2021-11-22T07:17:18.103Z</time>
      </trkpt>
      <trkpt lat="47.586622" lon="7.912140">
        <ele>302.324809</ele>
        <time>2021-11-22T07:17:23.825Z</time>
      </trkpt>
      <trkpt lat="47.586917" lon="7.912301">
        <ele>303.052980</ele>
        <time>2021-11-22T07:17:31.682Z</time>
      </trkpt>
      <trkpt lat="47.587725" lon="7.912508">
        <ele>304.952387</ele>
        <time>2021-11-22T07:17:50.377Z</time>
      </trkpt>
      <trkpt lat="47.587897" lon="7.912517">
        <ele>305.351060</ele>
        <time>2021-11-22T07:17:53.934Z</time>
      </trkpt>
      <trkpt lat="47.588907" lon="7.912607">
        <ele>305.868430</ele>
        <time>2021-11-22T07:18:09.390Z</time>
      </trkpt>
      <trkpt lat="47.589326" lon="7.912720">
        <ele>305.993635</ele>
        <time>2021-11-22T07:18:15.729Z</time>
      </trkpt>
      <trkpt lat="47.589873" lon="7.912855">
        <ele>306.199678</ele>
        <time>2021-11-22T07:18:24.229Z</time>
      </trkpt>
      <trkpt lat="47.590231" lon="7.912830">
        <ele>306.486740</ele>
        <time>2021-11-22T07:18:29.953Z</time>
      </trkpt>
      <trkpt lat="47.590570" lon="7.912784">
        <ele>306.759400</ele>
        <time>2021-11-22T07:18:36.074Z</time>
      </trkpt>
      <trkpt lat="47.591044" lon="7.912710">
        <ele>307.141154</ele>
        <time>2021-11-22T07:18:45.147Z</time>
      </trkpt>
      <trkpt lat="47.591348" lon="7.912662">
        <ele>307.386023</ele>
        <time>2021-11-22T07:18:51.228Z</time>
      </trkpt>
      <trkpt lat="47.591443" lon="7.912678">
        <ele>307.462604</ele>
        <time>2021-11-22T07:18:52.806Z</time>
      </trkpt>
      <trkpt lat="47.591605" lon="7.912829">
        <ele>307.649957</ele>
        <time>2021-11-22T07:18:57.051Z</time>
      </trkpt>
      <trkpt lat="47.591714" lon="7.913064">
        <ele>307.924741</ele>
        <time>2021-11-22T07:19:00.357Z</time>
      </trkpt>
      <trkpt lat="47.591721" lon="7.913096">
        <ele>307.957152</ele>
        <time>2021-11-22T07:19:00.743Z</time>
      </trkpt>
      <trkpt lat="47.591746" lon="7.913330">
        <ele>308.185406</ele>
        <time>2021-11-22T07:19:04.467Z</time>
      </trkpt>
      <trkpt lat="47.591809" lon="7.913704">
        <ele>308.556799</ele>
        <time>2021-11-22T07:19:08.686Z</time>
      </trkpt>
      <trkpt lat="47.591858" lon="7.913783">
        <ele>308.660205</ele>
        <time>2021-11-22T07:19:10.598Z</time>
      </trkpt>
      <trkpt lat="47.591953" lon="7.913843">
        <ele>308.807716</ele>
        <time>2021-11-22T07:19:12.594Z</time>
      </trkpt>
      <trkpt lat="47.592496" lon="7.914014">
        <ele>309.600723</ele>
        <time>2021-11-22T07:19:23.550Z</time>
      </trkpt>
      <trkpt lat="47.592589" lon="7.914035">
        <ele>309.735110</ele>
        <time>2021-11-22T07:19:26.571Z</time>
      </trkpt>
      <trkpt lat="47.592672" lon="7.914009">
        <ele>309.856298</ele>
        <time>2021-11-22T07:19:28.233Z</time>
      </trkpt>
      <trkpt lat="47.592807" lon="7.913929">
        <ele>310.063983</ele>
        <time>2021-11-22T07:19:30.696Z</time>
      </trkpt>
      <trkpt lat="47.593189" lon="7.913725">
        <ele>310.938890</ele>
        <time>2021-11-22T07:19:40.139Z</time>
      </trkpt>
      <trkpt lat="47.593511" lon="7.913649">
        <ele>311.678191</ele>
        <time>2021-11-22T07:19:48.073Z</time>
      </trkpt>
      <trkpt lat="47.593654" lon="7.913672">
        <ele>312.004334</ele>
        <time>2021-11-22T07:19:51.817Z</time>
      </trkpt>
      <trkpt lat="47.594163" lon="7.913924">
        <ele>313.221079</ele>
        <time>2021-11-22T07:20:04.972Z</time>
      </trkpt>
      <trkpt lat="47.594719" lon="7.914022">
        <ele>314.428373</ele>
        <time>2021-11-22T07:20:18.815Z</time>
      </trkpt>
      <trkpt lat="47.594871" lon="7.914141">
        <ele>314.728404</ele>
        <time>2021-11-22T07:20:22.792Z</time>
      </trkpt>
      <trkpt lat="47.595031" lon="7.914316">
        <ele>315.075444</ele>
        <time>2021-11-22T07:20:27.666Z</time>
      </trkpt>
      <trkpt lat="47.595292" lon="7.914664">
        <ele>315.688115</ele>
        <time>2021-11-22T07:20:35.293Z</time>
      </trkpt>
      <trkpt lat="47.595476" lon="7.914889">
        <ele>316.104414</ele>
        <time>2021-11-22T07:20:40.379Z</time>
      </trkpt>
      <trkpt lat="47.595688" lon="7.915084">
        <ele>316.539878</ele>
        <time>2021-11-22T07:20:45.812Z</time>
      </trkpt>
      <trkpt lat="47.595861" lon="7.915155">
        <ele>316.853209</ele>
        <time>2021-11-22T07:20:49.332Z</time>
      </trkpt>
      <trkpt lat="47.595909" lon="7.915188">
        <ele>316.945562</ele>
        <time>2021-11-22T07:20:50.415Z</time>
      </trkpt>
      <trkpt lat="47.595949" lon="7.915202">
        <ele>317.017302</ele>
        <time>2021-11-22T07:20:51.347Z</time>
      </trkpt>
      <trkpt lat="47.596117" lon="7.915243">
        <ele>317.314498</ele>
        <time>2021-11-22T07:20:54.943Z</time>
      </trkpt>
      <trkpt lat="47.596349" lon="7.915301">
        <ele>317.560245</ele>
        <time>2021-11-22T07:20:59.373Z</time>
      </trkpt>
      <trkpt lat="47.596736" lon="7.915598">
        <ele>317.977601</ele>
        <time>2021-11-22T07:21:07.211Z</time>
      </trkpt>
      <trkpt lat="47.596850" lon="7.915674">
        <ele>318.097314</ele>
        <time>2021-11-22T07:21:09.200Z</time>
      </trkpt>
      <trkpt lat="47.597083" lon="7.915733">
        <ele>318.323706</ele>
        <time>2021-11-22T07:21:13.332Z</time>
      </trkpt>
      <trkpt lat="47.597656" lon="7.915778">
        <ele>318.873283</ele>
        <time>2021-11-22T07:21:23.506Z</time>
      </trkpt>
      <trkpt lat="47.599120" lon="7.915596">
        <ele>320.512797</ele>
        <time>2021-11-22T07:21:53.477Z</time>
      </trkpt>
      <trkpt lat="47.599374" lon="7.915625">
        <ele>320.804128</ele>
        <time>2021-11-22T07:21:58.189Z</time>
      </trkpt>
      <trkpt lat="47.599906" lon="7.915798">
        <ele>321.257490</ele>
        <time>2021-11-22T07:22:08.015Z</time>
      </trkpt>
      <trkpt lat="47.600078" lon="7.915859">
        <ele>321.340571</ele>
        <time>2021-11-22T07:22:11.079Z</time>
      </trkpt>
      <trkpt lat="47.600344" lon="7.915900">
        <ele>321.466206</ele>
        <time>2021-11-22T07:22:15.570Z</time>
      </trkpt>
      <trkpt lat="47.600545" lon="7.915898">
        <ele>321.560634</ele>
        <time>2021-11-22T07:22:19.035Z</time>
      </trkpt>
      <trkpt lat="47.600689" lon="7.915853">
        <ele>321.629768</ele>
        <time>2021-11-22T07:22:21.364Z</time>
      </trkpt>
      <trkpt lat="47.601054" lon="7.915633">
        <ele>321.814859</ele>
        <time>2021-11-22T07:22:27.781Z</time>
      </trkpt>
      <trkpt lat="47.601546" lon="7.915285">
        <ele>322.123562</ele>
        <time>2021-11-22T07:22:36.186Z</time>
      </trkpt>
      <trkpt lat="47.602131" lon="7.915025">
        <ele>322.584737</ele>
        <time>2021-11-22T07:22:45.870Z</time>
      </trkpt>
      <trkpt lat="47.602754" lon="7.914823">
        <ele>323.066309</ele>
        <time>2021-11-22T07:22:57.690Z</time>
      </trkpt>
      <trkpt lat="47.603302" lon="7.914722">
        <ele>323.625060</ele>
        <time>2021-11-22T07:23:08.827Z</time>
      </trkpt>
      <trkpt lat="47.603466" lon="7.914620">
        <ele>323.894578</ele>
        <time>2021-11-22T07:23:12.742Z</time>
      </trkpt>
      <trkpt lat="47.603615" lon="7.914449">
        <ele>324.180105</ele>
        <time>2021-11-22T07:23:16.693Z</time>
      </trkpt>
      <trkpt lat="47.603884" lon="7.914671">
        <ele>324.646650</ele>
        <time>2021-11-22T07:23:23.403Z</time>
      </trkpt>
      <trkpt lat="47.604062" lon="7.914772">
        <ele>324.935484</ele>
        <time>2021-11-22T07:23:27.604Z</time>
      </trkpt>
      <trkpt lat="47.604393" lon="7.914885">
        <ele>325.450243</ele>
        <time>2021-11-22T07:23:34.612Z</time>
      </trkpt>
      <trkpt lat="47.604722" lon="7.914915">
        <ele>325.949796</ele>
        <time>2021-11-22T07:23:41.245Z</time>
      </trkpt>
      <trkpt lat="47.605105" lon="7.914869">
        <ele>326.455623</ele>
        <time>2021-11-22T07:23:49.145Z</time>
      </trkpt>
      <trkpt lat="47.605408" lon="7.914750">
        <ele>326.852262</ele>
        <time>2021-11-22T07:23:55.811Z</time>
      </trkpt>
      <trkpt lat="47.605648" lon="7.914613">
        <ele>327.177682</ele>
        <time>2021-11-22T07:24:01.177Z</time>
      </trkpt>
      <trkpt lat="47.605929" lon="7.914457">
        <ele>327.557360</ele>
        <time>2021-11-22T07:24:07.093Z</time>
      </trkpt>
      <trkpt lat="47.606200" lon="7.914255">
        <ele>327.941162</ele>
        <time>2021-11-22T07:24:12.914Z</time>
      </trkpt>
      <trkpt lat="47.606450" lon="7.914067">
        <ele>328.295857</ele>
        <time>2021-11-22T07:24:18.178Z</time>
      </trkpt>
      <trkpt lat="47.606558" lon="7.913988">
        <ele>328.444664</ele>
        <time>2021-11-22T07:24:20.378Z</time>
      </trkpt>
      <trkpt lat="47.606706" lon="7.913869">
        <ele>328.650354</ele>
        <time>2021-11-22T07:24:23.511Z</time>
      </trkpt>
      <trkpt lat="47.606938" lon="7.913697">
        <ele>328.967253</ele>
        <time>2021-11-22T07:24:28.332Z</time>
      </trkpt>
      <trkpt lat="47.607292" lon="7.913435">
        <ele>329.450631</ele>
        <time>2021-11-22T07:24:35.956Z</time>
      </trkpt>
      <trkpt lat="47.607663" lon="7.913198">
        <ele>329.944177</ele>
        <time>2021-11-22T07:24:44.207Z</time>
      </trkpt>
      <trkpt lat="47.608679" lon="7.912703">
        <ele>331.384787</ele>
        <time>2021-11-22T07:25:06.359Z</time>
      </trkpt>
      <trkpt lat="47.609914" lon="7.912278">
        <ele>333.195727</ele>
        <time>2021-11-22T07:25:32.381Z</time>
      </trkpt>
      <trkpt lat="47.610416" lon="7.911983">
        <ele>333.640292</ele>
        <time>2021-11-22T07:25:43.954Z</time>
      </trkpt>
      <trkpt lat="47.611260" lon="7.911383">
        <ele>334.410864</ele>
        <time>2021-11-22T07:26:00.450Z</time>
      </trkpt>
      <trkpt lat="47.611369" lon="7.911320">
        <ele>334.507179</ele>
        <time>2021-11-22T07:26:02.513Z</time>
      </trkpt>
      <trkpt lat="47.612029" lon="7.910940">
        <ele>334.276098</ele>
        <time>2021-11-22T07:26:12.137Z</time>
      </trkpt>
      <trkpt lat="47.612005" lon="7.910790">
        <ele>334.208240</ele>
        <time>2021-11-22T07:26:13.414Z</time>
      </trkpt>
      <trkpt lat="47.611994" lon="7.910676">
        <ele>334.157550</ele>
        <time>2021-11-22T07:26:14.448Z</time>
      </trkpt>
      <trkpt lat="47.611988" lon="7.910610">
        <ele>334.128237</ele>
        <time>2021-11-22T07:26:14.953Z</time>
      </trkpt>
      <trkpt lat="47.611981" lon="7.910534">
        <ele>334.094474</ele>
        <time>2021-11-22T07:26:15.597Z</time>
      </trkpt>
      <trkpt lat="47.611986" lon="7.910466">
        <ele>334.064365</ele>
        <time>2021-11-22T07:26:16.421Z</time>
      </trkpt>
      <trkpt lat="47.612020" lon="7.910364">
        <ele>334.014280</ele>
        <time>2021-11-22T07:26:17.473Z</time>
      </trkpt>
      <trkpt lat="47.612082" lon="7.910269">
        <ele>333.956081</ele>
        <time>2021-11-22T07:26:18.597Z</time>
      </trkpt>
      <trkpt lat="47.612131" lon="7.910214">
        <ele>333.915961</ele>
        <time>2021-11-22T07:26:19.364Z</time>
      </trkpt>
      <trkpt lat="47.612216" lon="7.910134">
        <ele>333.850234</ele>
        <time>2021-11-22T07:26:20.606Z</time>
      </trkpt>
      <trkpt lat="47.612897" lon="7.909812">
        <ele>333.312322</ele>
        <time>2021-11-22T07:26:29.445Z</time>
      </trkpt>
      <trkpt lat="47.613280" lon="7.909624">
        <ele>332.808936</ele>
        <time>2021-11-22T07:26:34.027Z</time>
      </trkpt>
      <trkpt lat="47.613360" lon="7.909602">
        <ele>332.707413</ele>
        <time>2021-11-22T07:26:34.962Z</time>
      </trkpt>
      <trkpt lat="47.613934" lon="7.909339">
        <ele>331.957799</ele>
        <time>2021-11-22T07:26:41.797Z</time>
      </trkpt>
      <trkpt lat="47.614063" lon="7.909285">
        <ele>331.790549</ele>
        <time>2021-11-22T07:26:43.412Z</time>
      </trkpt>
      <trkpt lat="47.614412" lon="7.909095">
        <ele>331.326672</ele>
        <time>2021-11-22T07:26:47.936Z</time>
      </trkpt>
      <trkpt lat="47.614784" lon="7.908839">
        <ele>331.095243</ele>
        <time>2021-11-22T07:26:53.145Z</time>
      </trkpt>
      <trkpt lat="47.614876" lon="7.908760">
        <ele>331.054972</ele>
        <time>2021-11-22T07:26:54.558Z</time>
      </trkpt>
      <trkpt lat="47.615085" lon="7.908567">
        <ele>330.961707</ele>
        <time>2021-11-22T07:26:57.700Z</time>
      </trkpt>
      <trkpt lat="47.615246" lon="7.908385">
        <ele>330.885023</ele>
        <time>2021-11-22T07:27:00.403Z</time>
      </trkpt>
      <trkpt lat="47.615374" lon="7.908222">
        <ele>330.821116</ele>
        <time>2021-11-22T07:27:02.519Z</time>
      </trkpt>
      <trkpt lat="47.615460" lon="7.908111">
        <ele>330.777930</ele>
        <time>2021-11-22T07:27:04.037Z</time>
      </trkpt>
      <trkpt lat="47.615669" lon="7.907870">
        <ele>330.677646</ele>
        <time>2021-11-22T07:27:07.596Z</time>
      </trkpt>
      <trkpt lat="47.615821" lon="7.907747">
        <ele>330.612052</ele>
        <time>2021-11-22T07:27:10.052Z</time>
      </trkpt>
      <trkpt lat="47.615946" lon="7.907692">
        <ele>330.562659</ele>
        <time>2021-11-22T07:27:11.862Z</time>
      </trkpt>
      <trkpt lat="47.616009" lon="7.907686">
        <ele>330.538743</ele>
        <time>2021-11-22T07:27:13.078Z</time>
      </trkpt>
      <trkpt lat="47.616124" lon="7.907729">
        <ele>330.709637</ele>
        <time>2021-11-22T07:27:15.093Z</time>
      </trkpt>
      <trkpt lat="47.616604" lon="7.908203">
        <ele>331.607828</ele>
        <time>2021-11-22T07:27:26.521Z</time>
      </trkpt>
      <trkpt lat="47.616832" lon="7.908284">
        <ele>331.973021</ele>
        <time>2021-11-22T07:27:31.656Z</time>
      </trkpt>
      <trkpt lat="47.617086" lon="7.908230">
        <ele>332.372713</ele>
        <time>2021-11-22T07:27:37.322Z</time>
      </trkpt>
      <trkpt lat="47.617238" lon="7.908130">
        <ele>332.631719</ele>
        <time>2021-11-22T07:27:40.873Z</time>
      </trkpt>
      <trkpt lat="47.617957" lon="7.907285">
        <ele>334.802679</ele>
        <time>2021-11-22T07:28:02.971Z</time>
      </trkpt>
      <trkpt lat="47.618470" lon="7.907083">
        <ele>336.478313</ele>
        <time>2021-11-22T07:28:18.278Z</time>
      </trkpt>
      <trkpt lat="47.618579" lon="7.906988">
        <ele>336.877420</ele>
        <time>2021-11-22T07:28:21.593Z</time>
      </trkpt>
      <trkpt lat="47.618719" lon="7.906838">
        <ele>337.422619</ele>
        <time>2021-11-22T07:28:27.208Z</time>
      </trkpt>
      <trkpt lat="47.618867" lon="7.906514">
        <ele>338.255505</ele>
        <time>2021-11-22T07:28:34.240Z</time>
      </trkpt>
      <trkpt lat="47.618888" lon="7.906392">
        <ele>338.523455</ele>
        <time>2021-11-22T07:28:37.431Z</time>
      </trkpt>
      <trkpt lat="47.618920" lon="7.906208">
        <ele>338.927834</ele>
        <time>2021-11-22T07:28:41.273Z</time>
      </trkpt>
      <trkpt lat="47.618976" lon="7.905535">
        <ele>340.370729</ele>
        <time>2021-11-22T07:28:53.498Z</time>
      </trkpt>
      <trkpt lat="47.619155" lon="7.905319">
        <ele>341.099098</ele>
        <time>2021-11-22T07:29:00.771Z</time>
      </trkpt>
      <trkpt lat="47.619299" lon="7.905308">
        <ele>341.554267</ele>
        <time>2021-11-22T07:29:04.033Z</time>
      </trkpt>
      <trkpt lat="47.619447" lon="7.905300">
        <ele>342.021771</ele>
        <time>2021-11-22T07:29:09.133Z</time>
      </trkpt>
      <trkpt lat="47.620426" lon="7.905244">
        <ele>344.969966</ele>
        <time>2021-11-22T07:29:34.815Z</time>
      </trkpt>
      <trkpt lat="47.620699" lon="7.905223">
        <ele>345.536364</ele>
        <time>2021-11-22T07:29:41.271Z</time>
      </trkpt>
      <trkpt lat="47.621107" lon="7.905191">
        <ele>346.382896</ele>
        <time>2021-11-22T07:29:50.843Z</time>
      </trkpt>
      <trkpt lat="47.621248" lon="7.905159">
        <ele>346.678437</ele>
        <time>2021-11-22T07:29:54.078Z</time>
      </trkpt>
      <trkpt lat="47.622235" lon="7.904957">
        <ele>348.592231</ele>
        <time>2021-11-22T07:30:16.155Z</time>
      </trkpt>
      <trkpt lat="47.622424" lon="7.904919">
        <ele>348.802733</ele>
        <time>2021-11-22T07:30:20.192Z</time>
      </trkpt>
      <trkpt lat="47.622648" lon="7.904863">
        <ele>349.053442</ele>
        <time>2021-11-22T07:30:24.974Z</time>
      </trkpt>
      <trkpt lat="47.623650" lon="7.904642">
        <ele>350.171482</ele>
        <time>2021-11-22T07:30:44.006Z</time>
      </trkpt>
      <trkpt lat="47.624120" lon="7.904530">
        <ele>350.424385</ele>
        <time>2021-11-22T07:30:52.034Z</time>
      </trkpt>
      <trkpt lat="47.624263" lon="7.904484">
        <ele>350.434737</ele>
        <time>2021-11-22T07:30:54.224Z</time>
      </trkpt>
      <trkpt lat="47.624399" lon="7.904386">
        <ele>350.445434</ele>
        <time>2021-11-22T07:30:56.476Z</time>
      </trkpt>
      <trkpt lat="47.624451" lon="7.904332">
        <ele>350.449924</ele>
        <time>2021-11-22T07:30:57.453Z</time>
      </trkpt>
      <trkpt lat="47.624472" lon="7.904367">
        <ele>350.452159</ele>
        <time>2021-11-22T07:30:57.872Z</time>
      </trkpt>
      <trkpt lat="47.624565" lon="7.904455">
        <ele>350.459963</ele>
        <time>2021-11-22T07:30:59.462Z</time>
      </trkpt>
      <trkpt lat="47.624761" lon="7.904481">
        <ele>350.473885</ele>
        <time>2021-11-22T07:31:02.243Z</time>
      </trkpt>
      <trkpt lat="47.624956" lon="7.904522">
        <ele>350.487819</ele>
        <time>2021-11-22T07:31:04.956Z</time>
      </trkpt>
      <trkpt lat="47.625088" lon="7.904563">
        <ele>350.497360</ele>
        <time>2021-11-22T07:31:06.922Z</time>
      </trkpt>
      <trkpt lat="47.625516" lon="7.904701">
        <ele>350.528347</ele>
        <time>2021-11-22T07:31:13.325Z</time>
      </trkpt>
      <trkpt lat="47.625742" lon="7.904774">
        <ele>350.627078</ele>
        <time>2021-11-22T07:31:16.571Z</time>
      </trkpt>
      <trkpt lat="47.626086" lon="7.904879">
        <ele>350.826304</ele>
        <time>2021-11-22T07:31:22.113Z</time>
      </trkpt>
      <trkpt lat="47.626221" lon="7.904920">
        <ele>350.904473</ele>
        <time>2021-11-22T07:31:24.375Z</time>
      </trkpt>
      <trkpt lat="47.626399" lon="7.904961">
        <ele>351.006656</ele>
        <time>2021-11-22T07:31:27.323Z</time>
      </trkpt>
      <trkpt lat="47.626440" lon="7.905007">
        <ele>351.035814</ele>
        <time>2021-11-22T07:31:28.020Z</time>
      </trkpt>
      <trkpt lat="47.626505" lon="7.904968">
        <ele>351.075587</ele>
        <time>2021-11-22T07:31:29.359Z</time>
      </trkpt>
      <trkpt lat="47.627067" lon="7.904813">
        <ele>351.399851</ele>
        <time>2021-11-22T07:31:39.553Z</time>
      </trkpt>
      <trkpt lat="47.627287" lon="7.904761">
        <ele>351.526223</ele>
        <time>2021-11-22T07:31:43.826Z</time>
      </trkpt>
      <trkpt lat="47.627467" lon="7.904744">
        <ele>351.746458</ele>
        <time>2021-11-22T07:31:47.429Z</time>
      </trkpt>
      <trkpt lat="47.627955" lon="7.904708">
        <ele>352.457939</ele>
        <time>2021-11-22T07:31:57.443Z</time>
      </trkpt>
      <trkpt lat="47.628650" lon="7.904559">
        <ele>353.480475</ele>
        <time>2021-11-22T07:32:11.976Z</time>
      </trkpt>
      <trkpt lat="47.628975" lon="7.904514">
        <ele>353.955781</ele>
        <time>2021-11-22T07:32:19.090Z</time>
      </trkpt>
      <trkpt lat="47.629371" lon="7.904510">
        <ele>354.476735</ele>
        <time>2021-11-22T07:32:27.458Z</time>
      </trkpt>
      <trkpt lat="47.629718" lon="7.904514">
        <ele>354.903869</ele>
        <time>2021-11-22T07:32:35.041Z</time>
      </trkpt>
      <trkpt lat="47.629946" lon="7.904556">
        <ele>355.186668</ele>
        <time>2021-11-22T07:32:40.083Z</time>
      </trkpt>
      <trkpt lat="47.630445" lon="7.904626">
        <ele>355.803624</ele>
        <time>2021-11-22T07:32:50.058Z</time>
      </trkpt>
      <trkpt lat="47.630822" lon="7.904762">
        <ele>356.281188</ele>
        <time>2021-11-22T07:32:56.738Z</time>
      </trkpt>
      <trkpt lat="47.630954" lon="7.904809">
        <ele>356.409188</ele>
        <time>2021-11-22T07:32:58.928Z</time>
      </trkpt>
      <trkpt lat="47.631006" lon="7.904827">
        <ele>356.433438</ele>
        <time>2021-11-22T07:32:59.952Z</time>
      </trkpt>
      <trkpt lat="47.631413" lon="7.905026">
        <ele>356.628057</ele>
        <time>2021-11-22T07:33:06.985Z</time>
      </trkpt>
      <trkpt lat="47.632152" lon="7.905421">
        <ele>356.984790</ele>
        <time>2021-11-22T07:33:18.635Z</time>
      </trkpt>
      <trkpt lat="47.632494" lon="7.905530">
        <ele>357.143654</ele>
        <time>2021-11-22T07:33:24.692Z</time>
      </trkpt>
      <trkpt lat="47.632636" lon="7.905581">
        <ele>357.233087</ele>
        <time>2021-11-22T07:33:27.383Z</time>
      </trkpt>
      <trkpt lat="47.632631" lon="7.905629">
        <ele>357.298371</ele>
        <time>2021-11-22T07:33:28.037Z</time>
      </trkpt>
      <trkpt lat="47.632676" lon="7.905752">
        <ele>357.486492</ele>
        <time>2021-11-22T07:33:30.061Z</time>
      </trkpt>
      <trkpt lat="47.632707" lon="7.905770">
        <ele>357.552890</ele>
        <time>2021-11-22T07:33:30.675Z</time>
      </trkpt>
      <trkpt lat="47.632706" lon="7.905872">
        <ele>357.690005</ele>
        <time>2021-11-22T07:33:31.877Z</time>
      </trkpt>
      <trkpt lat="47.632715" lon="7.906284">
        <ele>358.244075</ele>
        <time>2021-11-22T07:33:37.404Z</time>
      </trkpt>
      <trkpt lat="47.632729" lon="7.906470">
        <ele>358.495637</ele>
        <time>2021-11-22T07:33:39.955Z</time>
      </trkpt>
      <trkpt lat="47.632761" lon="7.906666">
        <ele>358.766706</ele>
        <time>2021-11-22T07:33:43.016Z</time>
      </trkpt>
      <trkpt lat="47.632805" lon="7.906819">
        <ele>358.990301</ele>
        <time>2021-11-22T07:33:45.482Z</time>
      </trkpt>
      <trkpt lat="47.632832" lon="7.906880">
        <ele>359.088397</ele>
        <time>2021-11-22T07:33:46.560Z</time>
      </trkpt>
      <trkpt lat="47.632986" lon="7.907145">
        <ele>359.558743</ele>
        <time>2021-11-22T07:33:52.356Z</time>
      </trkpt>
      <trkpt lat="47.633159" lon="7.907454">
        <ele>360.098716</ele>
        <time>2021-11-22T07:33:59.070Z</time>
      </trkpt>
      <trkpt lat="47.633215" lon="7.907615">
        <ele>360.342244</ele>
        <time>2021-11-22T07:34:02.201Z</time>
      </trkpt>
      <trkpt lat="47.633350" lon="7.907844">
        <ele>360.751205</ele>
        <time>2021-11-22T07:34:07.996Z</time>
      </trkpt>
      <trkpt lat="47.633703" lon="7.908224">
        <ele>361.889820</ele>
        <time>2021-11-22T07:34:20.139Z</time>
      </trkpt>
      <trkpt lat="47.634255" lon="7.909080">
        <ele>363.997818</ele>
        <time>2021-11-22T07:34:40.929Z</time>
      </trkpt>
      <trkpt lat="47.634288" lon="7.909241">
        <ele>364.297225</ele>
        <time>2021-11-22T07:34:44.009Z</time>
      </trkpt>
      <trkpt lat="47.634340" lon="7.909465">
        <ele>364.718750</ele>
        <time>2021-11-22T07:34:47.726Z</time>
      </trkpt>
      <trkpt lat="47.634573" lon="7.910034">
        <ele>365.880666</ele>
        <time>2021-11-22T07:34:57.585Z</time>
      </trkpt>
      <trkpt lat="47.634747" lon="7.910263">
        <ele>366.456381</ele>
        <time>2021-11-22T07:35:02.938Z</time>
      </trkpt>
      <trkpt lat="47.635022" lon="7.910544">
        <ele>367.282899</ele>
        <time>2021-11-22T07:35:10.719Z</time>
      </trkpt>
      <trkpt lat="47.635189" lon="7.910745">
        <ele>367.815174</ele>
        <time>2021-11-22T07:35:15.820Z</time>
      </trkpt>
      <trkpt lat="47.635549" lon="7.911051">
        <ele>368.842167</ele>
        <time>2021-11-22T07:35:25.733Z</time>
      </trkpt>
      <trkpt lat="47.636072" lon="7.911368">
        <ele>370.604081</ele>
        <time>2021-11-22T07:35:40.478Z</time>
      </trkpt>
      <trkpt lat="47.636435" lon="7.911560">
        <ele>372.953425</ele>
        <time>2021-11-22T07:35:52.137Z</time>
      </trkpt>
      <trkpt lat="47.636948" lon="7.911886">
        <ele>376.355535</ele>
        <time>2021-11-22T07:36:11.697Z</time>
      </trkpt>
      <trkpt lat="47.637200" lon="7.912228">
        <ele>378.437345</ele>
        <time>2021-11-22T07:36:27.732Z</time>
      </trkpt>
      <trkpt lat="47.637358" lon="7.912526">
        <ele>379.995020</ele>
        <time>2021-11-22T07:36:41.284Z</time>
      </trkpt>
      <trkpt lat="47.637499" lon="7.912845">
        <ele>381.985661</ele>
        <time>2021-11-22T07:36:52.398Z</time>
      </trkpt>
      <trkpt lat="47.637608" lon="7.913197">
        <ele>384.691234</ele>
        <time>2021-11-22T07:37:07.216Z</time>
      </trkpt>
      <trkpt lat="47.637710" lon="7.913454">
        <ele>386.774360</ele>
        <time>2021-11-22T07:37:19.771Z</time>
      </trkpt>
      <trkpt lat="47.637792" lon="7.913603">
        <ele>388.117965</ele>
        <time>2021-11-22T07:37:25.854Z</time>
      </trkpt>
      <trkpt lat="47.637897" lon="7.913737">
        <ele>389.553331</ele>
        <time>2021-11-22T07:37:32.745Z</time>
      </trkpt>
      <trkpt lat="47.637924" lon="7.913766">
        <ele>389.898786</ele>
        <time>2021-11-22T07:37:36.302Z</time>
      </trkpt>
      <trkpt lat="47.638182" lon="7.913951">
        <ele>392.868716</ele>
        <time>2021-11-22T07:37:50.541Z</time>
      </trkpt>
      <trkpt lat="47.639028" lon="7.914042">
        <ele>401.132008</ele>
        <time>2021-11-22T07:38:44.498Z</time>
      </trkpt>
      <trkpt lat="47.640116" lon="7.914684">
        <ele>410.154836</ele>
        <time>2021-11-22T07:39:37.989Z</time>
      </trkpt>
      <trkpt lat="47.640371" lon="7.914816">
        <ele>412.236037</ele>
        <time>2021-11-22T07:39:48.442Z</time>
      </trkpt>
      <trkpt lat="47.640458" lon="7.914847">
        <ele>412.925536</ele>
        <time>2021-11-22T07:39:50.891Z</time>
      </trkpt>
      <trkpt lat="47.641318" lon="7.915094">
        <ele>417.458516</ele>
        <time>2021-11-22T07:40:18.937Z</time>
      </trkpt>
      <trkpt lat="47.642325" lon="7.915266">
        <ele>422.554849</ele>
        <time>2021-11-22T07:40:52.520Z</time>
      </trkpt>
      <trkpt lat="47.642731" lon="7.915448">
        <ele>426.079050</ele>
        <time>2021-11-22T07:41:10.397Z</time>
      </trkpt>
      <trkpt lat="47.642870" lon="7.915569">
        <ele>427.418080</ele>
        <time>2021-11-22T07:41:18.240Z</time>
      </trkpt>
      <trkpt lat="47.643279" lon="7.916085">
        <ele>431.878576</ele>
        <time>2021-11-22T07:41:46.405Z</time>
      </trkpt>
      <trkpt lat="47.644938" lon="7.919218">
        <ele>453.064867</ele>
        <time>2021-11-22T07:44:06.647Z</time>
      </trkpt>
      <trkpt lat="47.645182" lon="7.919653">
        <ele>453.424024</ele>
        <time>2021-11-22T07:44:11.366Z</time>
      </trkpt>
      <trkpt lat="47.645987" lon="7.921187">
        <ele>454.485607</ele>
        <time>2021-11-22T07:44:27.071Z</time>
      </trkpt>
      <trkpt lat="47.646634" lon="7.922408">
        <ele>454.013936</ele>
        <time>2021-11-22T07:44:39.644Z</time>
      </trkpt>
      <trkpt lat="47.647046" lon="7.922963">
        <ele>453.763186</ele>
        <time>2021-11-22T07:44:49.877Z</time>
      </trkpt>
      <trkpt lat="47.647351" lon="7.923183">
        <ele>453.574079</ele>
        <time>2021-11-22T07:44:56.491Z</time>
      </trkpt>
      <trkpt lat="47.647717" lon="7.923261">
        <ele>453.357206</ele>
        <time>2021-11-22T07:45:02.028Z</time>
      </trkpt>
      <trkpt lat="47.648027" lon="7.923200">
        <ele>453.173789</ele>
        <time>2021-11-22T07:45:05.792Z</time>
      </trkpt>
      <trkpt lat="47.648365" lon="7.923062">
        <ele>452.968178</ele>
        <time>2021-11-22T07:45:09.780Z</time>
      </trkpt>
      <trkpt lat="47.648728" lon="7.922896">
        <ele>452.745391</ele>
        <time>2021-11-22T07:45:14.278Z</time>
      </trkpt>
      <trkpt lat="47.649254" lon="7.922829">
        <ele>452.392498</ele>
        <time>2021-11-22T07:45:20.675Z</time>
      </trkpt>
      <trkpt lat="47.649720" lon="7.923045">
        <ele>452.054566</ele>
        <time>2021-11-22T07:45:26.782Z</time>
      </trkpt>
      <trkpt lat="47.650236" lon="7.923592">
        <ele>451.615656</ele>
        <time>2021-11-22T07:45:41.514Z</time>
      </trkpt>
      <trkpt lat="47.651037" lon="7.924774">
        <ele>446.702502</ele>
        <time>2021-11-22T07:45:52.642Z</time>
      </trkpt>
      <trkpt lat="47.651591" lon="7.925265">
        <ele>443.164289</ele>
        <time>2021-11-22T07:45:58.390Z</time>
      </trkpt>
      <trkpt lat="47.651739" lon="7.925340">
        <ele>442.306719</ele>
        <time>2021-11-22T07:45:59.729Z</time>
      </trkpt>
      <trkpt lat="47.651929" lon="7.925397">
        <ele>441.215884</ele>
        <time>2021-11-22T07:46:01.524Z</time>
      </trkpt>
      <trkpt lat="47.652047" lon="7.925420">
        <ele>440.507070</ele>
        <time>2021-11-22T07:46:02.535Z</time>
      </trkpt>
      <trkpt lat="47.652233" lon="7.925431">
        <ele>439.398416</ele>
        <time>2021-11-22T07:46:04.236Z</time>
      </trkpt>
      <trkpt lat="47.653024" lon="7.925288">
        <ele>434.652587</ele>
        <time>2021-11-22T07:46:11.341Z</time>
      </trkpt>
      <trkpt lat="47.653581" lon="7.925107">
        <ele>431.256671</ele>
        <time>2021-11-22T07:46:16.648Z</time>
      </trkpt>
      <trkpt lat="47.654279" lon="7.924881">
        <ele>431.670949</ele>
        <time>2021-11-22T07:46:27.632Z</time>
      </trkpt>
      <trkpt lat="47.654906" lon="7.924601">
        <ele>432.496497</ele>
        <time>2021-11-22T07:46:42.993Z</time>
      </trkpt>
      <trkpt lat="47.655151" lon="7.924422">
        <ele>432.840788</ele>
        <time>2021-11-22T07:46:51.574Z</time>
      </trkpt>
      <trkpt lat="47.655711" lon="7.923884">
        <ele>434.500331</ele>
        <time>2021-11-22T07:47:11.146Z</time>
      </trkpt>
      <trkpt lat="47.656362" lon="7.923194">
        <ele>436.986129</ele>
        <time>2021-11-22T07:47:38.070Z</time>
      </trkpt>
      <trkpt lat="47.656739" lon="7.922791">
        <ele>438.429838</ele>
        <time>2021-11-22T07:47:49.786Z</time>
      </trkpt>
      <trkpt lat="47.658112" lon="7.921407">
        <ele>444.434983</ele>
        <time>2021-11-22T07:48:28.867Z</time>
      </trkpt>
      <trkpt lat="47.658447" lon="7.921276">
        <ele>446.712864</ele>
        <time>2021-11-22T07:48:42.783Z</time>
      </trkpt>
      <trkpt lat="47.658590" lon="7.921221">
        <ele>448.539390</ele>
        <time>2021-11-22T07:48:51.877Z</time>
      </trkpt>
      <trkpt lat="47.658657" lon="7.921194">
        <ele>449.397802</ele>
        <time>2021-11-22T07:48:54.959Z</time>
      </trkpt>
      <trkpt lat="47.658858" lon="7.921199">
        <ele>451.883463</ele>
        <time>2021-11-22T07:49:10.680Z</time>
      </trkpt>
      <trkpt lat="47.659029" lon="7.921261">
        <ele>454.059969</ele>
        <time>2021-11-22T07:49:20.110Z</time>
      </trkpt>
      <trkpt lat="47.659217" lon="7.921381">
        <ele>456.590263</ele>
        <time>2021-11-22T07:49:37.426Z</time>
      </trkpt>
      <trkpt lat="47.659701" lon="7.921971">
        <ele>464.333510</ele>
        <time>2021-11-22T07:50:23.475Z</time>
      </trkpt>
      <trkpt lat="47.659910" lon="7.922282">
        <ele>467.805352</ele>
        <time>2021-11-22T07:50:42.352Z</time>
      </trkpt>
      <trkpt lat="47.659929" lon="7.922307">
        <ele>467.996549</ele>
        <time>2021-11-22T07:50:45.089Z</time>
      </trkpt>
      <trkpt lat="47.660292" lon="7.922894">
        <ele>472.038746</ele>
        <time>2021-11-22T07:51:21.904Z</time>
      </trkpt>
      <trkpt lat="47.660747" lon="7.923380">
        <ele>476.260032</ele>
        <time>2021-11-22T07:51:47.195Z</time>
      </trkpt>
      <trkpt lat="47.660834" lon="7.923426">
        <ele>476.955549</ele>
        <time>2021-11-22T07:51:52.382Z</time>
      </trkpt>
      <trkpt lat="47.660904" lon="7.923464">
        <ele>477.516862</ele>
        <time>2021-11-22T07:51:53.081Z</time>
      </trkpt>
      <trkpt lat="47.661134" lon="7.923485">
        <ele>479.252301</ele>
        <time>2021-11-22T07:52:02.196Z</time>
      </trkpt>
      <trkpt lat="47.662115" lon="7.923074">
        <ele>482.071723</ele>
        <time>2021-11-22T07:52:14.034Z</time>
      </trkpt>
      <trkpt lat="47.662612" lon="7.923016">
        <ele>482.718961</ele>
        <time>2021-11-22T07:52:22.037Z</time>
      </trkpt>
      <trkpt lat="47.663384" lon="7.923222">
        <ele>485.205374</ele>
        <time>2021-11-22T07:52:45.879Z</time>
      </trkpt>
      <trkpt lat="47.663955" lon="7.923493">
        <ele>489.323072</ele>
        <time>2021-11-22T07:53:10.475Z</time>
      </trkpt>
      <trkpt lat="47.664119" lon="7.923631">
        <ele>490.617909</ele>
        <time>2021-11-22T07:53:19.125Z</time>
      </trkpt>
      <trkpt lat="47.664217" lon="7.923800">
        <ele>491.649597</ele>
        <time>2021-11-22T07:53:26.347Z</time>
      </trkpt>
      <trkpt lat="47.664271" lon="7.923990">
        <ele>492.603618</ele>
        <time>2021-11-22T07:53:32.915Z</time>
      </trkpt>
      <trkpt lat="47.664341" lon="7.924749">
        <ele>496.246594</ele>
        <time>2021-11-22T07:53:58.487Z</time>
      </trkpt>
      <trkpt lat="47.664453" lon="7.925255">
        <ele>499.324182</ele>
        <time>2021-11-22T07:54:16.082Z</time>
      </trkpt>
      <trkpt lat="47.664876" lon="7.926151">
        <ele>505.646679</ele>
        <time>2021-11-22T07:54:54.353Z</time>
      </trkpt>
      <trkpt lat="47.665028" lon="7.926702">
        <ele>509.087128</ele>
        <time>2021-11-22T07:55:13.766Z</time>
      </trkpt>
      <trkpt lat="47.665032" lon="7.927025">
        <ele>510.953754</ele>
        <time>2021-11-22T07:55:23.414Z</time>
      </trkpt>
      <trkpt lat="47.665082" lon="7.927476">
        <ele>512.685973</ele>
        <time>2021-11-22T07:55:38.192Z</time>
      </trkpt>
      <trkpt lat="47.665198" lon="7.927921">
        <ele>514.404753</ele>
        <time>2021-11-22T07:55:52.240Z</time>
      </trkpt>
      <trkpt lat="47.665461" lon="7.928374">
        <ele>516.559085</ele>
        <time>2021-11-22T07:56:07.801Z</time>
      </trkpt>
      <trkpt lat="47.665953" lon="7.928730">
        <ele>519.486352</ele>
        <time>2021-11-22T07:56:26.062Z</time>
      </trkpt>
      <trkpt lat="47.666448" lon="7.928809">
        <ele>520.909973</ele>
        <time>2021-11-22T07:56:37.711Z</time>
      </trkpt>
      <trkpt lat="47.667200" lon="7.929115">
        <ele>521.244972</ele>
        <time>2021-11-22T07:56:49.070Z</time>
      </trkpt>
      <trkpt lat="47.668004" lon="7.929010">
        <ele>521.689568</ele>
        <time>2021-11-22T07:56:59.139Z</time>
      </trkpt>
      <trkpt lat="47.668532" lon="7.929025">
        <ele>523.204889</ele>
        <time>2021-11-22T07:57:08.391Z</time>
      </trkpt>
      <trkpt lat="47.668846" lon="7.929117">
        <ele>524.123252</ele>
        <time>2021-11-22T07:57:15.659Z</time>
      </trkpt>
      <trkpt lat="47.669031" lon="7.929241">
        <ele>524.705662</ele>
        <time>2021-11-22T07:57:21.026Z</time>
      </trkpt>
      <trkpt lat="47.669146" lon="7.929397">
        <ele>525.152598</ele>
        <time>2021-11-22T07:57:25.596Z</time>
      </trkpt>
      <trkpt lat="47.669590" lon="7.930439">
        <ele>529.287081</ele>
        <time>2021-11-22T07:57:56.455Z</time>
      </trkpt>
      <trkpt lat="47.669570" lon="7.930755">
        <ele>531.243825</ele>
        <time>2021-11-22T07:58:06.220Z</time>
      </trkpt>
      <trkpt lat="47.669441" lon="7.931090">
        <ele>533.622946</ele>
        <time>2021-11-22T07:58:19.451Z</time>
      </trkpt>
      <trkpt lat="47.669272" lon="7.931348">
        <ele>535.841915</ele>
        <time>2021-11-22T07:58:32.820Z</time>
      </trkpt>
      <trkpt lat="47.669127" lon="7.931800">
        <ele>538.928579</ele>
        <time>2021-11-22T07:58:52.048Z</time>
      </trkpt>
      <trkpt lat="47.669112" lon="7.931963">
        <ele>539.942832</ele>
        <time>2021-11-22T07:58:58.483Z</time>
      </trkpt>
      <trkpt lat="47.669211" lon="7.932726">
        <ele>544.810720</ele>
        <time>2021-11-22T07:59:29.761Z</time>
      </trkpt>
      <trkpt lat="47.669188" lon="7.932920">
        <ele>546.086527</ele>
        <time>2021-11-22T07:59:38.091Z</time>
      </trkpt>
      <trkpt lat="47.668442" lon="7.933935">
        <ele>555.817671</ele>
        <time>2021-11-22T08:00:38.567Z</time>
      </trkpt>
      <trkpt lat="47.668325" lon="7.934682">
        <ele>560.481058</ele>
        <time>2021-11-22T08:01:02.013Z</time>
      </trkpt>
      <trkpt lat="47.668387" lon="7.934959">
        <ele>560.347005</ele>
        <time>2021-11-22T08:01:08.826Z</time>
      </trkpt>
      <trkpt lat="47.668592" lon="7.935334">
        <ele>560.125187</ele>
        <time>2021-11-22T08:01:17.109Z</time>
      </trkpt>
      <trkpt lat="47.668947" lon="7.935809">
        <ele>559.799311</ele>
        <time>2021-11-22T08:01:23.369Z</time>
      </trkpt>
      <trkpt lat="47.669430" lon="7.936199">
        <ele>559.424380</ele>
        <time>2021-11-22T08:01:28.739Z</time>
      </trkpt>
      <trkpt lat="47.669799" lon="7.936367">
        <ele>558.491778</ele>
        <time>2021-11-22T08:01:32.245Z</time>
      </trkpt>
      <trkpt lat="47.670025" lon="7.936399">
        <ele>557.423089</ele>
        <time>2021-11-22T08:01:34.257Z</time>
      </trkpt>
      <trkpt lat="47.670414" lon="7.936157">
        <ele>555.437732</ele>
        <time>2021-11-22T08:01:38.004Z</time>
      </trkpt>
      <trkpt lat="47.671190" lon="7.935463">
        <ele>551.173535</ele>
        <time>2021-11-22T08:01:46.597Z</time>
      </trkpt>
      <trkpt lat="47.671327" lon="7.935416">
        <ele>551.121358</ele>
        <time>2021-11-22T08:01:48.479Z</time>
      </trkpt>
      <trkpt lat="47.672138" lon="7.935624">
        <ele>555.225590</ele>
        <time>2021-11-22T08:02:10.216Z</time>
      </trkpt>
      <trkpt lat="47.672322" lon="7.935662">
        <ele>556.152007</ele>
        <time>2021-11-22T08:02:18.134Z</time>
      </trkpt>
      <trkpt lat="47.672762" lon="7.935838">
        <ele>558.424435</ele>
        <time>2021-11-22T08:02:39.336Z</time>
      </trkpt>
      <trkpt lat="47.672959" lon="7.936014">
        <ele>559.570919</ele>
        <time>2021-11-22T08:02:51.884Z</time>
      </trkpt>
      <trkpt lat="47.673226" lon="7.936447">
        <ele>563.021120</ele>
        <time>2021-11-22T08:03:15.003Z</time>
      </trkpt>
      <trkpt lat="47.673283" lon="7.936676">
        <ele>564.527717</ele>
        <time>2021-11-22T08:03:24.281Z</time>
      </trkpt>
      <trkpt lat="47.673293" lon="7.937182">
        <ele>567.651541</ele>
        <time>2021-11-22T08:03:45.326Z</time>
      </trkpt>
      <trkpt lat="47.673607" lon="7.938439">
        <ele>575.924919</ele>
        <time>2021-11-22T08:04:29.433Z</time>
      </trkpt>
      <trkpt lat="47.673811" lon="7.939034">
        <ele>578.382898</ele>
        <time>2021-11-22T08:04:47.588Z</time>
      </trkpt>
      <trkpt lat="47.674075" lon="7.940165">
        <ele>582.525026</ele>
        <time>2021-11-22T08:05:14.778Z</time>
      </trkpt>
      <trkpt lat="47.674329" lon="7.940584">
        <ele>584.475912</ele>
        <time>2021-11-22T08:05:26.180Z</time>
      </trkpt>
      <trkpt lat="47.674806" lon="7.940908">
        <ele>586.853469</ele>
        <time>2021-11-22T08:05:42.051Z</time>
      </trkpt>
      <trkpt lat="47.674964" lon="7.941099">
        <ele>587.700766</ele>
        <time>2021-11-22T08:05:48.620Z</time>
      </trkpt>
      <trkpt lat="47.675080" lon="7.941709">
        <ele>589.475841</ele>
        <time>2021-11-22T08:06:02.504Z</time>
      </trkpt>
      <trkpt lat="47.675658" lon="7.942963">
        <ele>593.236246</ele>
        <time>2021-11-22T08:06:36.527Z</time>
      </trkpt>
      <trkpt lat="47.676169" lon="7.943767">
        <ele>594.279277</ele>
        <time>2021-11-22T08:06:53.206Z</time>
      </trkpt>
      <trkpt lat="47.676520" lon="7.944024">
        <ele>594.827581</ele>
        <time>2021-11-22T08:06:57.486Z</time>
      </trkpt>
      <trkpt lat="47.677134" lon="7.944147">
        <ele>596.391003</ele>
        <time>2021-11-22T08:07:06.222Z</time>
      </trkpt>
      <trkpt lat="47.677405" lon="7.944339">
        <ele>598.343783</ele>
        <time>2021-11-22T08:07:15.065Z</time>
      </trkpt>
      <trkpt lat="47.677580" lon="7.944493">
        <ele>599.666721</ele>
        <time>2021-11-22T08:07:22.357Z</time>
      </trkpt>
      <trkpt lat="47.677695" lon="7.944598">
        <ele>600.544678</ele>
        <time>2021-11-22T08:07:26.531Z</time>
      </trkpt>
      <trkpt lat="47.677787" lon="7.944717">
        <ele>601.338125</ele>
        <time>2021-11-22T08:07:30.305Z</time>
      </trkpt>
      <trkpt lat="47.677870" lon="7.944836">
        <ele>602.088417</ele>
        <time>2021-11-22T08:07:36.419Z</time>
      </trkpt>
      <trkpt lat="47.677979" lon="7.945039">
        <ele>603.225405</ele>
        <time>2021-11-22T08:07:42.741Z</time>
      </trkpt>
      <trkpt lat="47.678059" lon="7.945260">
        <ele>604.324152</ele>
        <time>2021-11-22T08:07:51.576Z</time>
      </trkpt>
      <trkpt lat="47.678272" lon="7.945810">
        <ele>607.102552</ele>
        <time>2021-11-22T08:08:15.285Z</time>
      </trkpt>
      <trkpt lat="47.678532" lon="7.946285">
        <ele>612.659381</ele>
        <time>2021-11-22T08:08:43.994Z</time>
      </trkpt>
      <trkpt lat="47.679039" lon="7.946924">
        <ele>621.804088</ele>
        <time>2021-11-22T08:09:40.359Z</time>
      </trkpt>
      <trkpt lat="47.679161" lon="7.947269">
        <ele>625.412401</ele>
        <time>2021-11-22T08:10:00.973Z</time>
      </trkpt>
      <trkpt lat="47.679193" lon="7.947707">
        <ele>629.491828</ele>
        <time>2021-11-22T08:10:20.817Z</time>
      </trkpt>
      <trkpt lat="47.679160" lon="7.948063">
        <ele>632.329520</ele>
        <time>2021-11-22T08:10:35.097Z</time>
      </trkpt>
      <trkpt lat="47.678867" lon="7.949157">
        <ele>637.167705</ele>
        <time>2021-11-22T08:11:10.573Z</time>
      </trkpt>
      <trkpt lat="47.678870" lon="7.949371">
        <ele>638.047286</ele>
        <time>2021-11-22T08:11:16.328Z</time>
      </trkpt>
      <trkpt lat="47.678933" lon="7.949621">
        <ele>639.144211</ele>
        <time>2021-11-22T08:11:21.170Z</time>
      </trkpt>
      <trkpt lat="47.679106" lon="7.949881">
        <ele>640.646341</ele>
        <time>2021-11-22T08:11:28.656Z</time>
      </trkpt>
      <trkpt lat="47.679335" lon="7.950032">
        <ele>642.175556</ele>
        <time>2021-11-22T08:11:33.979Z</time>
      </trkpt>
      <trkpt lat="47.679838" lon="7.949972">
        <ele>644.677376</ele>
        <time>2021-11-22T08:11:47.882Z</time>
      </trkpt>
      <trkpt lat="47.680004" lon="7.950039">
        <ele>645.467797</ele>
        <time>2021-11-22T08:11:50.227Z</time>
      </trkpt>
      <trkpt lat="47.680050" lon="7.950068">
        <ele>645.697416</ele>
        <time>2021-11-22T08:11:53.354Z</time>
      </trkpt>
      <trkpt lat="47.680401" lon="7.950233">
        <ele>647.389090</ele>
        <time>2021-11-22T08:12:04.296Z</time>
      </trkpt>
      <trkpt lat="47.680994" lon="7.949972">
        <ele>650.231004</ele>
        <time>2021-11-22T08:12:24.790Z</time>
      </trkpt>
      <trkpt lat="47.681269" lon="7.949958">
        <ele>651.833503</ele>
        <time>2021-11-22T08:12:37.677Z</time>
      </trkpt>
      <trkpt lat="47.681640" lon="7.950075">
        <ele>655.451863</ele>
        <time>2021-11-22T08:12:56.769Z</time>
      </trkpt>
      <trkpt lat="47.682090" lon="7.950374">
        <ele>660.154982</ele>
        <time>2021-11-22T08:13:24.491Z</time>
      </trkpt>
      <trkpt lat="47.682819" lon="7.951452">
        <ele>669.668701</ele>
        <time>2021-11-22T08:14:23.214Z</time>
      </trkpt>
      <trkpt lat="47.682901" lon="7.951614">
        <ele>670.730518</ele>
        <time>2021-11-22T08:14:30.527Z</time>
      </trkpt>
      <trkpt lat="47.683101" lon="7.952864">
        <ele>677.461499</ele>
        <time>2021-11-22T08:15:14.159Z</time>
      </trkpt>
      <trkpt lat="47.682987" lon="7.954268">
        <ele>682.275513</ele>
        <time>2021-11-22T08:15:49.141Z</time>
      </trkpt>
      <trkpt lat="47.683031" lon="7.955033">
        <ele>682.177471</ele>
        <time>2021-11-22T08:15:58.864Z</time>
      </trkpt>
      <trkpt lat="47.683202" lon="7.955269">
        <ele>682.133197</ele>
        <time>2021-11-22T08:16:01.536Z</time>
      </trkpt>
      <trkpt lat="47.683646" lon="7.955496">
        <ele>682.044132</ele>
        <time>2021-11-22T08:16:06.428Z</time>
      </trkpt>
      <trkpt lat="47.684063" lon="7.955823">
        <ele>681.023132</ele>
        <time>2021-11-22T08:16:10.992Z</time>
      </trkpt>
      <trkpt lat="47.684765" lon="7.956489">
        <ele>677.310241</ele>
        <time>2021-11-22T08:16:18.731Z</time>
      </trkpt>
      <trkpt lat="47.684972" lon="7.956698">
        <ele>676.194584</ele>
        <time>2021-11-22T08:16:21.050Z</time>
      </trkpt>
      <trkpt lat="47.685487" lon="7.957674">
        <ele>674.206881</ele>
        <time>2021-11-22T08:16:29.303Z</time>
      </trkpt>
      <trkpt lat="47.685650" lon="7.957856">
        <ele>674.344625</ele>
        <time>2021-11-22T08:16:31.521Z</time>
      </trkpt>
      <trkpt lat="47.685757" lon="7.957977">
        <ele>674.435464</ele>
        <time>2021-11-22T08:16:34.796Z</time>
      </trkpt>
      <trkpt lat="47.686267" lon="7.958674">
        <ele>674.903591</ele>
        <time>2021-11-22T08:16:49.656Z</time>
      </trkpt>
      <trkpt lat="47.686322" lon="7.959069">
        <ele>675.087015</ele>
        <time>2021-11-22T08:16:55.333Z</time>
      </trkpt>
      <trkpt lat="47.686313" lon="7.959134">
        <ele>675.117192</ele>
        <time>2021-11-22T08:16:56.849Z</time>
      </trkpt>
      <trkpt lat="47.686306" lon="7.959188">
        <ele>675.142199</ele>
        <time>2021-11-22T08:16:59.559Z</time>
      </trkpt>
      <trkpt lat="47.686184" lon="7.959503">
        <ele>676.103120</ele>
        <time>2021-11-22T08:17:05.906Z</time>
      </trkpt>
      <trkpt lat="47.686157" lon="7.959572">
        <ele>676.393337</ele>
        <time>2021-11-22T08:17:07.688Z</time>
      </trkpt>
      <trkpt lat="47.685564" lon="7.960446">
        <ele>680.905692</ele>
        <time>2021-11-22T08:17:41.068Z</time>
      </trkpt>
      <trkpt lat="47.685443" lon="7.960713">
        <ele>682.076110</ele>
        <time>2021-11-22T08:17:48.400Z</time>
      </trkpt>
      <trkpt lat="47.685390" lon="7.961394">
        <ele>684.568998</ele>
        <time>2021-11-22T08:18:07.297Z</time>
      </trkpt>
      <trkpt lat="47.685456" lon="7.961658">
        <ele>685.509590</ele>
        <time>2021-11-22T08:18:14.174Z</time>
      </trkpt>
      <trkpt lat="47.686057" lon="7.962663">
        <ele>689.800946</ele>
        <time>2021-11-22T08:18:46.696Z</time>
      </trkpt>
      <trkpt lat="47.686423" lon="7.962749">
        <ele>691.558128</ele>
        <time>2021-11-22T08:18:58.939Z</time>
      </trkpt>
      <trkpt lat="47.686871" lon="7.963038">
        <ele>693.711093</ele>
        <time>2021-11-22T08:19:13.033Z</time>
      </trkpt>
      <trkpt lat="47.687384" lon="7.963233">
        <ele>695.281439</ele>
        <time>2021-11-22T08:19:27.377Z</time>
      </trkpt>
      <trkpt lat="47.687588" lon="7.963379">
        <ele>695.952962</ele>
        <time>2021-11-22T08:19:33.161Z</time>
      </trkpt>
      <trkpt lat="47.687714" lon="7.963694">
        <ele>696.684443</ele>
        <time>2021-11-22T08:19:39.757Z</time>
      </trkpt>
      <trkpt lat="47.687755" lon="7.963954">
        <ele>697.217538</ele>
        <time>2021-11-22T08:19:44.437Z</time>
      </trkpt>
      <trkpt lat="47.687685" lon="7.964928">
        <ele>699.062116</ele>
        <time>2021-11-22T08:20:01.567Z</time>
      </trkpt>
      <trkpt lat="47.687735" lon="7.965229">
        <ele>699.509585</ele>
        <time>2021-11-22T08:20:06.763Z</time>
      </trkpt>
      <trkpt lat="47.687853" lon="7.965356">
        <ele>699.822007</ele>
        <time>2021-11-22T08:20:09.922Z</time>
      </trkpt>
      <trkpt lat="47.689020" lon="7.965804">
        <ele>702.406315</ele>
        <time>2021-11-22T08:20:36.879Z</time>
      </trkpt>
      <trkpt lat="47.689444" lon="7.966643">
        <ele>703.521419</ele>
        <time>2021-11-22T08:20:54.021Z</time>
      </trkpt>
      <trkpt lat="47.689579" lon="7.967340">
        <ele>704.244715</ele>
        <time>2021-11-22T08:21:05.268Z</time>
      </trkpt>
      <trkpt lat="47.689679" lon="7.967572">
        <ele>704.519448</ele>
        <time>2021-11-22T08:21:09.294Z</time>
      </trkpt>
      <trkpt lat="47.689846" lon="7.967646">
        <ele>704.777630</ele>
        <time>2021-11-22T08:21:12.687Z</time>
      </trkpt>
      <trkpt lat="47.690222" lon="7.967595">
        <ele>705.263999</ele>
        <time>2021-11-22T08:21:20.097Z</time>
      </trkpt>
      <trkpt lat="47.690757" lon="7.967781">
        <ele>704.703216</ele>
        <time>2021-11-22T08:21:26.438Z</time>
      </trkpt>
      <trkpt lat="47.691140" lon="7.968259">
        <ele>704.192687</ele>
        <time>2021-11-22T08:21:31.907Z</time>
      </trkpt>
      <trkpt lat="47.691339" lon="7.968413">
        <ele>703.963680</ele>
        <time>2021-11-22T08:21:35.415Z</time>
      </trkpt>
      <trkpt lat="47.691407" lon="7.968432">
        <ele>703.893061</ele>
        <time>2021-11-22T08:21:36.900Z</time>
      </trkpt>
      <trkpt lat="47.691511" lon="7.968453">
        <ele>703.785941</ele>
        <time>2021-11-22T08:21:37.860Z</time>
      </trkpt>
      <trkpt lat="47.691593" lon="7.968453">
        <ele>703.702251</ele>
        <time>2021-11-22T08:21:38.815Z</time>
      </trkpt>
      <trkpt lat="47.691708" lon="7.968429">
        <ele>703.583727</ele>
        <time>2021-11-22T08:21:41.221Z</time>
      </trkpt>
      <trkpt lat="47.692072" lon="7.968377">
        <ele>703.056836</ele>
        <time>2021-11-22T08:21:45.632Z</time>
      </trkpt>
      <trkpt lat="47.692229" lon="7.968446">
        <ele>702.785997</ele>
        <time>2021-11-22T08:21:47.299Z</time>
      </trkpt>
      <trkpt lat="47.692460" lon="7.968663">
        <ele>702.333888</ele>
        <time>2021-11-22T08:21:52.227Z</time>
      </trkpt>
      <trkpt lat="47.692486" lon="7.968697">
        <ele>702.276590</ele>
        <time>2021-11-22T08:21:52.515Z</time>
      </trkpt>
      <trkpt lat="47.692535" lon="7.968764">
        <ele>702.166427</ele>
        <time>2021-11-22T08:21:53.349Z</time>
      </trkpt>
      <trkpt lat="47.692583" lon="7.968865">
        <ele>702.028760</ele>
        <time>2021-11-22T08:21:54.301Z</time>
      </trkpt>
      <trkpt lat="47.692622" lon="7.968949">
        <ele>701.915137</ele>
        <time>2021-11-22T08:21:56.630Z</time>
      </trkpt>
      <trkpt lat="47.692708" lon="7.969591">
        <ele>701.186270</ele>
        <time>2021-11-22T08:22:01.145Z</time>
      </trkpt>
      <trkpt lat="47.692792" lon="7.969848">
        <ele>700.868156</ele>
        <time>2021-11-22T08:22:02.960Z</time>
      </trkpt>
      <trkpt lat="47.693367" lon="7.970554">
        <ele>699.989634</ele>
        <time>2021-11-22T08:22:11.890Z</time>
      </trkpt>
      <trkpt lat="47.693470" lon="7.970657">
        <ele>699.870288</ele>
        <time>2021-11-22T08:22:15.698Z</time>
      </trkpt>
      <trkpt lat="47.693559" lon="7.970717">
        <ele>699.776342</ele>
        <time>2021-11-22T08:22:16.582Z</time>
      </trkpt>
      <trkpt lat="47.693868" lon="7.970838">
        <ele>699.469175</ele>
        <time>2021-11-22T08:22:20.198Z</time>
      </trkpt>
      <trkpt lat="47.694129" lon="7.971181">
        <ele>699.134225</ele>
        <time>2021-11-22T08:22:25.009Z</time>
      </trkpt>
      <trkpt lat="47.694401" lon="7.971915">
        <ele>699.124553</ele>
        <time>2021-11-22T08:22:32.635Z</time>
      </trkpt>
      <trkpt lat="47.694470" lon="7.972512">
        <ele>700.023522</ele>
        <time>2021-11-22T08:22:39.864Z</time>
      </trkpt>
      <trkpt lat="47.694476" lon="7.972883">
        <ele>700.574278</ele>
        <time>2021-11-22T08:22:46.900Z</time>
      </trkpt>
      <trkpt lat="47.694490" lon="7.973151">
        <ele>700.973210</ele>
        <time>2021-11-22T08:22:52.911Z</time>
      </trkpt>
      <trkpt lat="47.694555" lon="7.973622">
        <ele>701.686756</ele>
        <time>2021-11-22T08:23:01.953Z</time>
      </trkpt>
      <trkpt lat="47.694780" lon="7.974343">
        <ele>702.709174</ele>
        <time>2021-11-22T08:23:16.533Z</time>
      </trkpt>
      <trkpt lat="47.694953" lon="7.974863">
        <ele>702.647916</ele>
        <time>2021-11-22T08:23:27.039Z</time>
      </trkpt>
      <trkpt lat="47.695374" lon="7.976086">
        <ele>702.502849</ele>
        <time>2021-11-22T08:23:40.266Z</time>
      </trkpt>
      <trkpt lat="47.695600" lon="7.976718">
        <ele>702.203749</ele>
        <time>2021-11-22T08:23:45.223Z</time>
      </trkpt>
      <trkpt lat="47.695701" lon="7.977005">
        <ele>701.414521</ele>
        <time>2021-11-22T08:23:47.315Z</time>
      </trkpt>
      <trkpt lat="47.695740" lon="7.977103">
        <ele>701.137081</ele>
        <time>2021-11-22T08:23:48.038Z</time>
      </trkpt>
      <trkpt lat="47.696003" lon="7.977710">
        <ele>699.377881</ele>
        <time>2021-11-22T08:23:52.618Z</time>
      </trkpt>
      <trkpt lat="47.696246" lon="7.978205">
        <ele>697.884848</ele>
        <time>2021-11-22T08:23:56.589Z</time>
      </trkpt>
      <trkpt lat="47.696406" lon="7.978512">
        <ele>696.938655</ele>
        <time>2021-11-22T08:23:59.213Z</time>
      </trkpt>
      <trkpt lat="47.696681" lon="7.979051">
        <ele>696.016199</ele>
        <time>2021-11-22T08:24:03.972Z</time>
      </trkpt>
      <trkpt lat="47.696734" lon="7.979156">
        <ele>696.062055</ele>
        <time>2021-11-22T08:24:05.027Z</time>
      </trkpt>
      <trkpt lat="47.696827" lon="7.979332">
        <ele>696.140233</ele>
        <time>2021-11-22T08:24:06.784Z</time>
      </trkpt>
      <trkpt lat="47.696892" lon="7.979453">
        <ele>696.194323</ele>
        <time>2021-11-22T08:24:07.992Z</time>
      </trkpt>
      <trkpt lat="47.696994" lon="7.979705">
        <ele>696.297062</ele>
        <time>2021-11-22T08:24:11.002Z</time>
      </trkpt>
      <trkpt lat="47.697080" lon="7.980195">
        <ele>696.473985</ele>
        <time>2021-11-22T08:24:16.929Z</time>
      </trkpt>
      <trkpt lat="47.697118" lon="7.981549">
        <ele>697.447328</ele>
        <time>2021-11-22T08:24:39.387Z</time>
      </trkpt>
      <trkpt lat="47.697288" lon="7.981923">
        <ele>698.494736</ele>
        <time>2021-11-22T08:24:48.142Z</time>
      </trkpt>
      <trkpt lat="47.697586" lon="7.982253">
        <ele>699.776339</ele>
        <time>2021-11-22T08:24:58.730Z</time>
      </trkpt>
      <trkpt lat="47.697753" lon="7.982407">
        <ele>700.454099</ele>
        <time>2021-11-22T08:25:05.083Z</time>
      </trkpt>
      <trkpt lat="47.698001" lon="7.982621">
        <ele>701.443033</ele>
        <time>2021-11-22T08:25:13.209Z</time>
      </trkpt>
      <trkpt lat="47.698483" lon="7.982945">
        <ele>703.257782</ele>
        <time>2021-11-22T08:25:28.859Z</time>
      </trkpt>
      <trkpt lat="47.699025" lon="7.983102">
        <ele>705.074182</ele>
        <time>2021-11-22T08:25:46.146Z</time>
      </trkpt>
      <trkpt lat="47.699198" lon="7.983233">
        <ele>705.712880</ele>
        <time>2021-11-22T08:25:51.994Z</time>
      </trkpt>
      <trkpt lat="47.699535" lon="7.983801">
        <ele>707.389177</ele>
        <time>2021-11-22T08:26:06.820Z</time>
      </trkpt>
      <trkpt lat="47.699968" lon="7.985078">
        <ele>709.323613</ele>
        <time>2021-11-22T08:26:29.950Z</time>
      </trkpt>
      <trkpt lat="47.700134" lon="7.985477">
        <ele>709.551502</ele>
        <time>2021-11-22T08:26:35.691Z</time>
      </trkpt>
      <trkpt lat="47.700247" lon="7.985623">
        <ele>709.659598</ele>
        <time>2021-11-22T08:26:38.089Z</time>
      </trkpt>
      <trkpt lat="47.700313" lon="7.985666">
        <ele>709.711620</ele>
        <time>2021-11-22T08:26:41.589Z</time>
      </trkpt>
      <trkpt lat="47.700432" lon="7.985695">
        <ele>709.798669</ele>
        <time>2021-11-22T08:26:42.746Z</time>
      </trkpt>
      <trkpt lat="47.700738" lon="7.985747">
        <ele>710.020997</ele>
        <time>2021-11-22T08:26:48.218Z</time>
      </trkpt>
      <trkpt lat="47.701262" lon="7.985781">
        <ele>710.211504</ele>
        <time>2021-11-22T08:26:54.379Z</time>
      </trkpt>
      <trkpt lat="47.702050" lon="7.985859">
        <ele>709.915081</ele>
        <time>2021-11-22T08:27:03.631Z</time>
      </trkpt>
      <trkpt lat="47.702992" lon="7.985977">
        <ele>709.931609</ele>
        <time>2021-11-22T08:27:18.082Z</time>
      </trkpt>
      <trkpt lat="47.703366" lon="7.986205">
        <ele>711.171303</ele>
        <time>2021-11-22T08:27:27.568Z</time>
      </trkpt>
      <trkpt lat="47.704067" lon="7.986802">
        <ele>713.649052</ele>
        <time>2021-11-22T08:27:50.097Z</time>
      </trkpt>
      <trkpt lat="47.704661" lon="7.987555">
        <ele>716.711716</ele>
        <time>2021-11-22T08:28:16.468Z</time>
      </trkpt>
      <trkpt lat="47.706601" lon="7.988998">
        <ele>726.967244</ele>
        <time>2021-11-22T08:29:36.266Z</time>
      </trkpt>
      <trkpt lat="47.706723" lon="7.989155">
        <ele>727.532634</ele>
        <time>2021-11-22T08:29:42.397Z</time>
      </trkpt>
      <trkpt lat="47.706776" lon="7.989222">
        <ele>727.776403</ele>
        <time>2021-11-22T08:29:43.229Z</time>
      </trkpt>
      <trkpt lat="47.707833" lon="7.990220">
        <ele>731.361299</ele>
        <time>2021-11-22T08:30:12.221Z</time>
      </trkpt>
      <trkpt lat="47.708222" lon="7.990415">
        <ele>731.878682</ele>
        <time>2021-11-22T08:30:18.935Z</time>
      </trkpt>
      <trkpt lat="47.708728" lon="7.990544">
        <ele>732.525692</ele>
        <time>2021-11-22T08:30:27.970Z</time>
      </trkpt>
      <trkpt lat="47.709175" lon="7.990808">
        <ele>733.131887</ele>
        <time>2021-11-22T08:30:37.650Z</time>
      </trkpt>
      <trkpt lat="47.709314" lon="7.990890">
        <ele>733.456053</ele>
        <time>2021-11-22T08:30:40.812Z</time>
      </trkpt>
      <trkpt lat="47.709584" lon="7.991049">
        <ele>734.169197</ele>
        <time>2021-11-22T08:30:47.238Z</time>
      </trkpt>
      <trkpt lat="47.710528" lon="7.991942">
        <ele>736.916959</ele>
        <time>2021-11-22T08:31:16.512Z</time>
      </trkpt>
      <trkpt lat="47.710755" lon="7.992262">
        <ele>737.667563</ele>
        <time>2021-11-22T08:31:24.157Z</time>
      </trkpt>
      <trkpt lat="47.710801" lon="7.992349">
        <ele>737.815017</ele>
        <time>2021-11-22T08:31:26.817Z</time>
      </trkpt>
      <trkpt lat="47.710861" lon="7.992490">
        <ele>738.037345</ele>
        <time>2021-11-22T08:31:29.516Z</time>
      </trkpt>
      <trkpt lat="47.710934" lon="7.992755">
        <ele>738.418948</ele>
        <time>2021-11-22T08:31:34.029Z</time>
      </trkpt>
      <trkpt lat="47.710944" lon="7.992808">
        <ele>738.492303</ele>
        <time>2021-11-22T08:31:35.460Z</time>
      </trkpt>
      <trkpt lat="47.710962" lon="7.992901">
        <ele>738.621266</ele>
        <time>2021-11-22T08:31:36.958Z</time>
      </trkpt>
      <trkpt lat="47.711028" lon="7.993312">
        <ele>739.184369</ele>
        <time>2021-11-22T08:31:43.889Z</time>
      </trkpt>
      <trkpt lat="47.711077" lon="7.993608">
        <ele>739.590597</ele>
        <time>2021-11-22T08:31:48.542Z</time>
      </trkpt>
      <trkpt lat="47.711212" lon="7.993839">
        <ele>739.998342</ele>
        <time>2021-11-22T08:31:53.532Z</time>
      </trkpt>
      <trkpt lat="47.711727" lon="7.994154">
        <ele>741.101331</ele>
        <time>2021-11-22T08:32:05.089Z</time>
      </trkpt>
      <trkpt lat="47.712509" lon="7.994419">
        <ele>741.208675</ele>
        <time>2021-11-22T08:32:17.972Z</time>
      </trkpt>
      <trkpt lat="47.713580" lon="7.994392">
        <ele>741.351202</ele>
        <time>2021-11-22T08:32:32.187Z</time>
      </trkpt>
      <trkpt lat="47.713835" lon="7.994448">
        <ele>741.753143</ele>
        <time>2021-11-22T08:32:35.646Z</time>
      </trkpt>
      <trkpt lat="47.714059" lon="7.994526">
        <ele>742.111887</ele>
        <time>2021-11-22T08:32:39.625Z</time>
      </trkpt>
      <trkpt lat="47.714184" lon="7.994575">
        <ele>742.313467</ele>
        <time>2021-11-22T08:32:41.538Z</time>
      </trkpt>
      <trkpt lat="47.714230" lon="7.994593">
        <ele>742.387639</ele>
        <time>2021-11-22T08:32:42.849Z</time>
      </trkpt>
      <trkpt lat="47.714712" lon="7.994772">
        <ele>743.162334</ele>
        <time>2021-11-22T08:32:52.942Z</time>
      </trkpt>
      <trkpt lat="47.715478" lon="7.994718">
        <ele>744.935664</ele>
        <time>2021-11-22T08:33:12.929Z</time>
      </trkpt>
      <trkpt lat="47.718373" lon="7.994825">
        <ele>759.243755</ele>
        <time>2021-11-22T08:34:57.475Z</time>
      </trkpt>
      <trkpt lat="47.718545" lon="7.994862">
        <ele>760.126995</ele>
        <time>2021-11-22T08:35:04.433Z</time>
      </trkpt>
      <trkpt lat="47.718661" lon="7.994934">
        <ele>760.765863</ele>
        <time>2021-11-22T08:35:08.015Z</time>
      </trkpt>
      <trkpt lat="47.718933" lon="7.995295">
        <ele>762.442464</ele>
        <time>2021-11-22T08:35:19.919Z</time>
      </trkpt>
      <trkpt lat="47.719223" lon="7.995988">
        <ele>764.537019</ele>
        <time>2021-11-22T08:35:36.929Z</time>
      </trkpt>
      <trkpt lat="47.719400" lon="7.996350">
        <ele>765.685526</ele>
        <time>2021-11-22T08:35:44.890Z</time>
      </trkpt>
      <trkpt lat="47.719563" lon="7.996600">
        <ele>766.579011</ele>
        <time>2021-11-22T08:35:51.810Z</time>
      </trkpt>
      <trkpt lat="47.719752" lon="7.996820">
        <ele>767.494777</ele>
        <time>2021-11-22T08:35:57.248Z</time>
      </trkpt>
      <trkpt lat="47.720924" lon="7.997643">
        <ele>773.210138</ele>
        <time>2021-11-22T08:36:39.572Z</time>
      </trkpt>
      <trkpt lat="47.721248" lon="7.997929">
        <ele>774.949712</ele>
        <time>2021-11-22T08:36:52.002Z</time>
      </trkpt>
      <trkpt lat="47.721354" lon="7.998008">
        <ele>775.497114</ele>
        <time>2021-11-22T08:36:57.278Z</time>
      </trkpt>
      <trkpt lat="47.721665" lon="7.998158">
        <ele>777.006508</ele>
        <time>2021-11-22T08:37:08.234Z</time>
      </trkpt>
      <trkpt lat="47.721896" lon="7.998175">
        <ele>778.119897</ele>
        <time>2021-11-22T08:37:15.743Z</time>
      </trkpt>
      <trkpt lat="47.722219" lon="7.998104">
        <ele>779.696182</ele>
        <time>2021-11-22T08:37:27.673Z</time>
      </trkpt>
      <trkpt lat="47.722784" lon="7.997847">
        <ele>782.548643</ele>
        <time>2021-11-22T08:37:50.054Z</time>
      </trkpt>
      <trkpt lat="47.723766" lon="7.997856">
        <ele>786.597929</ele>
        <time>2021-11-22T08:38:20.547Z</time>
      </trkpt>
      <trkpt lat="47.724589" lon="7.998422">
        <ele>788.997805</ele>
        <time>2021-11-22T08:38:44.071Z</time>
      </trkpt>
      <trkpt lat="47.725344" lon="7.998611">
        <ele>790.652813</ele>
        <time>2021-11-22T08:39:00.458Z</time>
      </trkpt>
      <trkpt lat="47.726725" lon="7.998484">
        <ele>791.623224</ele>
        <time>2021-11-22T08:39:25.364Z</time>
      </trkpt>
      <trkpt lat="47.727832" lon="7.998209">
        <ele>790.937697</ele>
        <time>2021-11-22T08:39:40.122Z</time>
      </trkpt>
      <trkpt lat="47.728201" lon="7.998120">
        <ele>790.586956</ele>
        <time>2021-11-22T08:39:44.439Z</time>
      </trkpt>
      <trkpt lat="47.728374" lon="7.998091">
        <ele>790.423611</ele>
        <time>2021-11-22T08:39:46.442Z</time>
      </trkpt>
      <trkpt lat="47.728644" lon="7.998072">
        <ele>790.170000</ele>
        <time>2021-11-22T08:39:49.593Z</time>
      </trkpt>
      <trkpt lat="47.728856" lon="7.998111">
        <ele>789.940541</ele>
        <time>2021-11-22T08:39:51.986Z</time>
      </trkpt>
      <trkpt lat="47.729059" lon="7.998193">
        <ele>789.696690</ele>
        <time>2021-11-22T08:39:54.512Z</time>
      </trkpt>
      <trkpt lat="47.729203" lon="7.998295">
        <ele>789.511786</ele>
        <time>2021-11-22T08:39:56.277Z</time>
      </trkpt>
      <trkpt lat="47.729488" lon="7.998562">
        <ele>789.121288</ele>
        <time>2021-11-22T08:40:00.163Z</time>
      </trkpt>
      <trkpt lat="47.729608" lon="7.998731">
        <ele>788.929678</ele>
        <time>2021-11-22T08:40:02.190Z</time>
      </trkpt>
      <trkpt lat="47.729849" lon="7.999142">
        <ele>788.504538</ele>
        <time>2021-11-22T08:40:06.258Z</time>
      </trkpt>
      <trkpt lat="47.729983" lon="7.999370">
        <ele>788.268461</ele>
        <time>2021-11-22T08:40:09.029Z</time>
      </trkpt>
      <trkpt lat="47.730386" lon="8.000056">
        <ele>788.349327</ele>
        <time>2021-11-22T08:40:17.256Z</time>
      </trkpt>
      <trkpt lat="47.730849" lon="8.000394">
        <ele>788.803494</ele>
        <time>2021-11-22T08:40:27.695Z</time>
      </trkpt>
      <trkpt lat="47.730925" lon="8.000429">
        <ele>788.873550</ele>
        <time>2021-11-22T08:40:28.626Z</time>
      </trkpt>
      <trkpt lat="47.731132" lon="8.000479">
        <ele>789.058203</ele>
        <time>2021-11-22T08:40:33.651Z</time>
      </trkpt>
      <trkpt lat="47.731884" lon="8.000650">
        <ele>789.891665</ele>
        <time>2021-11-22T08:40:49.644Z</time>
      </trkpt>
      <trkpt lat="47.732055" lon="8.000730">
        <ele>790.238751</ele>
        <time>2021-11-22T08:40:53.034Z</time>
      </trkpt>
      <trkpt lat="47.732106" lon="8.000754">
        <ele>790.342323</ele>
        <time>2021-11-22T08:40:54.461Z</time>
      </trkpt>
      <trkpt lat="47.732623" lon="8.001130">
        <ele>791.456653</ele>
        <time>2021-11-22T08:41:05.475Z</time>
      </trkpt>
      <trkpt lat="47.733131" lon="8.001448">
        <ele>792.523839</ele>
        <time>2021-11-22T08:41:16.486Z</time>
      </trkpt>
      <trkpt lat="47.733286" lon="8.001546">
        <ele>792.849949</ele>
        <time>2021-11-22T08:41:20.822Z</time>
      </trkpt>
      <trkpt lat="47.733605" lon="8.001793">
        <ele>794.838817</ele>
        <time>2021-11-22T08:41:31.726Z</time>
      </trkpt>
      <trkpt lat="47.734181" lon="8.002196">
        <ele>799.444224</ele>
        <time>2021-11-22T08:41:56.298Z</time>
      </trkpt>
      <trkpt lat="47.734323" lon="8.002299">
        <ele>800.587256</ele>
        <time>2021-11-22T08:42:03.693Z</time>
      </trkpt>
      <trkpt lat="47.734477" lon="8.002401">
        <ele>801.806918</ele>
        <time>2021-11-22T08:42:12.322Z</time>
      </trkpt>
      <trkpt lat="47.735041" lon="8.002748">
        <ele>806.289788</ele>
        <time>2021-11-22T08:42:44.996Z</time>
      </trkpt>
      <trkpt lat="47.735276" lon="8.002846">
        <ele>808.923868</ele>
        <time>2021-11-22T08:42:58.681Z</time>
      </trkpt>
      <trkpt lat="47.735526" lon="8.002921">
        <ele>811.676339</ele>
        <time>2021-11-22T08:43:14.749Z</time>
      </trkpt>
      <trkpt lat="47.735990" lon="8.002937">
        <ele>816.685357</ele>
        <time>2021-11-22T08:43:44.422Z</time>
      </trkpt>
      <trkpt lat="47.736963" lon="8.002917">
        <ele>826.419022</ele>
        <time>2021-11-22T08:44:41.984Z</time>
      </trkpt>
      <trkpt lat="47.737870" lon="8.003070">
        <ele>831.789913</ele>
        <time>2021-11-22T08:45:19.603Z</time>
      </trkpt>
      <trkpt lat="47.738237" lon="8.003237">
        <ele>834.048140</ele>
        <time>2021-11-22T08:45:33.148Z</time>
      </trkpt>
      <trkpt lat="47.738829" lon="8.003625">
        <ele>834.955885</ele>
        <time>2021-11-22T08:45:51.201Z</time>
      </trkpt>
      <trkpt lat="47.739837" lon="8.004386">
        <ele>830.736818</ele>
        <time>2021-11-22T08:46:02.058Z</time>
      </trkpt>
      <trkpt lat="47.739948" lon="8.004462">
        <ele>830.280748</ele>
        <time>2021-11-22T08:46:03.157Z</time>
      </trkpt>
      <trkpt lat="47.740056" lon="8.004536">
        <ele>829.836948</ele>
        <time>2021-11-22T08:46:04.187Z</time>
      </trkpt>
      <trkpt lat="47.740219" lon="8.004627">
        <ele>828.952528</ele>
        <time>2021-11-22T08:46:05.705Z</time>
      </trkpt>
      <trkpt lat="47.740398" lon="8.004688">
        <ele>827.379161</ele>
        <time>2021-11-22T08:46:07.302Z</time>
      </trkpt>
      <trkpt lat="47.740469" lon="8.004713">
        <ele>826.754037</ele>
        <time>2021-11-22T08:46:07.913Z</time>
      </trkpt>
      <trkpt lat="47.740649" lon="8.004745">
        <ele>825.200878</ele>
        <time>2021-11-22T08:46:09.522Z</time>
      </trkpt>
      <trkpt lat="47.740808" lon="8.004734">
        <ele>823.837148</ele>
        <time>2021-11-22T08:46:10.873Z</time>
      </trkpt>
      <trkpt lat="47.740920" lon="8.004698">
        <ele>822.855410</ele>
        <time>2021-11-22T08:46:11.890Z</time>
      </trkpt>
      <trkpt lat="47.741122" lon="8.004580">
        <ele>820.995995</ele>
        <time>2021-11-22T08:46:13.747Z</time>
      </trkpt>
      <trkpt lat="47.741216" lon="8.004498">
        <ele>820.062286</ele>
        <time>2021-11-22T08:46:14.690Z</time>
      </trkpt>
      <trkpt lat="47.741274" lon="8.004446">
        <ele>819.482032</ele>
        <time>2021-11-22T08:46:15.286Z</time>
      </trkpt>
      <trkpt lat="47.741517" lon="8.004169">
        <ele>816.858766</ele>
        <time>2021-11-22T08:46:17.917Z</time>
      </trkpt>
      <trkpt lat="47.741793" lon="8.003830">
        <ele>813.929304</ele>
        <time>2021-11-22T08:46:21.087Z</time>
      </trkpt>
      <trkpt lat="47.742098" lon="8.003489">
        <ele>813.363431</ele>
        <time>2021-11-22T08:46:24.659Z</time>
      </trkpt>
      <trkpt lat="47.742241" lon="8.003367">
        <ele>813.118949</ele>
        <time>2021-11-22T08:46:26.270Z</time>
      </trkpt>
      <trkpt lat="47.742457" lon="8.003213">
        <ele>812.763721</ele>
        <time>2021-11-22T08:46:29.000Z</time>
      </trkpt>
      <trkpt lat="47.743177" lon="8.002803">
        <ele>811.620397</ele>
        <time>2021-11-22T08:46:43.708Z</time>
      </trkpt>
      <trkpt lat="47.743515" lon="8.002643">
        <ele>811.634034</ele>
        <time>2021-11-22T08:46:51.854Z</time>
      </trkpt>
      <trkpt lat="47.743688" lon="8.002560">
        <ele>812.105065</ele>
        <time>2021-11-22T08:46:55.965Z</time>
      </trkpt>
      <trkpt lat="47.743696" lon="8.002557">
        <ele>812.126444</ele>
        <time>2021-11-22T08:46:56.147Z</time>
      </trkpt>
      <trkpt lat="47.743853" lon="8.002512">
        <ele>812.540751</ele>
        <time>2021-11-22T08:47:00.048Z</time>
      </trkpt>
      <trkpt lat="47.744066" lon="8.002477">
        <ele>813.096038</ele>
        <time>2021-11-22T08:47:04.932Z</time>
      </trkpt>
      <trkpt lat="47.744287" lon="8.002474">
        <ele>813.668719</ele>
        <time>2021-11-22T08:47:10.166Z</time>
      </trkpt>
      <trkpt lat="47.744550" lon="8.002516">
        <ele>814.354124</ele>
        <time>2021-11-22T08:47:16.973Z</time>
      </trkpt>
      <trkpt lat="47.744825" lon="8.002614">
        <ele>815.086881</ele>
        <time>2021-11-22T08:47:24.746Z</time>
      </trkpt>
      <trkpt lat="47.744828" lon="8.002615">
        <ele>815.094847</ele>
        <time>2021-11-22T08:47:24.816Z</time>
      </trkpt>
      <trkpt lat="47.745359" lon="8.002832">
        <ele>816.678166</ele>
        <time>2021-11-22T08:47:40.975Z</time>
      </trkpt>
      <trkpt lat="47.745569" lon="8.002835">
        <ele>817.371561</ele>
        <time>2021-11-22T08:47:47.654Z</time>
      </trkpt>
      <trkpt lat="47.745779" lon="8.002812">
        <ele>818.066801</ele>
        <time>2021-11-22T08:47:52.850Z</time>
      </trkpt>
      <trkpt lat="47.745906" lon="8.002759">
        <ele>818.502317</ele>
        <time>2021-11-22T08:47:57.029Z</time>
      </trkpt>
      <trkpt lat="47.746099" lon="8.002624">
        <ele>819.206517</ele>
        <time>2021-11-22T08:48:01.962Z</time>
      </trkpt>
      <trkpt lat="47.746317" lon="8.002381">
        <ele>820.106033</ele>
        <time>2021-11-22T08:48:09.556Z</time>
      </trkpt>
      <trkpt lat="47.746481" lon="8.002198">
        <ele>820.782989</ele>
        <time>2021-11-22T08:48:15.737Z</time>
      </trkpt>
      <trkpt lat="47.746640" lon="8.002089">
        <ele>821.361053</ele>
        <time>2021-11-22T08:48:20.016Z</time>
      </trkpt>
      <trkpt lat="47.746845" lon="8.002014">
        <ele>822.074242</ele>
        <time>2021-11-22T08:48:26.738Z</time>
      </trkpt>
      <trkpt lat="47.746964" lon="8.001988">
        <ele>822.509553</ele>
        <time>2021-11-22T08:48:29.631Z</time>
      </trkpt>
      <trkpt lat="47.747326" lon="8.001917">
        <ele>823.831057</ele>
        <time>2021-11-22T08:48:40.456Z</time>
      </trkpt>
      <trkpt lat="47.747874" lon="8.001809">
        <ele>825.831731</ele>
        <time>2021-11-22T08:48:57.809Z</time>
      </trkpt>
      <trkpt lat="47.748927" lon="8.001618">
        <ele>829.995210</ele>
        <time>2021-11-22T08:49:27.260Z</time>
      </trkpt>
      <trkpt lat="47.748974" lon="8.001621">
        <ele>830.208891</ele>
        <time>2021-11-22T08:49:29.323Z</time>
      </trkpt>
      <trkpt lat="47.749251" lon="8.001639">
        <ele>831.468285</ele>
        <time>2021-11-22T08:49:37.824Z</time>
      </trkpt>
      <trkpt lat="47.749443" lon="8.001673">
        <ele>832.346551</ele>
        <time>2021-11-22T08:49:44.572Z</time>
      </trkpt>
      <trkpt lat="47.749615" lon="8.001732">
        <ele>833.148323</ele>
        <time>2021-11-22T08:49:49.253Z</time>
      </trkpt>
      <trkpt lat="47.749755" lon="8.001806">
        <ele>833.823199</ele>
        <time>2021-11-22T08:49:54.435Z</time>
      </trkpt>
      <trkpt lat="47.750063" lon="8.002117">
        <ele>835.514158</ele>
        <time>2021-11-22T08:50:06.419Z</time>
      </trkpt>
      <trkpt lat="47.750224" lon="8.002143">
        <ele>836.249753</ele>
        <time>2021-11-22T08:50:11.322Z</time>
      </trkpt>
      <trkpt lat="47.750280" lon="8.002094">
        <ele>836.544872</ele>
        <time>2021-11-22T08:50:13.012Z</time>
      </trkpt>
      <trkpt lat="47.750332" lon="8.001985">
        <ele>837.390237</ele>
        <time>2021-11-22T08:50:16.399Z</time>
      </trkpt>
      <trkpt lat="47.750332" lon="8.001848">
        <ele>838.285713</ele>
        <time>2021-11-22T08:50:20.184Z</time>
      </trkpt>
      <trkpt lat="47.750199" lon="8.001652">
        <ele>840.105875</ele>
        <time>2021-11-22T08:50:31.680Z</time>
      </trkpt>
      <trkpt lat="47.749769" lon="8.001417">
        <ele>844.559370</ele>
        <time>2021-11-22T08:50:53.944Z</time>
      </trkpt>
      <trkpt lat="47.749332" lon="8.001044">
        <ele>849.457533</ele>
        <time>2021-11-22T08:51:24.129Z</time>
      </trkpt>
      <trkpt lat="47.749014" lon="8.000969">
        <ele>852.587576</ele>
        <time>2021-11-22T08:51:45.973Z</time>
      </trkpt>
      <trkpt lat="47.748954" lon="8.000942">
        <ele>853.196977</ele>
        <time>2021-11-22T08:51:48.816Z</time>
      </trkpt>
      <trkpt lat="47.748893" lon="8.000914">
        <ele>853.817585</ele>
        <time>2021-11-22T08:51:55.560Z</time>
      </trkpt>
      <trkpt lat="47.748727" lon="8.000684">
        <ele>855.899378</ele>
        <time>2021-11-22T08:52:06.748Z</time>
      </trkpt>
      <trkpt lat="47.748687" lon="8.000515">
        <ele>856.996858</ele>
        <time>2021-11-22T08:52:15.202Z</time>
      </trkpt>
      <trkpt lat="47.748729" lon="8.000112">
        <ele>859.494924</ele>
        <time>2021-11-22T08:52:28.310Z</time>
      </trkpt>
      <trkpt lat="47.748807" lon="7.999886">
        <ele>861.051015</ele>
        <time>2021-11-22T08:52:38.426Z</time>
      </trkpt>
      <trkpt lat="47.748880" lon="7.999794">
        <ele>861.922719</ele>
        <time>2021-11-22T08:52:43.071Z</time>
      </trkpt>
      <trkpt lat="47.748880" lon="7.999794">
        <ele>861.922719</ele>
        <time>2021-11-22T08:52:43.623Z</time>
      </trkpt>
      <trkpt lat="47.748933" lon="7.999726">
        <ele>862.560399</ele>
        <time>2021-11-22T08:52:44.571Z</time>
      </trkpt>
      <trkpt lat="47.749124" lon="7.999576">
        <ele>864.528136</ele>
        <time>2021-11-22T08:52:57.239Z</time>
      </trkpt>
      <trkpt lat="47.749254" lon="7.999474">
        <ele>865.867163</ele>
        <time>2021-11-22T08:53:04.127Z</time>
      </trkpt>
      <trkpt lat="47.749894" lon="7.999122">
        <ele>870.926555</ele>
        <time>2021-11-22T08:53:35.371Z</time>
      </trkpt>
      <trkpt lat="47.750080" lon="7.999092">
        <ele>871.430427</ele>
        <time>2021-11-22T08:53:39.655Z</time>
      </trkpt>
      <trkpt lat="47.750267" lon="7.999114">
        <ele>871.935628</ele>
        <time>2021-11-22T08:53:46.393Z</time>
      </trkpt>
      <trkpt lat="47.750418" lon="7.999133">
        <ele>872.343754</ele>
        <time>2021-11-22T08:53:49.319Z</time>
      </trkpt>
      <trkpt lat="47.750851" lon="7.999142">
        <ele>873.510024</ele>
        <time>2021-11-22T08:53:56.987Z</time>
      </trkpt>
      <trkpt lat="47.751079" lon="7.999044">
        <ele>874.149201</ele>
        <time>2021-11-22T08:54:00.577Z</time>
      </trkpt>
      <trkpt lat="47.751161" lon="7.998973">
        <ele>874.404741</ele>
        <time>2021-11-22T08:54:03.207Z</time>
      </trkpt>
      <trkpt lat="47.751276" lon="7.998814">
        <ele>874.827611</ele>
        <time>2021-11-22T08:54:05.354Z</time>
      </trkpt>
      <trkpt lat="47.751519" lon="7.998472">
        <ele>875.879399</ele>
        <time>2021-11-22T08:54:12.064Z</time>
      </trkpt>
      <trkpt lat="47.752200" lon="7.997984">
        <ele>878.607288</ele>
        <time>2021-11-22T08:54:32.024Z</time>
      </trkpt>
      <trkpt lat="47.752289" lon="7.997814">
        <ele>879.130051</ele>
        <time>2021-11-22T08:54:37.460Z</time>
      </trkpt>
      <trkpt lat="47.752293" lon="7.997477">
        <ele>879.947831</ele>
        <time>2021-11-22T08:54:43.716Z</time>
      </trkpt>
      <trkpt lat="47.751969" lon="7.996628">
        <ele>882.894962</ele>
        <time>2021-11-22T08:55:05.669Z</time>
      </trkpt>
      <trkpt lat="47.751957" lon="7.996468">
        <ele>883.703587</ele>
        <time>2021-11-22T08:55:10.476Z</time>
      </trkpt>
      <trkpt lat="47.751972" lon="7.996277">
        <ele>884.669456</ele>
        <time>2021-11-22T08:55:17.199Z</time>
      </trkpt>
      <trkpt lat="47.752329" lon="7.995572">
        <ele>889.102479</ele>
        <time>2021-11-22T08:55:43.322Z</time>
      </trkpt>
      <trkpt lat="47.752505" lon="7.994746">
        <ele>893.454599</ele>
        <time>2021-11-22T08:56:11.540Z</time>
      </trkpt>
      <trkpt lat="47.752547" lon="7.994645">
        <ele>894.051083</ele>
        <time>2021-11-22T08:56:16.426Z</time>
      </trkpt>
      <trkpt lat="47.752669" lon="7.994350">
        <ele>895.725057</ele>
        <time>2021-11-22T08:56:28.511Z</time>
      </trkpt>
      <trkpt lat="47.753236" lon="7.993389">
        <ele>901.418110</ele>
        <time>2021-11-22T08:57:06.924Z</time>
      </trkpt>
      <trkpt lat="47.753667" lon="7.993208">
        <ele>904.384114</ele>
        <time>2021-11-22T08:57:26.425Z</time>
      </trkpt>
      <trkpt lat="47.754654" lon="7.993012">
        <ele>909.249285</ele>
        <time>2021-11-22T08:57:55.263Z</time>
      </trkpt>
      <trkpt lat="47.754768" lon="7.992909">
        <ele>909.736251</ele>
        <time>2021-11-22T08:58:00.331Z</time>
      </trkpt>
      <trkpt lat="47.754831" lon="7.992805">
        <ele>910.079854</ele>
        <time>2021-11-22T08:58:02.383Z</time>
      </trkpt>
      <trkpt lat="47.754873" lon="7.992573">
        <ele>910.669579</ele>
        <time>2021-11-22T08:58:07.302Z</time>
      </trkpt>
      <trkpt lat="47.754826" lon="7.992281">
        <ele>911.406545</ele>
        <time>2021-11-22T08:58:13.401Z</time>
      </trkpt>
      <trkpt lat="47.754610" lon="7.991548">
        <ele>913.370926</ele>
        <time>2021-11-22T08:58:28.345Z</time>
      </trkpt>
      <trkpt lat="47.754524" lon="7.991311">
        <ele>914.113626</ele>
        <time>2021-11-22T08:58:33.071Z</time>
      </trkpt>
      <trkpt lat="47.754450" lon="7.991105">
        <ele>914.824309</ele>
        <time>2021-11-22T08:58:37.000Z</time>
      </trkpt>
      <trkpt lat="47.754425" lon="7.991017">
        <ele>915.115001</ele>
        <time>2021-11-22T08:58:39.074Z</time>
      </trkpt>
      <trkpt lat="47.754339" lon="7.990840">
        <ele>915.779505</ele>
        <time>2021-11-22T08:58:42.699Z</time>
      </trkpt>
      <trkpt lat="47.754285" lon="7.990767">
        <ele>916.109763</ele>
        <time>2021-11-22T08:58:45.289Z</time>
      </trkpt>
      <trkpt lat="47.754250" lon="7.990720">
        <ele>916.323177</ele>
        <time>2021-11-22T08:58:47.034Z</time>
      </trkpt>
      <trkpt lat="47.754200" lon="7.990666">
        <ele>916.602834</ele>
        <time>2021-11-22T08:58:48.762Z</time>
      </trkpt>
      <trkpt lat="47.754058" lon="7.990576">
        <ele>917.301427</ele>
        <time>2021-11-22T08:58:52.428Z</time>
      </trkpt>
      <trkpt lat="47.754049" lon="7.990574">
        <ele>917.342613</ele>
        <time>2021-11-22T08:58:52.966Z</time>
      </trkpt>
      <trkpt lat="47.753880" lon="7.990554">
        <ele>918.109908</ele>
        <time>2021-11-22T08:58:59.151Z</time>
      </trkpt>
      <trkpt lat="47.753810" lon="7.990578">
        <ele>918.435030</ele>
        <time>2021-11-22T08:59:01.066Z</time>
      </trkpt>
      <trkpt lat="47.753496" lon="7.990685">
        <ele>919.892984</ele>
        <time>2021-11-22T08:59:12.780Z</time>
      </trkpt>
      <trkpt lat="47.753192" lon="7.990736">
        <ele>921.277584</ele>
        <time>2021-11-22T08:59:25.217Z</time>
      </trkpt>
      <trkpt lat="47.753049" lon="7.990575">
        <ele>922.194879</ele>
        <time>2021-11-22T08:59:31.171Z</time>
      </trkpt>
      <trkpt lat="47.753013" lon="7.990466">
        <ele>922.715905</ele>
        <time>2021-11-22T08:59:34.900Z</time>
      </trkpt>
      <trkpt lat="47.753013" lon="7.990466">
        <ele>922.715905</ele>
        <time>2021-11-22T08:59:34.997Z</time>
      </trkpt>
      <trkpt lat="47.753013" lon="7.990466">
        <ele>922.715905</ele>
        <time>2021-11-22T08:59:35.006Z</time>
      </trkpt>
      <trkpt lat="47.752998" lon="7.990319">
        <ele>923.353808</ele>
        <time>2021-11-22T08:59:39.792Z</time>
      </trkpt>
      <trkpt lat="47.753076" lon="7.990033">
        <ele>924.677957</ele>
        <time>2021-11-22T08:59:46.618Z</time>
      </trkpt>
      <trkpt lat="47.753175" lon="7.989913">
        <ele>925.492923</ele>
        <time>2021-11-22T08:59:51.945Z</time>
      </trkpt>
      <trkpt lat="47.753692" lon="7.989592">
        <ele>929.067977</ele>
        <time>2021-11-22T09:00:14.494Z</time>
      </trkpt>
      <trkpt lat="47.754104" lon="7.989339">
        <ele>931.912336</ele>
        <time>2021-11-22T09:00:34.477Z</time>
      </trkpt>
      <trkpt lat="47.754235" lon="7.989229">
        <ele>932.872301</ele>
        <time>2021-11-22T09:00:41.272Z</time>
      </trkpt>
      <trkpt lat="47.754285" lon="7.989188">
        <ele>933.236642</ele>
        <time>2021-11-22T09:00:43.171Z</time>
      </trkpt>
      <trkpt lat="47.754514" lon="7.988746">
        <ele>935.184492</ele>
        <time>2021-11-22T09:00:57.446Z</time>
      </trkpt>
      <trkpt lat="47.754580" lon="7.988526">
        <ele>936.019376</ele>
        <time>2021-11-22T09:01:04.393Z</time>
      </trkpt>
      <trkpt lat="47.754483" lon="7.988465">
        <ele>936.562236</ele>
        <time>2021-11-22T09:01:07.834Z</time>
      </trkpt>
      <trkpt lat="47.754325" lon="7.988461">
        <ele>937.376799</ele>
        <time>2021-11-22T09:01:13.464Z</time>
      </trkpt>
      <trkpt lat="47.754000" lon="7.988628">
        <ele>939.149235</ele>
        <time>2021-11-22T09:01:25.147Z</time>
      </trkpt>
      <trkpt lat="47.753825" lon="7.988649">
        <ele>940.054241</ele>
        <time>2021-11-22T09:01:31.096Z</time>
      </trkpt>
      <trkpt lat="47.753247" lon="7.988631">
        <ele>942.951634</ele>
        <time>2021-11-22T09:01:49.574Z</time>
      </trkpt>
      <trkpt lat="47.753101" lon="7.988626">
        <ele>943.567117</ele>
        <time>2021-11-22T09:01:54.584Z</time>
      </trkpt>
      <trkpt lat="47.752167" lon="7.988595">
        <ele>947.504460</ele>
        <time>2021-11-22T09:02:20.096Z</time>
      </trkpt>
      <trkpt lat="47.752006" lon="7.988666">
        <ele>948.212195</ele>
        <time>2021-11-22T09:02:26.009Z</time>
      </trkpt>
      <trkpt lat="47.751898" lon="7.988705">
        <ele>948.680587</ele>
        <time>2021-11-22T09:02:30.357Z</time>
      </trkpt>
      <trkpt lat="47.751555" lon="7.988754">
        <ele>950.132821</ele>
        <time>2021-11-22T09:02:43.489Z</time>
      </trkpt>
      <trkpt lat="47.751038" lon="7.988687">
        <ele>952.780864</ele>
        <time>2021-11-22T09:03:01.635Z</time>
      </trkpt>
      <trkpt lat="47.750983" lon="7.988666">
        <ele>953.071275</ele>
        <time>2021-11-22T09:03:04.016Z</time>
      </trkpt>
      <trkpt lat="47.750594" lon="7.988519">
        <ele>955.123976</ele>
        <time>2021-11-22T09:03:18.295Z</time>
      </trkpt>
      <trkpt lat="47.750552" lon="7.988505">
        <ele>955.344108</ele>
        <time>2021-11-22T09:03:20.939Z</time>
      </trkpt>
      <trkpt lat="47.750246" lon="7.988403">
        <ele>956.947928</ele>
        <time>2021-11-22T09:03:30.309Z</time>
      </trkpt>
      <trkpt lat="47.750149" lon="7.988406">
        <ele>957.444129</ele>
        <time>2021-11-22T09:03:34.674Z</time>
      </trkpt>
      <trkpt lat="47.750116" lon="7.988408">
        <ele>957.613043</ele>
        <time>2021-11-22T09:03:35.627Z</time>
      </trkpt>
      <trkpt lat="47.749991" lon="7.988421">
        <ele>958.253900</ele>
        <time>2021-11-22T09:03:38.906Z</time>
      </trkpt>
      <trkpt lat="47.749432" lon="7.988671">
        <ele>960.855727</ele>
        <time>2021-11-22T09:03:59.999Z</time>
      </trkpt>
      <trkpt lat="47.748895" lon="7.988662">
        <ele>963.041642</ele>
        <time>2021-11-22T09:04:16.254Z</time>
      </trkpt>
      <trkpt lat="47.748441" lon="7.988534">
        <ele>964.922490</ele>
        <time>2021-11-22T09:04:28.132Z</time>
      </trkpt>
      <trkpt lat="47.748113" lon="7.988347">
        <ele>966.352299</ele>
        <time>2021-11-22T09:04:37.406Z</time>
      </trkpt>
      <trkpt lat="47.747735" lon="7.987971">
        <ele>969.299412</ele>
        <time>2021-11-22T09:04:53.701Z</time>
      </trkpt>
      <trkpt lat="47.747159" lon="7.987056">
        <ele>975.200598</ele>
        <time>2021-11-22T09:05:32.328Z</time>
      </trkpt>
      <trkpt lat="47.746997" lon="7.986668">
        <ele>977.350875</ele>
        <time>2021-11-22T09:05:47.318Z</time>
      </trkpt>
      <trkpt lat="47.746938" lon="7.986403">
        <ele>978.665146</ele>
        <time>2021-11-22T09:05:54.609Z</time>
      </trkpt>
      <trkpt lat="47.746934" lon="7.986323">
        <ele>979.042837</ele>
        <time>2021-11-22T09:05:56.503Z</time>
      </trkpt>
      <trkpt lat="47.746937" lon="7.986277">
        <ele>979.260427</ele>
        <time>2021-11-22T09:05:58.565Z</time>
      </trkpt>
      <trkpt lat="47.746948" lon="7.986178">
        <ele>979.852875</ele>
        <time>2021-11-22T09:06:03.636Z</time>
      </trkpt>
      <trkpt lat="47.746992" lon="7.986023">
        <ele>980.852828</ele>
        <time>2021-11-22T09:06:07.944Z</time>
      </trkpt>
      <trkpt lat="47.747284" lon="7.985657">
        <ele>984.228213</ele>
        <time>2021-11-22T09:06:26.363Z</time>
      </trkpt>
      <trkpt lat="47.747382" lon="7.985413">
        <ele>985.917394</ele>
        <time>2021-11-22T09:06:36.343Z</time>
      </trkpt>
      <trkpt lat="47.747352" lon="7.984237">
        <ele>992.911772</ele>
        <time>2021-11-22T09:07:19.060Z</time>
      </trkpt>
      <trkpt lat="47.747277" lon="7.983755">
        <ele>995.854448</ele>
        <time>2021-11-22T09:07:34.266Z</time>
      </trkpt>
      <trkpt lat="47.747260" lon="7.983648">
        <ele>996.510098</ele>
        <time>2021-11-22T09:07:37.637Z</time>
      </trkpt>
      <trkpt lat="47.747224" lon="7.983417">
        <ele>997.924152</ele>
        <time>2021-11-22T09:07:45.551Z</time>
      </trkpt>
      <trkpt lat="47.747217" lon="7.983147">
        <ele>999.535459</ele>
        <time>2021-11-22T09:07:53.992Z</time>
      </trkpt>
      <trkpt lat="47.747211" lon="7.982890">
        <ele>1001.068969</ele>
        <time>2021-11-22T09:08:02.805Z</time>
      </trkpt>
      <trkpt lat="47.747216" lon="7.982385">
        <ele>1004.080798</ele>
        <time>2021-11-22T09:08:19.838Z</time>
      </trkpt>
      <trkpt lat="47.747232" lon="7.982138">
        <ele>1005.560570</ele>
        <time>2021-11-22T09:08:28.068Z</time>
      </trkpt>
      <trkpt lat="47.747291" lon="7.981915">
        <ele>1006.989642</ele>
        <time>2021-11-22T09:08:36.393Z</time>
      </trkpt>
      <trkpt lat="47.747325" lon="7.981803">
        <ele>1007.722452</ele>
        <time>2021-11-22T09:08:40.630Z</time>
      </trkpt>
      <trkpt lat="47.747432" lon="7.981467">
        <ele>1009.939495</ele>
        <time>2021-11-22T09:08:53.075Z</time>
      </trkpt>
      <trkpt lat="47.747799" lon="7.980326">
        <ele>1017.259818</ele>
        <time>2021-11-22T09:09:38.720Z</time>
      </trkpt>
      <trkpt lat="47.747875" lon="7.980159">
        <ele>1018.420300</ele>
        <time>2021-11-22T09:09:46.695Z</time>
      </trkpt>
      <trkpt lat="47.748345" lon="7.979625">
        <ele>1023.482391</ele>
        <time>2021-11-22T09:10:14.472Z</time>
      </trkpt>
      <trkpt lat="47.748453" lon="7.979479">
        <ele>1024.731519</ele>
        <time>2021-11-22T09:10:21.679Z</time>
      </trkpt>
      <trkpt lat="47.748587" lon="7.979275">
        <ele>1026.372704</ele>
        <time>2021-11-22T09:10:28.974Z</time>
      </trkpt>
      <trkpt lat="47.748877" lon="7.978677">
        <ele>1029.591926</ele>
        <time>2021-11-22T09:10:50.047Z</time>
      </trkpt>
      <trkpt lat="47.749041" lon="7.978298">
        <ele>1031.537378</ele>
        <time>2021-11-22T09:11:01.646Z</time>
      </trkpt>
      <trkpt lat="47.749455" lon="7.977417">
        <ele>1036.176882</ele>
        <time>2021-11-22T09:11:31.497Z</time>
      </trkpt>
      <trkpt lat="47.749465" lon="7.977367">
        <ele>1036.402050</ele>
        <time>2021-11-22T09:11:33.208Z</time>
      </trkpt>
      <trkpt lat="47.749507" lon="7.977149">
        <ele>1037.380902</ele>
        <time>2021-11-22T09:11:38.574Z</time>
      </trkpt>
      <trkpt lat="47.749546" lon="7.976950">
        <ele>1038.237762</ele>
        <time>2021-11-22T09:11:43.768Z</time>
      </trkpt>
      <trkpt lat="47.749297" lon="7.975231">
        <ele>1044.457160</ele>
        <time>2021-11-22T09:12:27.244Z</time>
      </trkpt>
      <trkpt lat="47.749211" lon="7.975053">
        <ele>1045.232408</ele>
        <time>2021-11-22T09:12:32.418Z</time>
      </trkpt>
      <trkpt lat="47.749085" lon="7.974941">
        <ele>1046.004562</ele>
        <time>2021-11-22T09:12:37.866Z</time>
      </trkpt>
      <trkpt lat="47.748893" lon="7.974836">
        <ele>1047.080654</ele>
        <time>2021-11-22T09:12:45.316Z</time>
      </trkpt>
      <trkpt lat="47.748666" lon="7.974822">
        <ele>1047.968285</ele>
        <time>2021-11-22T09:12:53.400Z</time>
      </trkpt>
      <trkpt lat="47.746709" lon="7.975608">
        <ele>1054.173866</ele>
        <time>2021-11-22T09:13:45.168Z</time>
      </trkpt>
      <trkpt lat="47.746117" lon="7.975695">
        <ele>1055.894826</ele>
        <time>2021-11-22T09:13:59.991Z</time>
      </trkpt>
      <trkpt lat="47.745396" lon="7.975614">
        <ele>1057.986577</ele>
        <time>2021-11-22T09:14:21.714Z</time>
      </trkpt>
      <trkpt lat="47.744955" lon="7.975395">
        <ele>1058.582426</ele>
        <time>2021-11-22T09:14:32.062Z</time>
      </trkpt>
      <trkpt lat="47.744906" lon="7.975358">
        <ele>1058.625419</ele>
        <time>2021-11-22T09:14:32.589Z</time>
      </trkpt>
      <trkpt lat="47.744839" lon="7.975295">
        <ele>1058.687434</ele>
        <time>2021-11-22T09:14:39.134Z</time>
      </trkpt>
      <trkpt lat="47.744823" lon="7.975234">
        <ele>1058.721879</ele>
        <time>2021-11-22T09:14:39.698Z</time>
      </trkpt>
      <trkpt lat="47.744802" lon="7.975118">
        <ele>1058.785076</ele>
        <time>2021-11-22T09:14:40.701Z</time>
      </trkpt>
      <trkpt lat="47.744801" lon="7.974944">
        <ele>1058.876615</ele>
        <time>2021-11-22T09:14:41.902Z</time>
      </trkpt>
      <trkpt lat="47.744806" lon="7.974857">
        <ele>1058.922550</ele>
        <time>2021-11-22T09:14:43.471Z</time>
      </trkpt>
      <trkpt lat="47.744941" lon="7.974159">
        <ele>1059.304631</ele>
        <time>2021-11-22T09:14:55.553Z</time>
      </trkpt>
      <trkpt lat="47.744934" lon="7.973502">
        <ele>1059.650300</ele>
        <time>2021-11-22T09:15:01.258Z</time>
      </trkpt>
      <trkpt lat="47.744998" lon="7.973224">
        <ele>1058.775179</ele>
        <time>2021-11-22T09:15:04.451Z</time>
      </trkpt>
      <trkpt lat="47.745542" lon="7.971993">
        <ele>1050.971560</ele>
        <time>2021-11-22T09:15:13.255Z</time>
      </trkpt>
      <trkpt lat="47.746279" lon="7.970615">
        <ele>1039.929840</ele>
        <time>2021-11-22T09:15:23.317Z</time>
      </trkpt>
      <trkpt lat="47.746346" lon="7.970385">
        <ele>1038.018007</ele>
        <time>2021-11-22T09:15:24.733Z</time>
      </trkpt>
      <trkpt lat="47.746350" lon="7.970207">
        <ele>1036.659586</ele>
        <time>2021-11-22T09:15:25.741Z</time>
      </trkpt>
      <trkpt lat="47.745876" lon="7.968249">
        <ele>1021.932904</ele>
        <time>2021-11-22T09:15:37.650Z</time>
      </trkpt>
      <trkpt lat="47.745829" lon="7.967517">
        <ele>1017.801122</ele>
        <time>2021-11-22T09:15:41.982Z</time>
      </trkpt>
      <trkpt lat="47.745919" lon="7.967250">
        <ele>1016.122913</ele>
        <time>2021-11-22T09:15:43.756Z</time>
      </trkpt>
      <trkpt lat="47.746368" lon="7.966775">
        <ele>1011.518472</ele>
        <time>2021-11-22T09:15:48.721Z</time>
      </trkpt>
      <trkpt lat="47.746509" lon="7.965976">
        <ele>1007.683872</ele>
        <time>2021-11-22T09:15:53.794Z</time>
      </trkpt>
      <trkpt lat="47.746444" lon="7.965643">
        <ele>1006.221945</ele>
        <time>2021-11-22T09:15:55.937Z</time>
      </trkpt>
      <trkpt lat="47.746128" lon="7.965105">
        <ele>1003.210150</ele>
        <time>2021-11-22T09:16:00.390Z</time>
      </trkpt>
      <trkpt lat="47.745637" lon="7.965010">
        <ele>1000.105563</ele>
        <time>2021-11-22T09:16:04.834Z</time>
      </trkpt>
      <trkpt lat="47.745487" lon="7.964848">
        <ele>998.943194</ele>
        <time>2021-11-22T09:16:06.528Z</time>
      </trkpt>
      <trkpt lat="47.745303" lon="7.964403">
        <ele>996.920455</ele>
        <time>2021-11-22T09:16:09.727Z</time>
      </trkpt>
      <trkpt lat="47.745211" lon="7.964002">
        <ele>995.287682</ele>
        <time>2021-11-22T09:16:12.315Z</time>
      </trkpt>
      <trkpt lat="47.745144" lon="7.963712">
        <ele>994.106007</ele>
        <time>2021-11-22T09:16:14.264Z</time>
      </trkpt>
      <trkpt lat="47.745110" lon="7.963609">
        <ele>993.663836</ele>
        <time>2021-11-22T09:16:14.925Z</time>
      </trkpt>
      <trkpt lat="47.744922" lon="7.963026">
        <ele>991.172180</ele>
        <time>2021-11-22T09:16:18.949Z</time>
      </trkpt>
      <trkpt lat="47.744725" lon="7.962533">
        <ele>988.962191</ele>
        <time>2021-11-22T09:16:22.578Z</time>
      </trkpt>
      <trkpt lat="47.744692" lon="7.962203">
        <ele>987.876344</ele>
        <time>2021-11-22T09:16:24.733Z</time>
      </trkpt>
      <trkpt lat="47.745101" lon="7.960897">
        <ele>983.634291</ele>
        <time>2021-11-22T09:16:34.354Z</time>
      </trkpt>
      <trkpt lat="47.745197" lon="7.960040">
        <ele>981.076129</ele>
        <time>2021-11-22T09:16:39.981Z</time>
      </trkpt>
      <trkpt lat="47.745191" lon="7.959684">
        <ele>979.758291</ele>
        <time>2021-11-22T09:16:42.174Z</time>
      </trkpt>
      <trkpt lat="47.745065" lon="7.959106">
        <ele>977.192210</ele>
        <time>2021-11-22T09:16:45.977Z</time>
      </trkpt>
      <trkpt lat="47.745087" lon="7.958920">
        <ele>976.394634</ele>
        <time>2021-11-22T09:16:47.106Z</time>
      </trkpt>
      <trkpt lat="47.745137" lon="7.958794">
        <ele>975.776760</ele>
        <time>2021-11-22T09:16:47.994Z</time>
      </trkpt>
      <trkpt lat="47.745226" lon="7.958572">
        <ele>974.685227</ele>
        <time>2021-11-22T09:16:49.712Z</time>
      </trkpt>
      <trkpt lat="47.745225" lon="7.958488">
        <ele>974.330423</ele>
        <time>2021-11-22T09:16:50.207Z</time>
      </trkpt>
      <trkpt lat="47.745200" lon="7.958403">
        <ele>973.938615</ele>
        <time>2021-11-22T09:16:50.732Z</time>
      </trkpt>
      <trkpt lat="47.745053" lon="7.958307">
        <ele>972.930281</ele>
        <time>2021-11-22T09:16:52.286Z</time>
      </trkpt>
      <trkpt lat="47.744947" lon="7.958375">
        <ele>972.205248</ele>
        <time>2021-11-22T09:16:53.357Z</time>
      </trkpt>
      <trkpt lat="47.744898" lon="7.958494">
        <ele>971.615945</ele>
        <time>2021-11-22T09:16:54.149Z</time>
      </trkpt>
      <trkpt lat="47.744873" lon="7.958614">
        <ele>971.085393</ele>
        <time>2021-11-22T09:16:54.962Z</time>
      </trkpt>
      <trkpt lat="47.744921" lon="7.959659">
        <ele>966.937193</ele>
        <time>2021-11-22T09:17:01.250Z</time>
      </trkpt>
      <trkpt lat="47.744886" lon="7.960082">
        <ele>965.321579</ele>
        <time>2021-11-22T09:17:03.783Z</time>
      </trkpt>
      <trkpt lat="47.744653" lon="7.960920">
        <ele>961.884003</ele>
        <time>2021-11-22T09:17:09.519Z</time>
      </trkpt>
      <trkpt lat="47.744216" lon="7.961586">
        <ele>958.826629</ele>
        <time>2021-11-22T09:17:15.588Z</time>
      </trkpt>
      <trkpt lat="47.744010" lon="7.962331">
        <ele>957.452257</ele>
        <time>2021-11-22T09:17:21.218Z</time>
      </trkpt>
      <trkpt lat="47.743869" lon="7.963084">
        <ele>956.118620</ele>
        <time>2021-11-22T09:17:27.500Z</time>
      </trkpt>
      <trkpt lat="47.743928" lon="7.963986">
        <ele>954.517090</ele>
        <time>2021-11-22T09:17:34.196Z</time>
      </trkpt>
      <trkpt lat="47.744052" lon="7.964673">
        <ele>952.413124</ele>
        <time>2021-11-22T09:17:38.878Z</time>
      </trkpt>
      <trkpt lat="47.743912" lon="7.964827">
        <ele>951.647155</ele>
        <time>2021-11-22T09:17:40.622Z</time>
      </trkpt>
      <trkpt lat="47.743889" lon="7.964826">
        <ele>951.545943</ele>
        <time>2021-11-22T09:17:42.502Z</time>
      </trkpt>
      <trkpt lat="47.743857" lon="7.964825">
        <ele>951.405156</ele>
        <time>2021-11-22T09:17:42.783Z</time>
      </trkpt>
      <trkpt lat="47.743786" lon="7.964774">
        <ele>951.058328</ele>
        <time>2021-11-22T09:17:43.489Z</time>
      </trkpt>
      <trkpt lat="47.743756" lon="7.964691">
        <ele>950.779609</ele>
        <time>2021-11-22T09:17:44.090Z</time>
      </trkpt>
      <trkpt lat="47.743721" lon="7.964396">
        <ele>949.893564</ele>
        <time>2021-11-22T09:17:46.280Z</time>
      </trkpt>
      <trkpt lat="47.743733" lon="7.964071">
        <ele>948.930813</ele>
        <time>2021-11-22T09:17:48.277Z</time>
      </trkpt>
      <trkpt lat="47.743693" lon="7.963798">
        <ele>948.104371</ele>
        <time>2021-11-22T09:17:50.213Z</time>
      </trkpt>
      <trkpt lat="47.743679" lon="7.963756">
        <ele>947.965716</ele>
        <time>2021-11-22T09:17:50.468Z</time>
      </trkpt>
      <trkpt lat="47.743627" lon="7.963590">
        <ele>947.424049</ele>
        <time>2021-11-22T09:17:51.610Z</time>
      </trkpt>
      <trkpt lat="47.743515" lon="7.963215">
        <ele>945.627874</ele>
        <time>2021-11-22T09:17:54.150Z</time>
      </trkpt>
      <trkpt lat="47.743501" lon="7.962935">
        <ele>943.877333</ele>
        <time>2021-11-22T09:17:55.850Z</time>
      </trkpt>
      <trkpt lat="47.743646" lon="7.961613">
        <ele>935.526124</ele>
        <time>2021-11-22T09:18:03.645Z</time>
      </trkpt>
      <trkpt lat="47.743898" lon="7.960827">
        <ele>930.097169</ele>
        <time>2021-11-22T09:18:08.667Z</time>
      </trkpt>
      <trkpt lat="47.743939" lon="7.960232">
        <ele>924.459548</ele>
        <time>2021-11-22T09:18:12.071Z</time>
      </trkpt>
      <trkpt lat="47.743938" lon="7.959994">
        <ele>922.208515</ele>
        <time>2021-11-22T09:18:13.416Z</time>
      </trkpt>
      <trkpt lat="47.743938" lon="7.959654">
        <ele>918.992815</ele>
        <time>2021-11-22T09:18:15.331Z</time>
      </trkpt>
      <trkpt lat="47.743883" lon="7.959026">
        <ele>913.003063</ele>
        <time>2021-11-22T09:18:18.876Z</time>
      </trkpt>
      <trkpt lat="47.743672" lon="7.958074">
        <ele>903.510081</ele>
        <time>2021-11-22T09:18:24.443Z</time>
      </trkpt>
      <trkpt lat="47.743450" lon="7.957158">
        <ele>894.207982</ele>
        <time>2021-11-22T09:18:29.855Z</time>
      </trkpt>
      <trkpt lat="47.743189" lon="7.956383">
        <ele>885.927290</ele>
        <time>2021-11-22T09:18:34.717Z</time>
      </trkpt>
      <trkpt lat="47.743019" lon="7.955697">
        <ele>879.123837</ele>
        <time>2021-11-22T09:18:38.854Z</time>
      </trkpt>
      <trkpt lat="47.742852" lon="7.955278">
        <ele>877.644307</ele>
        <time>2021-11-22T09:18:41.660Z</time>
      </trkpt>
      <trkpt lat="47.742475" lon="7.954804">
        <ele>875.414219</ele>
        <time>2021-11-22T09:18:46.124Z</time>
      </trkpt>
      <trkpt lat="47.742403" lon="7.954606">
        <ele>874.730458</ele>
        <time>2021-11-22T09:18:47.615Z</time>
      </trkpt>
      <trkpt lat="47.742396" lon="7.954193">
        <ele>873.475508</ele>
        <time>2021-11-22T09:18:50.820Z</time>
      </trkpt>
      <trkpt lat="47.742508" lon="7.954005">
        <ele>872.712558</ele>
        <time>2021-11-22T09:18:52.907Z</time>
      </trkpt>
      <trkpt lat="47.742679" lon="7.953976">
        <ele>871.935111</ele>
        <time>2021-11-22T09:18:56.080Z</time>
      </trkpt>
      <trkpt lat="47.743151" lon="7.954078">
        <ele>871.598548</ele>
        <time>2021-11-22T09:19:06.153Z</time>
      </trkpt>
      <trkpt lat="47.743353" lon="7.954062">
        <ele>871.959772</ele>
        <time>2021-11-22T09:19:11.641Z</time>
      </trkpt>
      <trkpt lat="47.743469" lon="7.954062">
        <ele>872.166914</ele>
        <time>2021-11-22T09:19:14.647Z</time>
      </trkpt>
      <trkpt lat="47.743918" lon="7.954305">
        <ele>873.020142</ele>
        <time>2021-11-22T09:19:27.288Z</time>
      </trkpt>
      <trkpt lat="47.744379" lon="7.954717">
        <ele>873.980572</ele>
        <time>2021-11-22T09:19:40.964Z</time>
      </trkpt>
      <trkpt lat="47.745038" lon="7.955164">
        <ele>872.765606</ele>
        <time>2021-11-22T09:19:51.191Z</time>
      </trkpt>
      <trkpt lat="47.745621" lon="7.955355">
        <ele>871.099262</ele>
        <time>2021-11-22T09:19:57.154Z</time>
      </trkpt>
      <trkpt lat="47.746514" lon="7.955424">
        <ele>867.832444</ele>
        <time>2021-11-22T09:20:05.582Z</time>
      </trkpt>
      <trkpt lat="47.746744" lon="7.955504">
        <ele>866.416302</ele>
        <time>2021-11-22T09:20:07.777Z</time>
      </trkpt>
      <trkpt lat="47.746893" lon="7.955465">
        <ele>865.509266</ele>
        <time>2021-11-22T09:20:09.173Z</time>
      </trkpt>
      <trkpt lat="47.746928" lon="7.955323">
        <ele>864.899572</ele>
        <time>2021-11-22T09:20:10.117Z</time>
      </trkpt>
      <trkpt lat="47.746871" lon="7.955198">
        <ele>864.290711</ele>
        <time>2021-11-22T09:20:11.061Z</time>
      </trkpt>
      <trkpt lat="47.746757" lon="7.955118">
        <ele>863.534972</ele>
        <time>2021-11-22T09:20:12.207Z</time>
      </trkpt>
      <trkpt lat="47.746514" lon="7.955263">
        <ele>861.965208</ele>
        <time>2021-11-22T09:20:14.616Z</time>
      </trkpt>
      <trkpt lat="47.745705" lon="7.954989">
        <ele>855.995564</ele>
        <time>2021-11-22T09:20:22.143Z</time>
      </trkpt>
      <trkpt lat="47.745521" lon="7.954842">
        <ele>853.912773</ele>
        <time>2021-11-22T09:20:24.009Z</time>
      </trkpt>
      <trkpt lat="47.744666" lon="7.953865">
        <ele>843.160745</ele>
        <time>2021-11-22T09:20:33.299Z</time>
      </trkpt>
      <trkpt lat="47.744422" lon="7.953500">
        <ele>839.251513</ele>
        <time>2021-11-22T09:20:36.220Z</time>
      </trkpt>
      <trkpt lat="47.743731" lon="7.952119">
        <ele>821.458909</ele>
        <time>2021-11-22T09:20:45.772Z</time>
      </trkpt>
      <trkpt lat="47.743351" lon="7.951701">
        <ele>814.193513</ele>
        <time>2021-11-22T09:20:49.688Z</time>
      </trkpt>
      <trkpt lat="47.743143" lon="7.951537">
        <ele>811.433438</ele>
        <time>2021-11-22T09:20:51.628Z</time>
      </trkpt>
      <trkpt lat="47.743081" lon="7.951508">
        <ele>810.802026</ele>
        <time>2021-11-22T09:20:52.173Z</time>
      </trkpt>
      <trkpt lat="47.743001" lon="7.951494">
        <ele>810.019477</ele>
        <time>2021-11-22T09:20:52.876Z</time>
      </trkpt>
      <trkpt lat="47.742585" lon="7.951542">
        <ele>805.965962</ele>
        <time>2021-11-22T09:20:56.388Z</time>
      </trkpt>
      <trkpt lat="47.742396" lon="7.951557">
        <ele>804.127247</ele>
        <time>2021-11-22T09:20:57.987Z</time>
      </trkpt>
      <trkpt lat="47.741831" lon="7.951585">
        <ele>798.635322</ele>
        <time>2021-11-22T09:21:03.003Z</time>
      </trkpt>
      <trkpt lat="47.741619" lon="7.951662">
        <ele>796.515236</ele>
        <time>2021-11-22T09:21:04.956Z</time>
      </trkpt>
      <trkpt lat="47.741570" lon="7.951667">
        <ele>796.038090</ele>
        <time>2021-11-22T09:21:06.198Z</time>
      </trkpt>
      <trkpt lat="47.741333" lon="7.951521">
        <ele>795.314117</ele>
        <time>2021-11-22T09:21:08.812Z</time>
      </trkpt>
      <trkpt lat="47.740885" lon="7.950798">
        <ele>794.903717</ele>
        <time>2021-11-22T09:21:16.593Z</time>
      </trkpt>
      <trkpt lat="47.740772" lon="7.950554">
        <ele>794.780043</ele>
        <time>2021-11-22T09:21:20.905Z</time>
      </trkpt>
      <trkpt lat="47.740735" lon="7.950444">
        <ele>794.728700</ele>
        <time>2021-11-22T09:21:21.745Z</time>
      </trkpt>
      <trkpt lat="47.740629" lon="7.948976">
        <ele>794.765924</ele>
        <time>2021-11-22T09:21:43.542Z</time>
      </trkpt>
      <trkpt lat="47.740558" lon="7.948658">
        <ele>795.069955</ele>
        <time>2021-11-22T09:21:47.581Z</time>
      </trkpt>
      <trkpt lat="47.740310" lon="7.947665">
        <ele>796.031103</ele>
        <time>2021-11-22T09:22:02.466Z</time>
      </trkpt>
      <trkpt lat="47.739844" lon="7.946623">
        <ele>796.130680</ele>
        <time>2021-11-22T09:22:19.946Z</time>
      </trkpt>
      <trkpt lat="47.739581" lon="7.945069">
        <ele>794.010502</ele>
        <time>2021-11-22T09:22:32.709Z</time>
      </trkpt>
      <trkpt lat="47.739270" lon="7.943886">
        <ele>789.306162</ele>
        <time>2021-11-22T09:22:40.598Z</time>
      </trkpt>
      <trkpt lat="47.738047" lon="7.941312">
        <ele>769.506706</ele>
        <time>2021-11-22T09:22:58.818Z</time>
      </trkpt>
      <trkpt lat="47.737999" lon="7.940543">
        <ele>764.116204</ele>
        <time>2021-11-22T09:23:03.189Z</time>
      </trkpt>
      <trkpt lat="47.737945" lon="7.940284">
        <ele>762.223564</ele>
        <time>2021-11-22T09:23:04.819Z</time>
      </trkpt>
      <trkpt lat="47.737719" lon="7.939780">
        <ele>758.362357</ele>
        <time>2021-11-22T09:23:08.355Z</time>
      </trkpt>
      <trkpt lat="47.737653" lon="7.939638">
        <ele>757.711486</ele>
        <time>2021-11-22T09:23:09.322Z</time>
      </trkpt>
      <trkpt lat="47.737579" lon="7.939469">
        <ele>756.951069</ele>
        <time>2021-11-22T09:23:10.598Z</time>
      </trkpt>
      <trkpt lat="47.737475" lon="7.939256">
        <ele>755.958554</ele>
        <time>2021-11-22T09:23:12.148Z</time>
      </trkpt>
      <trkpt lat="47.737220" lon="7.938947">
        <ele>754.114177</ele>
        <time>2021-11-22T09:23:15.155Z</time>
      </trkpt>
      <trkpt lat="47.736998" lon="7.938710">
        <ele>752.581877</ele>
        <time>2021-11-22T09:23:17.736Z</time>
      </trkpt>
      <trkpt lat="47.736881" lon="7.938554">
        <ele>751.700766</ele>
        <time>2021-11-22T09:23:19.124Z</time>
      </trkpt>
      <trkpt lat="47.736829" lon="7.938377">
        <ele>750.972438</ele>
        <time>2021-11-22T09:23:20.609Z</time>
      </trkpt>
      <trkpt lat="47.736824" lon="7.937950">
        <ele>749.362073</ele>
        <time>2021-11-22T09:23:23.370Z</time>
      </trkpt>
      <trkpt lat="47.736773" lon="7.937675">
        <ele>748.690983</ele>
        <time>2021-11-22T09:23:26.098Z</time>
      </trkpt>
      <trkpt lat="47.736451" lon="7.936536">
        <ele>748.494473</ele>
        <time>2021-11-22T09:23:39.430Z</time>
      </trkpt>
      <trkpt lat="47.736106" lon="7.935642">
        <ele>748.330538</ele>
        <time>2021-11-22T09:23:50.717Z</time>
      </trkpt>
      <trkpt lat="47.734836" lon="7.933858">
        <ele>747.320154</ele>
        <time>2021-11-22T09:24:15.411Z</time>
      </trkpt>
      <trkpt lat="47.734253" lon="7.933254">
        <ele>744.255394</ele>
        <time>2021-11-22T09:24:23.025Z</time>
      </trkpt>
      <trkpt lat="47.733981" lon="7.932681">
        <ele>741.272062</ele>
        <time>2021-11-22T09:24:27.667Z</time>
      </trkpt>
      <trkpt lat="47.733910" lon="7.932470">
        <ele>740.268457</ele>
        <time>2021-11-22T09:24:29.141Z</time>
      </trkpt>
      <trkpt lat="47.733848" lon="7.931847">
        <ele>737.589511</ele>
        <time>2021-11-22T09:24:32.790Z</time>
      </trkpt>
      <trkpt lat="47.733758" lon="7.931682">
        <ele>736.685838</ele>
        <time>2021-11-22T09:24:34.007Z</time>
      </trkpt>
      <trkpt lat="47.733749" lon="7.931524">
        <ele>736.011336</ele>
        <time>2021-11-22T09:24:34.924Z</time>
      </trkpt>
      <trkpt lat="47.733761" lon="7.931371">
        <ele>734.978815</ele>
        <time>2021-11-22T09:24:35.791Z</time>
      </trkpt>
      <trkpt lat="47.734008" lon="7.930925">
        <ele>730.376944</ele>
        <time>2021-11-22T09:24:39.059Z</time>
      </trkpt>
      <trkpt lat="47.734069" lon="7.930547">
        <ele>727.280622</ele>
        <time>2021-11-22T09:24:41.279Z</time>
      </trkpt>
      <trkpt lat="47.734040" lon="7.930362">
        <ele>725.767556</ele>
        <time>2021-11-22T09:24:42.330Z</time>
      </trkpt>
      <trkpt lat="47.733963" lon="7.930233">
        <ele>724.393740</ele>
        <time>2021-11-22T09:24:43.322Z</time>
      </trkpt>
      <trkpt lat="47.733777" lon="7.929976">
        <ele>721.386613</ele>
        <time>2021-11-22T09:24:45.456Z</time>
      </trkpt>
      <trkpt lat="47.733647" lon="7.929754">
        <ele>719.042003</ele>
        <time>2021-11-22T09:24:47.163Z</time>
      </trkpt>
      <trkpt lat="47.733509" lon="7.929294">
        <ele>715.029984</ele>
        <time>2021-11-22T09:24:50.036Z</time>
      </trkpt>
      <trkpt lat="47.733444" lon="7.928893">
        <ele>713.008884</ele>
        <time>2021-11-22T09:24:52.383Z</time>
      </trkpt>
      <trkpt lat="47.733398" lon="7.928523">
        <ele>711.393463</ele>
        <time>2021-11-22T09:24:54.543Z</time>
      </trkpt>
      <trkpt lat="47.733341" lon="7.927462">
        <ele>706.823788</ele>
        <time>2021-11-22T09:25:01.152Z</time>
      </trkpt>
      <trkpt lat="47.732821" lon="7.925776">
        <ele>700.118370</ele>
        <time>2021-11-22T09:25:14.129Z</time>
      </trkpt>
      <trkpt lat="47.731635" lon="7.924371">
        <ele>691.363626</ele>
        <time>2021-11-22T09:25:28.447Z</time>
      </trkpt>
      <trkpt lat="47.731585" lon="7.924203">
        <ele>690.137218</ele>
        <time>2021-11-22T09:25:29.514Z</time>
      </trkpt>
      <trkpt lat="47.731588" lon="7.923961">
        <ele>688.521422</ele>
        <time>2021-11-22T09:25:30.895Z</time>
      </trkpt>
      <trkpt lat="47.731818" lon="7.923068">
        <ele>682.137899</ele>
        <time>2021-11-22T09:25:36.384Z</time>
      </trkpt>
      <trkpt lat="47.731850" lon="7.922703">
        <ele>679.680665</ele>
        <time>2021-11-22T09:25:38.483Z</time>
      </trkpt>
      <trkpt lat="47.731844" lon="7.922195">
        <ele>676.034887</ele>
        <time>2021-11-22T09:25:41.358Z</time>
      </trkpt>
      <trkpt lat="47.731819" lon="7.921822">
        <ele>672.800037</ele>
        <time>2021-11-22T09:25:43.470Z</time>
      </trkpt>
      <trkpt lat="47.731767" lon="7.920950">
        <ele>665.245345</ele>
        <time>2021-11-22T09:25:48.413Z</time>
      </trkpt>
      <trkpt lat="47.731627" lon="7.919861">
        <ele>655.677367</ele>
        <time>2021-11-22T09:25:54.626Z</time>
      </trkpt>
      <trkpt lat="47.731620" lon="7.919356">
        <ele>652.584453</ele>
        <time>2021-11-22T09:25:57.545Z</time>
      </trkpt>
      <trkpt lat="47.731701" lon="7.918716">
        <ele>649.541639</ele>
        <time>2021-11-22T09:26:01.418Z</time>
      </trkpt>
      <trkpt lat="47.731701" lon="7.918613">
        <ele>649.060383</ele>
        <time>2021-11-22T09:26:01.986Z</time>
      </trkpt>
      <trkpt lat="47.731677" lon="7.918434">
        <ele>648.207568</ele>
        <time>2021-11-22T09:26:03.134Z</time>
      </trkpt>
      <trkpt lat="47.731610" lon="7.918221">
        <ele>647.108891</ele>
        <time>2021-11-22T09:26:04.615Z</time>
      </trkpt>
      <trkpt lat="47.731542" lon="7.917979">
        <ele>645.883463</ele>
        <time>2021-11-22T09:26:06.140Z</time>
      </trkpt>
      <trkpt lat="47.731518" lon="7.917849">
        <ele>645.253585</ele>
        <time>2021-11-22T09:26:07.063Z</time>
      </trkpt>
      <trkpt lat="47.731506" lon="7.917695">
        <ele>644.529221</ele>
        <time>2021-11-22T09:26:08.051Z</time>
      </trkpt>
      <trkpt lat="47.731535" lon="7.917314">
        <ele>642.737670</ele>
        <time>2021-11-22T09:26:10.473Z</time>
      </trkpt>
      <trkpt lat="47.731557" lon="7.917035">
        <ele>641.624514</ele>
        <time>2021-11-22T09:26:12.322Z</time>
      </trkpt>
      <trkpt lat="47.731509" lon="7.916258">
        <ele>642.537966</ele>
        <time>2021-11-22T09:26:21.225Z</time>
      </trkpt>
      <trkpt lat="47.731501" lon="7.916131">
        <ele>642.687294</ele>
        <time>2021-11-22T09:26:24.137Z</time>
      </trkpt>
      <trkpt lat="47.731475" lon="7.915973">
        <ele>642.877718</ele>
        <time>2021-11-22T09:26:27.150Z</time>
      </trkpt>
      <trkpt lat="47.731344" lon="7.915736">
        <ele>643.236839</ele>
        <time>2021-11-22T09:26:33.900Z</time>
      </trkpt>
      <trkpt lat="47.731124" lon="7.915625">
        <ele>643.641204</ele>
        <time>2021-11-22T09:26:41.126Z</time>
      </trkpt>
      <trkpt lat="47.731092" lon="7.915604">
        <ele>643.702085</ele>
        <time>2021-11-22T09:26:42.147Z</time>
      </trkpt>
      <trkpt lat="47.730905" lon="7.915495">
        <ele>644.051684</ele>
        <time>2021-11-22T09:26:50.183Z</time>
      </trkpt>
      <trkpt lat="47.730750" lon="7.915383">
        <ele>644.351640</ele>
        <time>2021-11-22T09:26:53.148Z</time>
      </trkpt>
      <trkpt lat="47.729948" lon="7.914243">
        <ele>641.428222</ele>
        <time>2021-11-22T09:27:16.691Z</time>
      </trkpt>
      <trkpt lat="47.729933" lon="7.914217">
        <ele>641.344145</ele>
        <time>2021-11-22T09:27:19.171Z</time>
      </trkpt>
      <trkpt lat="47.729780" lon="7.913949">
        <ele>640.481328</ele>
        <time>2021-11-22T09:27:21.303Z</time>
      </trkpt>
      <trkpt lat="47.729645" lon="7.913460">
        <ele>639.183886</ele>
        <time>2021-11-22T09:27:24.395Z</time>
      </trkpt>
      <trkpt lat="47.729542" lon="7.912663">
        <ele>634.457627</ele>
        <time>2021-11-22T09:27:29.021Z</time>
      </trkpt>
      <trkpt lat="47.729557" lon="7.912224">
        <ele>630.304885</ele>
        <time>2021-11-22T09:27:31.482Z</time>
      </trkpt>
      <trkpt lat="47.729657" lon="7.911973">
        <ele>627.548850</ele>
        <time>2021-11-22T09:27:33.136Z</time>
      </trkpt>
      <trkpt lat="47.729702" lon="7.911916">
        <ele>626.718514</ele>
        <time>2021-11-22T09:27:33.627Z</time>
      </trkpt>
      <trkpt lat="47.729824" lon="7.911760">
        <ele>624.458370</ele>
        <time>2021-11-22T09:27:34.973Z</time>
      </trkpt>
      <trkpt lat="47.729895" lon="7.911625">
        <ele>622.839400</ele>
        <time>2021-11-22T09:27:35.986Z</time>
      </trkpt>
      <trkpt lat="47.729976" lon="7.911231">
        <ele>618.947184</ele>
        <time>2021-11-22T09:27:38.277Z</time>
      </trkpt>
      <trkpt lat="47.729981" lon="7.910711">
        <ele>614.034092</ele>
        <time>2021-11-22T09:27:41.172Z</time>
      </trkpt>
      <trkpt lat="47.729979" lon="7.910422">
        <ele>611.580666</ele>
        <time>2021-11-22T09:27:42.790Z</time>
      </trkpt>
      <trkpt lat="47.729954" lon="7.910231">
        <ele>610.063588</ele>
        <time>2021-11-22T09:27:43.870Z</time>
      </trkpt>
      <trkpt lat="47.729917" lon="7.910114">
        <ele>609.055599</ele>
        <time>2021-11-22T09:27:44.612Z</time>
      </trkpt>
      <trkpt lat="47.729810" lon="7.909915">
        <ele>607.069278</ele>
        <time>2021-11-22T09:27:46.027Z</time>
      </trkpt>
      <trkpt lat="47.729669" lon="7.909656">
        <ele>604.471430</ele>
        <time>2021-11-22T09:27:47.896Z</time>
      </trkpt>
      <trkpt lat="47.729605" lon="7.909475">
        <ele>602.877134</ele>
        <time>2021-11-22T09:27:49.093Z</time>
      </trkpt>
      <trkpt lat="47.729401" lon="7.908810">
        <ele>597.178608</ele>
        <time>2021-11-22T09:27:53.300Z</time>
      </trkpt>
      <trkpt lat="47.729186" lon="7.908364">
        <ele>592.900479</ele>
        <time>2021-11-22T09:27:56.561Z</time>
      </trkpt>
      <trkpt lat="47.728812" lon="7.907348">
        <ele>587.286988</ele>
        <time>2021-11-22T09:28:03.435Z</time>
      </trkpt>
      <trkpt lat="47.728774" lon="7.907230">
        <ele>586.693530</ele>
        <time>2021-11-22T09:28:04.224Z</time>
      </trkpt>
      <trkpt lat="47.728755" lon="7.907166">
        <ele>586.376192</ele>
        <time>2021-11-22T09:28:04.660Z</time>
      </trkpt>
      <trkpt lat="47.728720" lon="7.907033">
        <ele>585.728345</ele>
        <time>2021-11-22T09:28:05.527Z</time>
      </trkpt>
      <trkpt lat="47.728700" lon="7.906927">
        <ele>585.228945</ele>
        <time>2021-11-22T09:28:06.163Z</time>
      </trkpt>
      <trkpt lat="47.728712" lon="7.905250">
        <ele>578.083545</ele>
        <time>2021-11-22T09:28:16.785Z</time>
      </trkpt>
      <trkpt lat="47.728537" lon="7.903139">
        <ele>570.383495</ele>
        <time>2021-11-22T09:28:30.148Z</time>
      </trkpt>
      <trkpt lat="47.728608" lon="7.902645">
        <ele>568.093846</ele>
        <time>2021-11-22T09:28:33.273Z</time>
      </trkpt>
      <trkpt lat="47.728645" lon="7.902510">
        <ele>567.420925</ele>
        <time>2021-11-22T09:28:34.135Z</time>
      </trkpt>
      <trkpt lat="47.728749" lon="7.902139">
        <ele>565.565576</ele>
        <time>2021-11-22T09:28:36.625Z</time>
      </trkpt>
      <trkpt lat="47.728839" lon="7.901702">
        <ele>563.455901</ele>
        <time>2021-11-22T09:28:39.395Z</time>
      </trkpt>
      <trkpt lat="47.728835" lon="7.901537">
        <ele>562.693750</ele>
        <time>2021-11-22T09:28:40.383Z</time>
      </trkpt>
      <trkpt lat="47.728650" lon="7.900731">
        <ele>558.762514</ele>
        <time>2021-11-22T09:28:45.476Z</time>
      </trkpt>
      <trkpt lat="47.728587" lon="7.900544">
        <ele>557.777623</ele>
        <time>2021-11-22T09:28:46.712Z</time>
      </trkpt>
      <trkpt lat="47.728363" lon="7.899872">
        <ele>553.563574</ele>
        <time>2021-11-22T09:28:51.206Z</time>
      </trkpt>
      <trkpt lat="47.727908" lon="7.897643">
        <ele>541.231632</ele>
        <time>2021-11-22T09:29:04.900Z</time>
      </trkpt>
      <trkpt lat="47.727720" lon="7.897262">
        <ele>539.418082</ele>
        <time>2021-11-22T09:29:07.694Z</time>
      </trkpt>
      <trkpt lat="47.727628" lon="7.897135">
        <ele>538.701740</ele>
        <time>2021-11-22T09:29:08.797Z</time>
      </trkpt>
      <trkpt lat="47.727227" lon="7.896835">
        <ele>536.140325</ele>
        <time>2021-11-22T09:29:13.048Z</time>
      </trkpt>
      <trkpt lat="47.726746" lon="7.896732">
        <ele>533.367504</ele>
        <time>2021-11-22T09:29:17.829Z</time>
      </trkpt>
      <trkpt lat="47.726476" lon="7.896687">
        <ele>532.400134</ele>
        <time>2021-11-22T09:29:20.705Z</time>
      </trkpt>
      <trkpt lat="47.726303" lon="7.896642">
        <ele>532.144935</ele>
        <time>2021-11-22T09:29:22.451Z</time>
      </trkpt>
      <trkpt lat="47.726263" lon="7.896619">
        <ele>532.082617</ele>
        <time>2021-11-22T09:29:22.890Z</time>
      </trkpt>
      <trkpt lat="47.726222" lon="7.896596">
        <ele>532.018941</ele>
        <time>2021-11-22T09:29:24.087Z</time>
      </trkpt>
      <trkpt lat="47.726151" lon="7.896541">
        <ele>531.902607</ele>
        <time>2021-11-22T09:29:26.372Z</time>
      </trkpt>
      <trkpt lat="47.726036" lon="7.896420">
        <ele>531.697885</ele>
        <time>2021-11-22T09:29:27.902Z</time>
      </trkpt>
      <trkpt lat="47.725807" lon="7.895982">
        <ele>531.155658</ele>
        <time>2021-11-22T09:29:32.908Z</time>
      </trkpt>
      <trkpt lat="47.725731" lon="7.895807">
        <ele>530.952054</ele>
        <time>2021-11-22T09:29:35.212Z</time>
      </trkpt>
      <trkpt lat="47.725596" lon="7.895503">
        <ele>530.596000</ele>
        <time>2021-11-22T09:29:37.998Z</time>
      </trkpt>
      <trkpt lat="47.725357" lon="7.894782">
        <ele>529.493142</ele>
        <time>2021-11-22T09:29:45.025Z</time>
      </trkpt>
      <trkpt lat="47.725330" lon="7.894253">
        <ele>528.036832</ele>
        <time>2021-11-22T09:29:48.668Z</time>
      </trkpt>
      <trkpt lat="47.725387" lon="7.893969">
        <ele>527.223276</ele>
        <time>2021-11-22T09:29:50.561Z</time>
      </trkpt>
      <trkpt lat="47.725885" lon="7.892540">
        <ele>522.805450</ele>
        <time>2021-11-22T09:30:00.860Z</time>
      </trkpt>
      <trkpt lat="47.726216" lon="7.891702">
        <ele>519.237513</ele>
        <time>2021-11-22T09:30:06.826Z</time>
      </trkpt>
      <trkpt lat="47.726486" lon="7.891035">
        <ele>516.333532</ele>
        <time>2021-11-22T09:30:11.671Z</time>
      </trkpt>
      <trkpt lat="47.726911" lon="7.890002">
        <ele>512.104434</ele>
        <time>2021-11-22T09:30:19.235Z</time>
      </trkpt>
      <trkpt lat="47.726952" lon="7.889903">
        <ele>511.816875</ele>
        <time>2021-11-22T09:30:19.924Z</time>
      </trkpt>
      <trkpt lat="47.727998" lon="7.887468">
        <ele>505.252251</ele>
        <time>2021-11-22T09:30:39.601Z</time>
      </trkpt>
      <trkpt lat="47.728253" lon="7.886748">
        <ele>504.083588</ele>
        <time>2021-11-22T09:30:45.856Z</time>
      </trkpt>
      <trkpt lat="47.728355" lon="7.886411">
        <ele>503.552840</ele>
        <time>2021-11-22T09:30:48.934Z</time>
      </trkpt>
      <trkpt lat="47.728435" lon="7.886127">
        <ele>503.110632</ele>
        <time>2021-11-22T09:30:51.277Z</time>
      </trkpt>
      <trkpt lat="47.728514" lon="7.885740">
        <ele>502.529786</ele>
        <time>2021-11-22T09:30:54.369Z</time>
      </trkpt>
      <trkpt lat="47.728545" lon="7.885495">
        <ele>502.102339</ele>
        <time>2021-11-22T09:30:56.298Z</time>
      </trkpt>
      <trkpt lat="47.728575" lon="7.885226">
        <ele>501.111154</ele>
        <time>2021-11-22T09:30:58.218Z</time>
      </trkpt>
      <trkpt lat="47.728594" lon="7.884713">
        <ele>499.243537</ele>
        <time>2021-11-22T09:31:01.611Z</time>
      </trkpt>
      <trkpt lat="47.728559" lon="7.884336">
        <ele>497.860123</ele>
        <time>2021-11-22T09:31:04.057Z</time>
      </trkpt>
      <trkpt lat="47.728477" lon="7.883958">
        <ele>496.416373</ele>
        <time>2021-11-22T09:31:06.445Z</time>
      </trkpt>
      <trkpt lat="47.728300" lon="7.883253">
        <ele>493.680942</ele>
        <time>2021-11-22T09:31:10.939Z</time>
      </trkpt>
      <trkpt lat="47.728218" lon="7.882899">
        <ele>492.250505</ele>
        <time>2021-11-22T09:31:13.264Z</time>
      </trkpt>
      <trkpt lat="47.728187" lon="7.882773">
        <ele>491.571410</ele>
        <time>2021-11-22T09:31:14.072Z</time>
      </trkpt>
      <trkpt lat="47.728006" lon="7.882040">
        <ele>487.619087</ele>
        <time>2021-11-22T09:31:18.801Z</time>
      </trkpt>
      <trkpt lat="47.727963" lon="7.881876">
        <ele>486.728133</ele>
        <time>2021-11-22T09:31:19.826Z</time>
      </trkpt>
      <trkpt lat="47.727918" lon="7.881691">
        <ele>485.732371</ele>
        <time>2021-11-22T09:31:20.991Z</time>
      </trkpt>
      <trkpt lat="47.727835" lon="7.881345">
        <ele>483.872980</ele>
        <time>2021-11-22T09:31:23.159Z</time>
      </trkpt>
      <trkpt lat="47.727788" lon="7.881046">
        <ele>482.318750</ele>
        <time>2021-11-22T09:31:25.008Z</time>
      </trkpt>
      <trkpt lat="47.727752" lon="7.880641">
        <ele>480.250930</ele>
        <time>2021-11-22T09:31:27.408Z</time>
      </trkpt>
      <trkpt lat="47.727699" lon="7.880078">
        <ele>478.090866</ele>
        <time>2021-11-22T09:31:30.777Z</time>
      </trkpt>
      <trkpt lat="47.727685" lon="7.879149">
        <ele>475.511453</ele>
        <time>2021-11-22T09:31:36.843Z</time>
      </trkpt>
      <trkpt lat="47.727847" lon="7.878137">
        <ele>472.623842</ele>
        <time>2021-11-22T09:31:44.113Z</time>
      </trkpt>
      <trkpt lat="47.727848" lon="7.878060">
        <ele>472.410063</ele>
        <time>2021-11-22T09:31:44.553Z</time>
      </trkpt>
      <trkpt lat="47.727830" lon="7.878011">
        <ele>472.255085</ele>
        <time>2021-11-22T09:31:45.133Z</time>
      </trkpt>
      <trkpt lat="47.727805" lon="7.877974">
        <ele>472.109510</ele>
        <time>2021-11-22T09:31:45.730Z</time>
      </trkpt>
      <trkpt lat="47.727757" lon="7.877938">
        <ele>471.887648</ele>
        <time>2021-11-22T09:31:46.734Z</time>
      </trkpt>
      <trkpt lat="47.727679" lon="7.877897">
        <ele>471.546237</ele>
        <time>2021-11-22T09:31:47.854Z</time>
      </trkpt>
      <trkpt lat="47.727482" lon="7.877767">
        <ele>471.593988</ele>
        <time>2021-11-22T09:31:50.089Z</time>
      </trkpt>
      <trkpt lat="47.727326" lon="7.877524">
        <ele>471.651392</ele>
        <time>2021-11-22T09:31:52.499Z</time>
      </trkpt>
      <trkpt lat="47.727280" lon="7.877451">
        <ele>471.668487</ele>
        <time>2021-11-22T09:31:53.083Z</time>
      </trkpt>
      <trkpt lat="47.727152" lon="7.877276">
        <ele>471.712667</ele>
        <time>2021-11-22T09:31:55.632Z</time>
      </trkpt>
      <trkpt lat="47.726632" lon="7.876787">
        <ele>471.868988</ele>
        <time>2021-11-22T09:32:05.233Z</time>
      </trkpt>
      <trkpt lat="47.726621" lon="7.876777">
        <ele>471.872263</ele>
        <time>2021-11-22T09:32:06.314Z</time>
      </trkpt>
      <trkpt lat="47.726355" lon="7.876567">
        <ele>471.948780</ele>
        <time>2021-11-22T09:32:14.883Z</time>
      </trkpt>
      <trkpt lat="47.726316" lon="7.876471">
        <ele>471.967946</ele>
        <time>2021-11-22T09:32:18.558Z</time>
      </trkpt>
      <trkpt lat="47.726308" lon="7.876442">
        <ele>471.973303</ele>
        <time>2021-11-22T09:32:18.806Z</time>
      </trkpt>
      <trkpt lat="47.726289" lon="7.876372">
        <ele>471.986203</ele>
        <time>2021-11-22T09:32:19.444Z</time>
      </trkpt>
      <trkpt lat="47.726276" lon="7.876268">
        <ele>472.083976</ele>
        <time>2021-11-22T09:32:21.787Z</time>
      </trkpt>
      <trkpt lat="47.726276" lon="7.876059">
        <ele>472.489941</ele>
        <time>2021-11-22T09:32:26.053Z</time>
      </trkpt>
      <trkpt lat="47.725603" lon="7.876078">
        <ele>474.433653</ele>
        <time>2021-11-22T09:32:44.280Z</time>
      </trkpt>
      <trkpt lat="47.725165" lon="7.876076">
        <ele>475.698432</ele>
        <time>2021-11-22T09:32:54.742Z</time>
      </trkpt>
      <trkpt lat="47.724579" lon="7.876025">
        <ele>477.251343</ele>
        <time>2021-11-22T09:33:11.685Z</time>
      </trkpt>
      <trkpt lat="47.724355" lon="7.875976">
        <ele>477.447617</ele>
        <time>2021-11-22T09:33:17.960Z</time>
      </trkpt>
      <trkpt lat="47.722045" lon="7.874970">
        <ele>476.087552</ele>
        <time>2021-11-22T09:33:55.261Z</time>
      </trkpt>
      <trkpt lat="47.720802" lon="7.874203">
        <ele>470.345577</ele>
        <time>2021-11-22T09:34:07.628Z</time>
      </trkpt>
      <trkpt lat="47.720642" lon="7.874138">
        <ele>469.203670</ele>
        <time>2021-11-22T09:34:09.079Z</time>
      </trkpt>
      <trkpt lat="47.720421" lon="7.874066">
        <ele>467.646095</ele>
        <time>2021-11-22T09:34:11.098Z</time>
      </trkpt>
      <trkpt lat="47.719606" lon="7.874044">
        <ele>462.034355</ele>
        <time>2021-11-22T09:34:18.392Z</time>
      </trkpt>
      <trkpt lat="47.719115" lon="7.874233">
        <ele>459.309747</ele>
        <time>2021-11-22T09:34:22.965Z</time>
      </trkpt>
      <trkpt lat="47.718928" lon="7.874363">
        <ele>458.318645</ele>
        <time>2021-11-22T09:34:24.856Z</time>
      </trkpt>
      <trkpt lat="47.718722" lon="7.874534">
        <ele>457.185891</ele>
        <time>2021-11-22T09:34:27.184Z</time>
      </trkpt>
      <trkpt lat="47.718352" lon="7.874895">
        <ele>455.061066</ele>
        <time>2021-11-22T09:34:31.447Z</time>
      </trkpt>
      <trkpt lat="47.718283" lon="7.874952">
        <ele>454.682083</ele>
        <time>2021-11-22T09:34:32.173Z</time>
      </trkpt>
      <trkpt lat="47.718045" lon="7.875043">
        <ele>453.502275</ele>
        <time>2021-11-22T09:34:34.716Z</time>
      </trkpt>
      <trkpt lat="47.717929" lon="7.875048">
        <ele>452.945138</ele>
        <time>2021-11-22T09:34:35.802Z</time>
      </trkpt>
      <trkpt lat="47.717795" lon="7.875016">
        <ele>452.350656</ele>
        <time>2021-11-22T09:34:37.219Z</time>
      </trkpt>
      <trkpt lat="47.717731" lon="7.874992">
        <ele>452.155364</ele>
        <time>2021-11-22T09:34:37.967Z</time>
      </trkpt>
      <trkpt lat="47.717653" lon="7.874955">
        <ele>451.913117</ele>
        <time>2021-11-22T09:34:38.776Z</time>
      </trkpt>
      <trkpt lat="47.717570" lon="7.874898">
        <ele>451.642599</ele>
        <time>2021-11-22T09:34:39.642Z</time>
      </trkpt>
      <trkpt lat="47.717479" lon="7.874818">
        <ele>451.329787</ele>
        <time>2021-11-22T09:34:40.799Z</time>
      </trkpt>
      <trkpt lat="47.717406" lon="7.874729">
        <ele>451.050437</ele>
        <time>2021-11-22T09:34:41.955Z</time>
      </trkpt>
      <trkpt lat="47.717189" lon="7.874429">
        <ele>450.173603</ele>
        <time>2021-11-22T09:34:44.938Z</time>
      </trkpt>
      <trkpt lat="47.717103" lon="7.874335">
        <ele>449.857760</ele>
        <time>2021-11-22T09:34:46.094Z</time>
      </trkpt>
      <trkpt lat="47.717070" lon="7.874314">
        <ele>449.751550</ele>
        <time>2021-11-22T09:34:46.436Z</time>
      </trkpt>
      <trkpt lat="47.717029" lon="7.874284">
        <ele>449.616340</ele>
        <time>2021-11-22T09:34:46.853Z</time>
      </trkpt>
      <trkpt lat="47.716952" lon="7.874263">
        <ele>449.384715</ele>
        <time>2021-11-22T09:34:47.612Z</time>
      </trkpt>
      <trkpt lat="47.716876" lon="7.874235">
        <ele>449.153048</ele>
        <time>2021-11-22T09:34:48.399Z</time>
      </trkpt>
      <trkpt lat="47.716775" lon="7.874208">
        <ele>448.849423</ele>
        <time>2021-11-22T09:34:49.477Z</time>
      </trkpt>
      <trkpt lat="47.716420" lon="7.874140">
        <ele>447.790393</ele>
        <time>2021-11-22T09:34:53.083Z</time>
      </trkpt>
      <trkpt lat="47.716308" lon="7.874115">
        <ele>447.455301</ele>
        <time>2021-11-22T09:34:54.244Z</time>
      </trkpt>
      <trkpt lat="47.716112" lon="7.874043">
        <ele>447.042108</ele>
        <time>2021-11-22T09:34:56.479Z</time>
      </trkpt>
      <trkpt lat="47.715914" lon="7.873940">
        <ele>446.856514</ele>
        <time>2021-11-22T09:34:58.982Z</time>
      </trkpt>
      <trkpt lat="47.715854" lon="7.873896">
        <ele>446.797321</ele>
        <time>2021-11-22T09:34:59.799Z</time>
      </trkpt>
      <trkpt lat="47.715615" lon="7.873720">
        <ele>446.561342</ele>
        <time>2021-11-22T09:35:03.282Z</time>
      </trkpt>
      <trkpt lat="47.715568" lon="7.873684">
        <ele>446.514563</ele>
        <time>2021-11-22T09:35:03.921Z</time>
      </trkpt>
      <trkpt lat="47.715417" lon="7.873573">
        <ele>446.365523</ele>
        <time>2021-11-22T09:35:06.277Z</time>
      </trkpt>
      <trkpt lat="47.715417" lon="7.873573">
        <ele>446.365523</ele>
        <time>2021-11-22T09:35:06.280Z</time>
      </trkpt>
      <trkpt lat="47.715291" lon="7.873460">
        <ele>446.235327</ele>
        <time>2021-11-22T09:35:08.198Z</time>
      </trkpt>
      <trkpt lat="47.715157" lon="7.873310">
        <ele>446.086911</ele>
        <time>2021-11-22T09:35:10.618Z</time>
      </trkpt>
      <trkpt lat="47.714981" lon="7.873023">
        <ele>445.855758</ele>
        <time>2021-11-22T09:35:13.994Z</time>
      </trkpt>
      <trkpt lat="47.714846" lon="7.872772">
        <ele>445.664476</ele>
        <time>2021-11-22T09:35:17.255Z</time>
      </trkpt>
      <trkpt lat="47.714653" lon="7.872391">
        <ele>445.503338</ele>
        <time>2021-11-22T09:35:21.420Z</time>
      </trkpt>
      <trkpt lat="47.714248" lon="7.871810">
        <ele>445.416208</ele>
        <time>2021-11-22T09:35:28.541Z</time>
      </trkpt>
      <trkpt lat="47.714136" lon="7.871571">
        <ele>445.385874</ele>
        <time>2021-11-22T09:35:31.175Z</time>
      </trkpt>
      <trkpt lat="47.714075" lon="7.871435">
        <ele>445.368851</ele>
        <time>2021-11-22T09:35:32.530Z</time>
      </trkpt>
      <trkpt lat="47.714071" lon="7.871423">
        <ele>445.367456</ele>
        <time>2021-11-22T09:35:32.628Z</time>
      </trkpt>
      <trkpt lat="47.713944" lon="7.871094">
        <ele>445.327952</ele>
        <time>2021-11-22T09:35:36.650Z</time>
      </trkpt>
      <trkpt lat="47.713904" lon="7.871011">
        <ele>445.317319</ele>
        <time>2021-11-22T09:35:37.610Z</time>
      </trkpt>
      <trkpt lat="47.713864" lon="7.870784">
        <ele>445.292880</ele>
        <time>2021-11-22T09:35:39.694Z</time>
      </trkpt>
      <trkpt lat="47.713816" lon="7.870274">
        <ele>445.426018</ele>
        <time>2021-11-22T09:35:45.701Z</time>
      </trkpt>
      <trkpt lat="47.713773" lon="7.869687">
        <ele>446.345737</ele>
        <time>2021-11-22T09:35:53.699Z</time>
      </trkpt>
      <trkpt lat="47.713769" lon="7.869580">
        <ele>446.512658</ele>
        <time>2021-11-22T09:35:55.575Z</time>
      </trkpt>
      <trkpt lat="47.713740" lon="7.869307">
        <ele>446.943152</ele>
        <time>2021-11-22T09:35:59.880Z</time>
      </trkpt>
      <trkpt lat="47.713721" lon="7.869153">
        <ele>447.187023</ele>
        <time>2021-11-22T09:36:01.883Z</time>
      </trkpt>
      <trkpt lat="47.713689" lon="7.868943">
        <ele>447.522405</ele>
        <time>2021-11-22T09:36:06.155Z</time>
      </trkpt>
      <trkpt lat="47.713612" lon="7.868668">
        <ele>447.986358</ele>
        <time>2021-11-22T09:36:10.637Z</time>
      </trkpt>
      <trkpt lat="47.713549" lon="7.868431">
        <ele>448.383278</ele>
        <time>2021-11-22T09:36:15.961Z</time>
      </trkpt>
      <trkpt lat="47.713455" lon="7.868158">
        <ele>448.860953</ele>
        <time>2021-11-22T09:36:21.052Z</time>
      </trkpt>
      <trkpt lat="47.713377" lon="7.867931">
        <ele>449.257972</ele>
        <time>2021-11-22T09:36:26.610Z</time>
      </trkpt>
      <trkpt lat="47.713342" lon="7.867767">
        <ele>449.606542</ele>
        <time>2021-11-22T09:36:29.607Z</time>
      </trkpt>
      <trkpt lat="47.713315" lon="7.867641">
        <ele>449.961817</ele>
        <time>2021-11-22T09:36:31.953Z</time>
      </trkpt>
      <trkpt lat="47.713276" lon="7.867453">
        <ele>450.490375</ele>
        <time>2021-11-22T09:36:36.603Z</time>
      </trkpt>
      <trkpt lat="47.713257" lon="7.867330">
        <ele>450.829435</ele>
        <time>2021-11-22T09:36:39.248Z</time>
      </trkpt>
      <trkpt lat="47.713244" lon="7.867136">
        <ele>451.353230</ele>
        <time>2021-11-22T09:36:42.702Z</time>
      </trkpt>
      <trkpt lat="47.713245" lon="7.867018">
        <ele>451.670284</ele>
        <time>2021-11-22T09:36:45.627Z</time>
      </trkpt>
      <trkpt lat="47.713250" lon="7.866270">
        <ele>453.680022</ele>
        <time>2021-11-22T09:36:59.908Z</time>
      </trkpt>
      <trkpt lat="47.713262" lon="7.864861">
        <ele>457.021617</ele>
        <time>2021-11-22T09:37:32.845Z</time>
      </trkpt>
      <trkpt lat="47.713217" lon="7.864548">
        <ele>457.441934</ele>
        <time>2021-11-22T09:37:38.223Z</time>
      </trkpt>
      <trkpt lat="47.713108" lon="7.864260">
        <ele>457.875869</ele>
        <time>2021-11-22T09:37:45.687Z</time>
      </trkpt>
      <trkpt lat="47.713011" lon="7.864097">
        <ele>458.161635</ele>
        <time>2021-11-22T09:37:48.165Z</time>
      </trkpt>
      <trkpt lat="47.712922" lon="7.864018">
        <ele>458.363963</ele>
        <time>2021-11-22T09:37:50.549Z</time>
      </trkpt>
      <trkpt lat="47.712664" lon="7.863746">
        <ele>458.981342</ele>
        <time>2021-11-22T09:37:56.213Z</time>
      </trkpt>
      <trkpt lat="47.712551" lon="7.863628">
        <ele>459.250887</ele>
        <time>2021-11-22T09:37:58.513Z</time>
      </trkpt>
      <trkpt lat="47.712420" lon="7.863426">
        <ele>459.619320</ele>
        <time>2021-11-22T09:38:01.276Z</time>
      </trkpt>
      <trkpt lat="47.712347" lon="7.863304">
        <ele>459.833724</ele>
        <time>2021-11-22T09:38:03.471Z</time>
      </trkpt>
      <trkpt lat="47.712236" lon="7.863106">
        <ele>460.063268</ele>
        <time>2021-11-22T09:38:05.564Z</time>
      </trkpt>
      <trkpt lat="47.711872" lon="7.862643">
        <ele>459.426990</ele>
        <time>2021-11-22T09:38:13.744Z</time>
      </trkpt>
      <trkpt lat="47.711795" lon="7.862582">
        <ele>459.311111</ele>
        <time>2021-11-22T09:38:14.844Z</time>
      </trkpt>
      <trkpt lat="47.711730" lon="7.862531">
        <ele>459.213497</ele>
        <time>2021-11-22T09:38:15.641Z</time>
      </trkpt>
      <trkpt lat="47.711360" lon="7.862310">
        <ele>458.683925</ele>
        <time>2021-11-22T09:38:20.244Z</time>
      </trkpt>
      <trkpt lat="47.710393" lon="7.861997">
        <ele>458.105130</ele>
        <time>2021-11-22T09:38:30.417Z</time>
      </trkpt>
      <trkpt lat="47.710293" lon="7.861952">
        <ele>458.258726</ele>
        <time>2021-11-22T09:38:31.516Z</time>
      </trkpt>
      <trkpt lat="47.709768" lon="7.861687">
        <ele>459.073805</ele>
        <time>2021-11-22T09:38:43.346Z</time>
      </trkpt>
      <trkpt lat="47.709451" lon="7.861515">
        <ele>459.569899</ele>
        <time>2021-11-22T09:38:51.614Z</time>
      </trkpt>
      <trkpt lat="47.708861" lon="7.861082">
        <ele>460.728351</ele>
        <time>2021-11-22T09:39:10.917Z</time>
      </trkpt>
      <trkpt lat="47.708495" lon="7.860721">
        <ele>462.081714</ele>
        <time>2021-11-22T09:39:27.805Z</time>
      </trkpt>
      <trkpt lat="47.707955" lon="7.859991">
        <ele>464.330757</ele>
        <time>2021-11-22T09:39:50.291Z</time>
      </trkpt>
      <trkpt lat="47.707460" lon="7.858947">
        <ele>464.740967</ele>
        <time>2021-11-22T09:40:07.008Z</time>
      </trkpt>
      <trkpt lat="47.707373" lon="7.858698">
        <ele>464.111111</ele>
        <time>2021-11-22T09:40:08.913Z</time>
      </trkpt>
      <trkpt lat="47.707370" lon="7.858690">
        <ele>464.090550</ele>
        <time>2021-11-22T09:40:08.967Z</time>
      </trkpt>
      <trkpt lat="47.707030" lon="7.857295">
        <ele>460.759724</ele>
        <time>2021-11-22T09:40:18.487Z</time>
      </trkpt>
      <trkpt lat="47.706920" lon="7.856729">
        <ele>459.787401</ele>
        <time>2021-11-22T09:40:22.128Z</time>
      </trkpt>
      <trkpt lat="47.706829" lon="7.856209">
        <ele>459.486842</ele>
        <time>2021-11-22T09:40:25.492Z</time>
      </trkpt>
      <trkpt lat="47.706675" lon="7.855526">
        <ele>459.083901</ele>
        <time>2021-11-22T09:40:30.446Z</time>
      </trkpt>
      <trkpt lat="47.706108" lon="7.853617">
        <ele>459.321006</ele>
        <time>2021-11-22T09:41:10.375Z</time>
      </trkpt>
      <trkpt lat="47.706030" lon="7.853417">
        <ele>459.560926</ele>
        <time>2021-11-22T09:41:15.897Z</time>
      </trkpt>
      <trkpt lat="47.705975" lon="7.853235">
        <ele>459.767997</ele>
        <time>2021-11-22T09:41:18.385Z</time>
      </trkpt>
      <trkpt lat="47.705907" lon="7.853081">
        <ele>459.959171</ele>
        <time>2021-11-22T09:41:21.923Z</time>
      </trkpt>
      <trkpt lat="47.705667" lon="7.852408">
        <ele>460.749698</ele>
        <time>2021-11-22T09:41:32.377Z</time>
      </trkpt>
      <trkpt lat="47.705543" lon="7.852068">
        <ele>461.151079</ele>
        <time>2021-11-22T09:41:36.371Z</time>
      </trkpt>
      <trkpt lat="47.705485" lon="7.851910">
        <ele>460.295792</ele>
        <time>2021-11-22T09:41:37.577Z</time>
      </trkpt>
      <trkpt lat="47.705385" lon="7.851660">
        <ele>458.572061</ele>
        <time>2021-11-22T09:41:39.639Z</time>
      </trkpt>
      <trkpt lat="47.705292" lon="7.851464">
        <ele>457.150647</ele>
        <time>2021-11-22T09:41:41.166Z</time>
      </trkpt>
      <trkpt lat="47.705092" lon="7.851080">
        <ele>454.272657</ele>
        <time>2021-11-22T09:41:44.039Z</time>
      </trkpt>
      <trkpt lat="47.704999" lon="7.850903">
        <ele>452.941690</ele>
        <time>2021-11-22T09:41:45.318Z</time>
      </trkpt>
      <trkpt lat="47.704920" lon="7.850789">
        <ele>451.971812</ele>
        <time>2021-11-22T09:41:46.267Z</time>
      </trkpt>
      <trkpt lat="47.704900" lon="7.850759">
        <ele>451.721522</ele>
        <time>2021-11-22T09:41:46.506Z</time>
      </trkpt>
      <trkpt lat="47.704670" lon="7.850413">
        <ele>448.838972</ele>
        <time>2021-11-22T09:41:49.258Z</time>
      </trkpt>
      <trkpt lat="47.704541" lon="7.850217">
        <ele>447.214039</ele>
        <time>2021-11-22T09:41:50.794Z</time>
      </trkpt>
      <trkpt lat="47.704324" lon="7.849885">
        <ele>444.384652</ele>
        <time>2021-11-22T09:41:53.404Z</time>
      </trkpt>
      <trkpt lat="47.704201" lon="7.849678">
        <ele>442.585744</ele>
        <time>2021-11-22T09:41:54.966Z</time>
      </trkpt>
      <trkpt lat="47.703995" lon="7.849337">
        <ele>439.600583</ele>
        <time>2021-11-22T09:41:57.590Z</time>
      </trkpt>
      <trkpt lat="47.703913" lon="7.849202">
        <ele>438.415886</ele>
        <time>2021-11-22T09:41:58.648Z</time>
      </trkpt>
      <trkpt lat="47.703831" lon="7.849065">
        <ele>437.221484</ele>
        <time>2021-11-22T09:41:59.724Z</time>
      </trkpt>
      <trkpt lat="47.703779" lon="7.848979">
        <ele>436.468323</ele>
        <time>2021-11-22T09:42:00.378Z</time>
      </trkpt>
      <trkpt lat="47.703758" lon="7.848944">
        <ele>436.162855</ele>
        <time>2021-11-22T09:42:00.643Z</time>
      </trkpt>
      <trkpt lat="47.703543" lon="7.848580">
        <ele>433.007786</ele>
        <time>2021-11-22T09:42:03.476Z</time>
      </trkpt>
      <trkpt lat="47.703421" lon="7.848394">
        <ele>431.315769</ele>
        <time>2021-11-22T09:42:04.992Z</time>
      </trkpt>
      <trkpt lat="47.703169" lon="7.848031">
        <ele>427.926692</ele>
        <time>2021-11-22T09:42:08.137Z</time>
      </trkpt>
      <trkpt lat="47.703063" lon="7.847905">
        <ele>427.570233</ele>
        <time>2021-11-22T09:42:09.472Z</time>
      </trkpt>
      <trkpt lat="47.702742" lon="7.847615">
        <ele>426.583721</ele>
        <time>2021-11-22T09:42:13.184Z</time>
      </trkpt>
      <trkpt lat="47.702583" lon="7.847502">
        <ele>426.120890</ele>
        <time>2021-11-22T09:42:14.930Z</time>
      </trkpt>
      <trkpt lat="47.701629" lon="7.846819">
        <ele>423.340073</ele>
        <time>2021-11-22T09:42:27.532Z</time>
      </trkpt>
      <trkpt lat="47.701404" lon="7.846681">
        <ele>423.206153</ele>
        <time>2021-11-22T09:42:30.648Z</time>
      </trkpt>
      <trkpt lat="47.701262" lon="7.846597">
        <ele>423.205801</ele>
        <time>2021-11-22T09:42:32.664Z</time>
      </trkpt>
      <trkpt lat="47.701180" lon="7.846558">
        <ele>423.205602</ele>
        <time>2021-11-22T09:42:33.771Z</time>
      </trkpt>
      <trkpt lat="47.701163" lon="7.846549">
        <ele>423.205561</ele>
        <time>2021-11-22T09:42:34.015Z</time>
      </trkpt>
      <trkpt lat="47.701134" lon="7.846536">
        <ele>423.205491</ele>
        <time>2021-11-22T09:42:34.419Z</time>
      </trkpt>
      <trkpt lat="47.701099" lon="7.846530">
        <ele>423.205410</ele>
        <time>2021-11-22T09:42:34.885Z</time>
      </trkpt>
      <trkpt lat="47.701001" lon="7.846501">
        <ele>423.205180</ele>
        <time>2021-11-22T09:42:36.293Z</time>
      </trkpt>
      <trkpt lat="47.700895" lon="7.846470">
        <ele>423.204931</ele>
        <time>2021-11-22T09:42:37.795Z</time>
      </trkpt>
      <trkpt lat="47.700807" lon="7.846447">
        <ele>423.204726</ele>
        <time>2021-11-22T09:42:39.013Z</time>
      </trkpt>
      <trkpt lat="47.700617" lon="7.846398">
        <ele>423.204282</ele>
        <time>2021-11-22T09:42:41.767Z</time>
      </trkpt>
      <trkpt lat="47.700395" lon="7.846344">
        <ele>423.203764</ele>
        <time>2021-11-22T09:42:45.003Z</time>
      </trkpt>
      <trkpt lat="47.700319" lon="7.846326">
        <ele>423.203587</ele>
        <time>2021-11-22T09:42:46.147Z</time>
      </trkpt>
      <trkpt lat="47.700245" lon="7.846305">
        <ele>423.203413</ele>
        <time>2021-11-22T09:42:47.301Z</time>
      </trkpt>
      <trkpt lat="47.699905" lon="7.846213">
        <ele>423.202617</ele>
        <time>2021-11-22T09:42:52.844Z</time>
      </trkpt>
      <trkpt lat="47.699827" lon="7.846192">
        <ele>423.260172</ele>
        <time>2021-11-22T09:42:54.235Z</time>
      </trkpt>
      <trkpt lat="47.699771" lon="7.846177">
        <ele>423.637128</ele>
        <time>2021-11-22T09:42:55.213Z</time>
      </trkpt>
      <trkpt lat="47.699745" lon="7.846168">
        <ele>423.813979</ele>
        <time>2021-11-22T09:42:55.674Z</time>
      </trkpt>
      <trkpt lat="47.699453" lon="7.846075">
        <ele>425.792294</ele>
        <time>2021-11-22T09:43:02.212Z</time>
      </trkpt>
      <trkpt lat="47.699436" lon="7.846070">
        <ele>425.907097</ele>
        <time>2021-11-22T09:43:02.667Z</time>
      </trkpt>
      <trkpt lat="47.699211" lon="7.846000">
        <ele>427.429949</ele>
        <time>2021-11-22T09:43:08.745Z</time>
      </trkpt>
      <trkpt lat="47.699073" lon="7.845963">
        <ele>428.358904</ele>
        <time>2021-11-22T09:43:13.018Z</time>
      </trkpt>
      <trkpt lat="47.699010" lon="7.845946">
        <ele>428.783079</ele>
        <time>2021-11-22T09:43:17.648Z</time>
      </trkpt>
      <trkpt lat="47.698855" lon="7.845884">
        <ele>429.846445</ele>
        <time>2021-11-22T09:43:25.149Z</time>
      </trkpt>
      <trkpt lat="47.698669" lon="7.845788">
        <ele>431.150839</ele>
        <time>2021-11-22T09:43:34.590Z</time>
      </trkpt>
      <trkpt lat="47.698301" lon="7.845534">
        <ele>433.838881</ele>
        <time>2021-11-22T09:43:57.529Z</time>
      </trkpt>
      <trkpt lat="47.697715" lon="7.845135">
        <ele>438.732854</ele>
        <time>2021-11-22T09:44:36.453Z</time>
      </trkpt>
      <trkpt lat="47.697664" lon="7.845103">
        <ele>439.176071</ele>
        <time>2021-11-22T09:44:42.326Z</time>
      </trkpt>
      <trkpt lat="47.697056" lon="7.844688">
        <ele>444.532752</ele>
        <time>2021-11-22T09:45:15.890Z</time>
      </trkpt>
      <trkpt lat="47.696825" lon="7.844461">
        <ele>446.750027</ele>
        <time>2021-11-22T09:45:25.089Z</time>
      </trkpt>
      <trkpt lat="47.696769" lon="7.844356">
        <ele>447.471908</ele>
        <time>2021-11-22T09:45:33.395Z</time>
      </trkpt>
      <trkpt lat="47.696731" lon="7.844266">
        <ele>448.044392</ele>
        <time>2021-11-22T09:45:35.966Z</time>
      </trkpt>
      <trkpt lat="47.696680" lon="7.843959">
        <ele>449.410826</ele>
        <time>2021-11-22T09:45:39.565Z</time>
      </trkpt>
      <trkpt lat="47.696760" lon="7.843038">
        <ele>447.097798</ele>
        <time>2021-11-22T09:45:49.545Z</time>
      </trkpt>
      <trkpt lat="47.696729" lon="7.842774">
        <ele>446.430302</ele>
        <time>2021-11-22T09:45:52.792Z</time>
      </trkpt>
      <trkpt lat="47.696624" lon="7.842509">
        <ele>445.664363</ele>
        <time>2021-11-22T09:45:54.587Z</time>
      </trkpt>
      <trkpt lat="47.696358" lon="7.842125">
        <ele>444.291835</ele>
        <time>2021-11-22T09:45:57.952Z</time>
      </trkpt>
      <trkpt lat="47.695977" lon="7.841872">
        <ele>442.664637</ele>
        <time>2021-11-22T09:46:01.547Z</time>
      </trkpt>
      <trkpt lat="47.695977" lon="7.841872">
        <ele>442.664637</ele>
        <time>2021-11-22T09:46:01.558Z</time>
      </trkpt>
      <trkpt lat="47.695836" lon="7.841861">
        <ele>441.761929</ele>
        <time>2021-11-22T09:46:02.793Z</time>
      </trkpt>
      <trkpt lat="47.695664" lon="7.841847">
        <ele>440.660618</ele>
        <time>2021-11-22T09:46:04.305Z</time>
      </trkpt>
      <trkpt lat="47.695406" lon="7.841968">
        <ele>438.930896</ele>
        <time>2021-11-22T09:46:06.680Z</time>
      </trkpt>
      <trkpt lat="47.694986" lon="7.842283">
        <ele>435.922936</ele>
        <time>2021-11-22T09:46:10.928Z</time>
      </trkpt>
      <trkpt lat="47.694817" lon="7.842368">
        <ele>434.782221</ele>
        <time>2021-11-22T09:46:12.590Z</time>
      </trkpt>
      <trkpt lat="47.694705" lon="7.842411">
        <ele>434.042640</ele>
        <time>2021-11-22T09:46:13.684Z</time>
      </trkpt>
      <trkpt lat="47.694659" lon="7.842424">
        <ele>433.743271</ele>
        <time>2021-11-22T09:46:14.107Z</time>
      </trkpt>
      <trkpt lat="47.694555" lon="7.842453">
        <ele>433.066750</ele>
        <time>2021-11-22T09:46:15.108Z</time>
      </trkpt>
      <trkpt lat="47.694142" lon="7.842551">
        <ele>431.090417</ele>
        <time>2021-11-22T09:46:19.333Z</time>
      </trkpt>
      <trkpt lat="47.693948" lon="7.842595">
        <ele>430.738964</ele>
        <time>2021-11-22T09:46:21.353Z</time>
      </trkpt>
      <trkpt lat="47.693762" lon="7.842636">
        <ele>430.402217</ele>
        <time>2021-11-22T09:46:23.405Z</time>
      </trkpt>
      <trkpt lat="47.693368" lon="7.842757">
        <ele>429.681698</ele>
        <time>2021-11-22T09:46:27.913Z</time>
      </trkpt>
      <trkpt lat="47.692783" lon="7.843081">
        <ele>428.563610</ele>
        <time>2021-11-22T09:46:36.119Z</time>
      </trkpt>
      <trkpt lat="47.692614" lon="7.843085">
        <ele>428.260915</ele>
        <time>2021-11-22T09:46:38.261Z</time>
      </trkpt>
      <trkpt lat="47.692152" lon="7.842940">
        <ele>427.113697</ele>
        <time>2021-11-22T09:46:44.060Z</time>
      </trkpt>
      <trkpt lat="47.692043" lon="7.842952">
        <ele>426.836587</ele>
        <time>2021-11-22T09:46:45.242Z</time>
      </trkpt>
      <trkpt lat="47.691843" lon="7.843115">
        <ele>426.258229</ele>
        <time>2021-11-22T09:46:47.677Z</time>
      </trkpt>
      <trkpt lat="47.691684" lon="7.843273">
        <ele>425.773243</ele>
        <time>2021-11-22T09:46:49.662Z</time>
      </trkpt>
      <trkpt lat="47.691498" lon="7.843422">
        <ele>425.237481</ele>
        <time>2021-11-22T09:46:51.825Z</time>
      </trkpt>
      <trkpt lat="47.691023" lon="7.843711">
        <ele>423.936112</ele>
        <time>2021-11-22T09:46:56.954Z</time>
      </trkpt>
      <trkpt lat="47.690708" lon="7.843898">
        <ele>423.203259</ele>
        <time>2021-11-22T09:47:00.298Z</time>
      </trkpt>
      <trkpt lat="47.690386" lon="7.844071">
        <ele>422.553995</ele>
        <time>2021-11-22T09:47:03.649Z</time>
      </trkpt>
      <trkpt lat="47.689744" lon="7.844428">
        <ele>421.254174</ele>
        <time>2021-11-22T09:47:10.647Z</time>
      </trkpt>
      <trkpt lat="47.688936" lon="7.844836">
        <ele>421.694533</ele>
        <time>2021-11-22T09:47:24.156Z</time>
      </trkpt>
      <trkpt lat="47.688735" lon="7.844937">
        <ele>422.843043</ele>
        <time>2021-11-22T09:47:30.688Z</time>
      </trkpt>
      <trkpt lat="47.688573" lon="7.845023">
        <ele>423.774209</ele>
        <time>2021-11-22T09:47:37.095Z</time>
      </trkpt>
      <trkpt lat="47.688181" lon="7.845211">
        <ele>426.003827</ele>
        <time>2021-11-22T09:47:54.225Z</time>
      </trkpt>
      <trkpt lat="47.687782" lon="7.845381">
        <ele>428.250574</ele>
        <time>2021-11-22T09:48:15.751Z</time>
      </trkpt>
      <trkpt lat="47.687456" lon="7.845549">
        <ele>429.945134</ele>
        <time>2021-11-22T09:48:31.972Z</time>
      </trkpt>
      <trkpt lat="47.687014" lon="7.845747">
        <ele>430.409777</ele>
        <time>2021-11-22T09:48:50.865Z</time>
      </trkpt>
      <trkpt lat="47.686794" lon="7.845809">
        <ele>430.635149</ele>
        <time>2021-11-22T09:48:56.527Z</time>
      </trkpt>
      <trkpt lat="47.686544" lon="7.845867">
        <ele>430.889815</ele>
        <time>2021-11-22T09:49:03.330Z</time>
      </trkpt>
      <trkpt lat="47.686453" lon="7.845874">
        <ele>430.981525</ele>
        <time>2021-11-22T09:49:04.346Z</time>
      </trkpt>
      <trkpt lat="47.686371" lon="7.845864">
        <ele>431.064333</ele>
        <time>2021-11-22T09:49:06.010Z</time>
      </trkpt>
      <trkpt lat="47.686268" lon="7.845841">
        <ele>431.169163</ele>
        <time>2021-11-22T09:49:08.259Z</time>
      </trkpt>
      <trkpt lat="47.685059" lon="7.845546">
        <ele>426.568719</ele>
        <time>2021-11-22T09:49:19.495Z</time>
      </trkpt>
      <trkpt lat="47.684515" lon="7.845574">
        <ele>422.460774</ele>
        <time>2021-11-22T09:49:24.178Z</time>
      </trkpt>
      <trkpt lat="47.684467" lon="7.845581">
        <ele>422.096784</ele>
        <time>2021-11-22T09:49:24.571Z</time>
      </trkpt>
      <trkpt lat="47.684149" lon="7.845629">
        <ele>419.684530</ele>
        <time>2021-11-22T09:49:27.417Z</time>
      </trkpt>
      <trkpt lat="47.683167" lon="7.845852">
        <ele>414.707023</ele>
        <time>2021-11-22T09:49:36.507Z</time>
      </trkpt>
      <trkpt lat="47.682117" lon="7.846414">
        <ele>410.092127</ele>
        <time>2021-11-22T09:49:48.173Z</time>
      </trkpt>
      <trkpt lat="47.681855" lon="7.846489">
        <ele>409.541909</ele>
        <time>2021-11-22T09:49:51.170Z</time>
      </trkpt>
      <trkpt lat="47.681784" lon="7.846500">
        <ele>409.394703</ele>
        <time>2021-11-22T09:49:51.920Z</time>
      </trkpt>
      <trkpt lat="47.681624" lon="7.846500">
        <ele>409.064764</ele>
        <time>2021-11-22T09:49:53.651Z</time>
      </trkpt>
      <trkpt lat="47.680828" lon="7.846238">
        <ele>407.383493</ele>
        <time>2021-11-22T09:50:02.554Z</time>
      </trkpt>
      <trkpt lat="47.680343" lon="7.846102">
        <ele>406.463076</ele>
        <time>2021-11-22T09:50:07.974Z</time>
      </trkpt>
      <trkpt lat="47.679602" lon="7.845886">
        <ele>405.546037</ele>
        <time>2021-11-22T09:50:17.016Z</time>
      </trkpt>
      <trkpt lat="47.679502" lon="7.845853">
        <ele>405.421635</ele>
        <time>2021-11-22T09:50:18.309Z</time>
      </trkpt>
      <trkpt lat="47.679308" lon="7.845804">
        <ele>405.182659</ele>
        <time>2021-11-22T09:50:20.851Z</time>
      </trkpt>
      <trkpt lat="47.678498" lon="7.845590">
        <ele>404.133474</ele>
        <time>2021-11-22T09:50:30.684Z</time>
      </trkpt>
      <trkpt lat="47.678288" lon="7.845521">
        <ele>403.816566</ele>
        <time>2021-11-22T09:50:33.242Z</time>
      </trkpt>
      <trkpt lat="47.678030" lon="7.845350">
        <ele>403.400278</ele>
        <time>2021-11-22T09:50:36.593Z</time>
      </trkpt>
      <trkpt lat="47.677882" lon="7.845190">
        <ele>403.130554</ele>
        <time>2021-11-22T09:50:38.871Z</time>
      </trkpt>
      <trkpt lat="47.677760" lon="7.845024">
        <ele>402.886759</ele>
        <time>2021-11-22T09:50:40.682Z</time>
      </trkpt>
      <trkpt lat="47.677265" lon="7.844281">
        <ele>401.849785</ele>
        <time>2021-11-22T09:50:48.704Z</time>
      </trkpt>
      <trkpt lat="47.676955" lon="7.843987">
        <ele>401.200801</ele>
        <time>2021-11-22T09:50:52.723Z</time>
      </trkpt>
      <trkpt lat="47.676707" lon="7.843807">
        <ele>400.699499</ele>
        <time>2021-11-22T09:50:55.726Z</time>
      </trkpt>
      <trkpt lat="47.676217" lon="7.843482">
        <ele>399.724895</ele>
        <time>2021-11-22T09:51:01.630Z</time>
      </trkpt>
      <trkpt lat="47.675580" lon="7.843077">
        <ele>398.473085</ele>
        <time>2021-11-22T09:51:09.446Z</time>
      </trkpt>
      <trkpt lat="47.673479" lon="7.841894">
        <ele>395.264767</ele>
        <time>2021-11-22T09:51:35.575Z</time>
      </trkpt>
      <trkpt lat="47.673382" lon="7.841830">
        <ele>395.131825</ele>
        <time>2021-11-22T09:51:36.691Z</time>
      </trkpt>
      <trkpt lat="47.673263" lon="7.841752">
        <ele>394.968908</ele>
        <time>2021-11-22T09:51:38.333Z</time>
      </trkpt>
      <trkpt lat="47.671099" lon="7.840326">
        <ele>392.362216</ele>
        <time>2021-11-22T09:52:06.869Z</time>
      </trkpt>
      <trkpt lat="47.670329" lon="7.839958">
        <ele>391.737094</ele>
        <time>2021-11-22T09:52:17.168Z</time>
      </trkpt>
      <trkpt lat="47.670198" lon="7.839918">
        <ele>391.682965</ele>
        <time>2021-11-22T09:52:18.870Z</time>
      </trkpt>
      <trkpt lat="47.670095" lon="7.839887">
        <ele>391.640429</ele>
        <time>2021-11-22T09:52:20.270Z</time>
      </trkpt>
      <trkpt lat="47.669504" lon="7.839746">
        <ele>391.398162</ele>
        <time>2021-11-22T09:52:28.168Z</time>
      </trkpt>
      <trkpt lat="47.669342" lon="7.839732">
        <ele>391.332484</ele>
        <time>2021-11-22T09:52:30.400Z</time>
      </trkpt>
      <trkpt lat="47.669145" lon="7.839725">
        <ele>391.252728</ele>
        <time>2021-11-22T09:52:33.144Z</time>
      </trkpt>
      <trkpt lat="47.668951" lon="7.839749">
        <ele>391.173937</ele>
        <time>2021-11-22T09:52:36.135Z</time>
      </trkpt>
      <trkpt lat="47.668742" lon="7.839785">
        <ele>391.116048</ele>
        <time>2021-11-22T09:52:39.343Z</time>
      </trkpt>
      <trkpt lat="47.668503" lon="7.839859">
        <ele>391.094590</ele>
        <time>2021-11-22T09:52:42.819Z</time>
      </trkpt>
      <trkpt lat="47.668277" lon="7.839973">
        <ele>391.073611</ele>
        <time>2021-11-22T09:52:46.525Z</time>
      </trkpt>
      <trkpt lat="47.668017" lon="7.840123">
        <ele>391.049095</ele>
        <time>2021-11-22T09:52:50.699Z</time>
      </trkpt>
      <trkpt lat="47.667849" lon="7.840278">
        <ele>391.031711</ele>
        <time>2021-11-22T09:52:53.507Z</time>
      </trkpt>
      <trkpt lat="47.667775" lon="7.840353">
        <ele>391.023836</ele>
        <time>2021-11-22T09:52:54.887Z</time>
      </trkpt>
      <trkpt lat="47.667628" lon="7.840369">
        <ele>391.010882</ele>
        <time>2021-11-22T09:52:57.056Z</time>
      </trkpt>
      <trkpt lat="47.667564" lon="7.840358">
        <ele>391.005219</ele>
        <time>2021-11-22T09:52:57.881Z</time>
      </trkpt>
      <trkpt lat="47.667486" lon="7.840347">
        <ele>390.998332</ele>
        <time>2021-11-22T09:52:59.060Z</time>
      </trkpt>
      <trkpt lat="47.667349" lon="7.840185">
        <ele>390.982939</ele>
        <time>2021-11-22T09:53:01.622Z</time>
      </trkpt>
      <trkpt lat="47.667237" lon="7.839925">
        <ele>390.962195</ele>
        <time>2021-11-22T09:53:04.387Z</time>
      </trkpt>
      <trkpt lat="47.666858" lon="7.839350">
        <ele>390.776371</ele>
        <time>2021-11-22T09:53:11.980Z</time>
      </trkpt>
      <trkpt lat="47.666547" lon="7.839224">
        <ele>390.665815</ele>
        <time>2021-11-22T09:53:16.382Z</time>
      </trkpt>
      <trkpt lat="47.665225" lon="7.838833">
        <ele>390.446234</ele>
        <time>2021-11-22T09:53:34.374Z</time>
      </trkpt>
      <trkpt lat="47.664640" lon="7.838771">
        <ele>390.581421</ele>
        <time>2021-11-22T09:53:44.141Z</time>
      </trkpt>
      <trkpt lat="47.663946" lon="7.838559">
        <ele>390.744740</ele>
        <time>2021-11-22T09:53:56.163Z</time>
      </trkpt>
      <trkpt lat="47.663773" lon="7.838506">
        <ele>390.769687</ele>
        <time>2021-11-22T09:53:58.870Z</time>
      </trkpt>
      <trkpt lat="47.663261" lon="7.838349">
        <ele>390.804548</ele>
        <time>2021-11-22T09:54:07.500Z</time>
      </trkpt>
      <trkpt lat="47.663000" lon="7.838251">
        <ele>390.822500</ele>
        <time>2021-11-22T09:54:11.795Z</time>
      </trkpt>
      <trkpt lat="47.662658" lon="7.838144">
        <ele>390.845806</ele>
        <time>2021-11-22T09:54:17.133Z</time>
      </trkpt>
      <trkpt lat="47.662483" lon="7.838090">
        <ele>390.857724</ele>
        <time>2021-11-22T09:54:19.994Z</time>
      </trkpt>
      <trkpt lat="47.662429" lon="7.838073">
        <ele>390.861405</ele>
        <time>2021-11-22T09:54:20.658Z</time>
      </trkpt>
      <trkpt lat="47.661749" lon="7.838001">
        <ele>390.554164</ele>
        <time>2021-11-22T09:54:29.873Z</time>
      </trkpt>
      <trkpt lat="47.661684" lon="7.837994">
        <ele>390.493728</ele>
        <time>2021-11-22T09:54:30.627Z</time>
      </trkpt>
      <trkpt lat="47.661603" lon="7.837979">
        <ele>390.418030</ele>
        <time>2021-11-22T09:54:31.633Z</time>
      </trkpt>
      <trkpt lat="47.661522" lon="7.837967">
        <ele>390.342541</ele>
        <time>2021-11-22T09:54:32.658Z</time>
      </trkpt>
      <trkpt lat="47.661523" lon="7.837917">
        <ele>390.311298</ele>
        <time>2021-11-22T09:54:33.060Z</time>
      </trkpt>
      <trkpt lat="47.661469" lon="7.837798">
        <ele>390.221677</ele>
        <time>2021-11-22T09:54:34.307Z</time>
      </trkpt>
      <trkpt lat="47.661437" lon="7.837781">
        <ele>390.190159</ele>
        <time>2021-11-22T09:54:34.672Z</time>
      </trkpt>
      <trkpt lat="47.661405" lon="7.837779">
        <ele>390.160458</ele>
        <time>2021-11-22T09:54:35.074Z</time>
      </trkpt>
      <trkpt lat="47.661347" lon="7.837817">
        <ele>390.101667</ele>
        <time>2021-11-22T09:54:35.861Z</time>
      </trkpt>
      <trkpt lat="47.661326" lon="7.837853">
        <ele>390.071921</ele>
        <time>2021-11-22T09:54:36.254Z</time>
      </trkpt>
      <trkpt lat="47.661313" lon="7.837897">
        <ele>390.041911</ele>
        <time>2021-11-22T09:54:36.668Z</time>
      </trkpt>
      <trkpt lat="47.661324" lon="7.837974">
        <ele>389.992748</ele>
        <time>2021-11-22T09:54:37.324Z</time>
      </trkpt>
      <trkpt lat="47.661332" lon="7.838033">
        <ele>389.955158</ele>
        <time>2021-11-22T09:54:37.840Z</time>
      </trkpt>
      <trkpt lat="47.661355" lon="7.838066">
        <ele>389.925498</ele>
        <time>2021-11-22T09:54:38.279Z</time>
      </trkpt>
      <trkpt lat="47.661387" lon="7.838089">
        <ele>389.892528</ele>
        <time>2021-11-22T09:54:38.713Z</time>
      </trkpt>
      <trkpt lat="47.661422" lon="7.838095">
        <ele>389.859855</ele>
        <time>2021-11-22T09:54:39.074Z</time>
      </trkpt>
      <trkpt lat="47.661457" lon="7.838084">
        <ele>389.826678</ele>
        <time>2021-11-22T09:54:39.500Z</time>
      </trkpt>
      <trkpt lat="47.661487" lon="7.838057">
        <ele>389.794146</ele>
        <time>2021-11-22T09:54:39.923Z</time>
      </trkpt>
      <trkpt lat="47.661509" lon="7.838016">
        <ele>389.761404</ele>
        <time>2021-11-22T09:54:40.354Z</time>
      </trkpt>
      <trkpt lat="47.661522" lon="7.837967">
        <ele>389.728511</ele>
        <time>2021-11-22T09:54:40.786Z</time>
      </trkpt>
      <trkpt lat="47.661523" lon="7.837917">
        <ele>389.697268</ele>
        <time>2021-11-22T09:54:41.196Z</time>
      </trkpt>
      <trkpt lat="47.661469" lon="7.837798">
        <ele>389.607647</ele>
        <time>2021-11-22T09:54:42.447Z</time>
      </trkpt>
      <trkpt lat="47.661437" lon="7.837781">
        <ele>389.576129</ele>
        <time>2021-11-22T09:54:42.875Z</time>
      </trkpt>
      <trkpt lat="47.661452" lon="7.837714">
        <ele>389.532030</ele>
        <time>2021-11-22T09:54:43.415Z</time>
      </trkpt>
      <trkpt lat="47.661497" lon="7.837504">
        <ele>389.394389</ele>
        <time>2021-11-22T09:54:45.135Z</time>
      </trkpt>
      <trkpt lat="47.661824" lon="7.836259">
        <ele>388.198622</ele>
        <time>2021-11-22T09:54:55.680Z</time>
      </trkpt>
      <trkpt lat="47.661824" lon="7.836203">
        <ele>388.144376</ele>
        <time>2021-11-22T09:54:56.078Z</time>
      </trkpt>
      <trkpt lat="47.661824" lon="7.836169">
        <ele>388.111441</ele>
        <time>2021-11-22T09:54:56.345Z</time>
      </trkpt>
      <trkpt lat="47.661816" lon="7.836129">
        <ele>388.071021</ele>
        <time>2021-11-22T09:54:56.669Z</time>
      </trkpt>
      <trkpt lat="47.661745" lon="7.835965">
        <ele>387.882167</ele>
        <time>2021-11-22T09:54:58.137Z</time>
      </trkpt>
      <trkpt lat="47.661609" lon="7.835653">
        <ele>387.522160</ele>
        <time>2021-11-22T09:55:01.015Z</time>
      </trkpt>
      <trkpt lat="47.661603" lon="7.835641">
        <ele>387.507683</ele>
        <time>2021-11-22T09:55:01.111Z</time>
      </trkpt>
      <trkpt lat="47.661534" lon="7.835353">
        <ele>387.211575</ele>
        <time>2021-11-22T09:55:03.557Z</time>
      </trkpt>
      <trkpt lat="47.661488" lon="7.835209">
        <ele>387.057188</ele>
        <time>2021-11-22T09:55:04.751Z</time>
      </trkpt>
      <trkpt lat="47.661464" lon="7.835156">
        <ele>386.995322</ele>
        <time>2021-11-22T09:55:05.238Z</time>
      </trkpt>
      <trkpt lat="47.660968" lon="7.834797">
        <ele>386.312314</ele>
        <time>2021-11-22T09:55:11.729Z</time>
      </trkpt>
      <trkpt lat="47.660300" lon="7.834365">
        <ele>385.536122</ele>
        <time>2021-11-22T09:55:20.371Z</time>
      </trkpt>
      <trkpt lat="47.660216" lon="7.834301">
        <ele>385.435543</ele>
        <time>2021-11-22T09:55:21.484Z</time>
      </trkpt>
      <trkpt lat="47.659990" lon="7.834167">
        <ele>385.176298</ele>
        <time>2021-11-22T09:55:24.564Z</time>
      </trkpt>
      <trkpt lat="47.659852" lon="7.834084">
        <ele>385.017683</ele>
        <time>2021-11-22T09:55:26.460Z</time>
      </trkpt>
      <trkpt lat="47.659735" lon="7.834061">
        <ele>384.891956</ele>
        <time>2021-11-22T09:55:27.980Z</time>
      </trkpt>
      <trkpt lat="47.659714" lon="7.834064">
        <ele>384.869482</ele>
        <time>2021-11-22T09:55:28.254Z</time>
      </trkpt>
      <trkpt lat="47.659633" lon="7.834077">
        <ele>384.782690</ele>
        <time>2021-11-22T09:55:29.313Z</time>
      </trkpt>
      <trkpt lat="47.659461" lon="7.834102">
        <ele>384.625105</ele>
        <time>2021-11-22T09:55:31.578Z</time>
      </trkpt>
      <trkpt lat="47.659432" lon="7.834106">
        <ele>384.601321</ele>
        <time>2021-11-22T09:55:31.933Z</time>
      </trkpt>
      <trkpt lat="47.659242" lon="7.834106">
        <ele>384.446165</ele>
        <time>2021-11-22T09:55:34.303Z</time>
      </trkpt>
      <trkpt lat="47.658993" lon="7.834108">
        <ele>384.242825</ele>
        <time>2021-11-22T09:55:37.404Z</time>
      </trkpt>
      <trkpt lat="47.658899" lon="7.834108">
        <ele>384.166064</ele>
        <time>2021-11-22T09:55:38.597Z</time>
      </trkpt>
      <trkpt lat="47.658687" lon="7.834028">
        <ele>383.987438</ele>
        <time>2021-11-22T09:55:41.329Z</time>
      </trkpt>
      <trkpt lat="47.658531" lon="7.833970">
        <ele>383.856113</ele>
        <time>2021-11-22T09:55:43.343Z</time>
      </trkpt>
      <trkpt lat="47.658404" lon="7.833911">
        <ele>383.747444</ele>
        <time>2021-11-22T09:55:45.025Z</time>
      </trkpt>
      <trkpt lat="47.658206" lon="7.833785">
        <ele>383.571529</ele>
        <time>2021-11-22T09:55:47.714Z</time>
      </trkpt>
      <trkpt lat="47.658080" lon="7.833668">
        <ele>383.450168</ele>
        <time>2021-11-22T09:55:49.596Z</time>
      </trkpt>
      <trkpt lat="47.658041" lon="7.833588">
        <ele>383.395849</ele>
        <time>2021-11-22T09:55:50.404Z</time>
      </trkpt>
      <trkpt lat="47.657971" lon="7.833428">
        <ele>383.290909</ele>
        <time>2021-11-22T09:55:52.053Z</time>
      </trkpt>
      <trkpt lat="47.657918" lon="7.833307">
        <ele>383.200268</ele>
        <time>2021-11-22T09:55:53.225Z</time>
      </trkpt>
      <trkpt lat="47.657814" lon="7.833089">
        <ele>383.001472</ele>
        <time>2021-11-22T09:55:55.511Z</time>
      </trkpt>
      <trkpt lat="47.657731" lon="7.832916">
        <ele>382.843412</ele>
        <time>2021-11-22T09:55:57.274Z</time>
      </trkpt>
      <trkpt lat="47.657510" lon="7.832688">
        <ele>382.546084</ele>
        <time>2021-11-22T09:56:00.583Z</time>
      </trkpt>
      <trkpt lat="47.657265" lon="7.832541">
        <ele>382.254133</ele>
        <time>2021-11-22T09:56:03.734Z</time>
      </trkpt>
      <trkpt lat="47.656918" lon="7.832343">
        <ele>381.843420</ele>
        <time>2021-11-22T09:56:08.124Z</time>
      </trkpt>
      <trkpt lat="47.656858" lon="7.832309">
        <ele>381.772466</ele>
        <time>2021-11-22T09:56:08.894Z</time>
      </trkpt>
      <trkpt lat="47.656646" lon="7.832178">
        <ele>381.518766</ele>
        <time>2021-11-22T09:56:11.563Z</time>
      </trkpt>
      <trkpt lat="47.656381" lon="7.832009">
        <ele>381.186344</ele>
        <time>2021-11-22T09:56:15.047Z</time>
      </trkpt>
      <trkpt lat="47.656353" lon="7.831972">
        <ele>381.134761</ele>
        <time>2021-11-22T09:56:15.490Z</time>
      </trkpt>
      <trkpt lat="47.656204" lon="7.831766">
        <ele>380.854581</ele>
        <time>2021-11-22T09:56:17.958Z</time>
      </trkpt>
      <trkpt lat="47.656104" lon="7.831597">
        <ele>380.646074</ele>
        <time>2021-11-22T09:56:19.782Z</time>
      </trkpt>
      <trkpt lat="47.655840" lon="7.831150">
        <ele>380.095030</ele>
        <time>2021-11-22T09:56:24.593Z</time>
      </trkpt>
      <trkpt lat="47.655653" lon="7.830727">
        <ele>379.626040</ele>
        <time>2021-11-22T09:56:28.539Z</time>
      </trkpt>
      <trkpt lat="47.655554" lon="7.830341">
        <ele>379.243189</ele>
        <time>2021-11-22T09:56:31.677Z</time>
      </trkpt>
      <trkpt lat="47.655515" lon="7.830187">
        <ele>379.090688</ele>
        <time>2021-11-22T09:56:32.946Z</time>
      </trkpt>
      <trkpt lat="47.655442" lon="7.830047">
        <ele>378.926580</ele>
        <time>2021-11-22T09:56:34.298Z</time>
      </trkpt>
      <trkpt lat="47.655408" lon="7.830008">
        <ele>378.867454</ele>
        <time>2021-11-22T09:56:34.783Z</time>
      </trkpt>
      <trkpt lat="47.655374" lon="7.829968">
        <ele>378.807757</ele>
        <time>2021-11-22T09:56:35.272Z</time>
      </trkpt>
      <trkpt lat="47.655222" lon="7.829815">
        <ele>378.539528</ele>
        <time>2021-11-22T09:56:37.379Z</time>
      </trkpt>
      <trkpt lat="47.655209" lon="7.829806">
        <ele>378.518435</ele>
        <time>2021-11-22T09:56:37.530Z</time>
      </trkpt>
      <trkpt lat="47.654985" lon="7.829643">
        <ele>378.151590</ele>
        <time>2021-11-22T09:56:40.366Z</time>
      </trkpt>
      <trkpt lat="47.654883" lon="7.829540">
        <ele>377.970184</ele>
        <time>2021-11-22T09:56:41.795Z</time>
      </trkpt>
      <trkpt lat="47.654782" lon="7.829439">
        <ele>377.791106</ele>
        <time>2021-11-22T09:56:43.193Z</time>
      </trkpt>
      <trkpt lat="47.654726" lon="7.829362">
        <ele>377.678861</ele>
        <time>2021-11-22T09:56:44.047Z</time>
      </trkpt>
      <trkpt lat="47.654588" lon="7.829170">
        <ele>377.400735</ele>
        <time>2021-11-22T09:56:46.252Z</time>
      </trkpt>
      <trkpt lat="47.654444" lon="7.828940">
        <ele>377.089693</ele>
        <time>2021-11-22T09:56:48.684Z</time>
      </trkpt>
      <trkpt lat="47.654358" lon="7.828807">
        <ele>376.907071</ele>
        <time>2021-11-22T09:56:50.160Z</time>
      </trkpt>
      <trkpt lat="47.654262" lon="7.828656">
        <ele>376.701396</ele>
        <time>2021-11-22T09:56:51.796Z</time>
      </trkpt>
      <trkpt lat="47.654190" lon="7.828544">
        <ele>376.548038</ele>
        <time>2021-11-22T09:56:53.016Z</time>
      </trkpt>
      <trkpt lat="47.654075" lon="7.828375">
        <ele>376.310080</ele>
        <time>2021-11-22T09:56:54.933Z</time>
      </trkpt>
      <trkpt lat="47.654070" lon="7.828370">
        <ele>376.301215</ele>
        <time>2021-11-22T09:56:55.004Z</time>
      </trkpt>
      <trkpt lat="47.653907" lon="7.828156">
        <ele>376.018263</ele>
        <time>2021-11-22T09:56:57.518Z</time>
      </trkpt>
      <trkpt lat="47.653415" lon="7.827515">
        <ele>375.285806</ele>
        <time>2021-11-22T09:57:05.190Z</time>
      </trkpt>
      <trkpt lat="47.653183" lon="7.827196">
        <ele>374.931969</ele>
        <time>2021-11-22T09:57:08.997Z</time>
      </trkpt>
      <trkpt lat="47.652994" lon="7.826927">
        <ele>374.638996</ele>
        <time>2021-11-22T09:57:12.045Z</time>
      </trkpt>
      <trkpt lat="47.652860" lon="7.826738">
        <ele>374.432175</ele>
        <time>2021-11-22T09:57:14.334Z</time>
      </trkpt>
      <trkpt lat="47.652752" lon="7.826545">
        <ele>374.243057</ele>
        <time>2021-11-22T09:57:16.438Z</time>
      </trkpt>
      <trkpt lat="47.652288" lon="7.825645">
        <ele>373.796298</ele>
        <time>2021-11-22T09:57:26.504Z</time>
      </trkpt>
      <trkpt lat="47.652210" lon="7.825495">
        <ele>373.732682</ele>
        <time>2021-11-22T09:57:28.217Z</time>
      </trkpt>
      <trkpt lat="47.652129" lon="7.825338">
        <ele>373.666291</ele>
        <time>2021-11-22T09:57:29.809Z</time>
      </trkpt>
      <trkpt lat="47.651910" lon="7.824975">
        <ele>373.502695</ele>
        <time>2021-11-22T09:57:34.046Z</time>
      </trkpt>
      <trkpt lat="47.651867" lon="7.824904">
        <ele>373.470642</ele>
        <time>2021-11-22T09:57:35.009Z</time>
      </trkpt>
      <trkpt lat="47.651877" lon="7.824886">
        <ele>373.462809</ele>
        <time>2021-11-22T09:57:35.241Z</time>
      </trkpt>
      <trkpt lat="47.651866" lon="7.824714">
        <ele>373.404805</ele>
        <time>2021-11-22T09:57:36.738Z</time>
      </trkpt>
      <trkpt lat="47.651853" lon="7.824699">
        <ele>373.396600</ele>
        <time>2021-11-22T09:57:36.978Z</time>
      </trkpt>
      <trkpt lat="47.651839" lon="7.824688">
        <ele>373.388705</ele>
        <time>2021-11-22T09:57:37.251Z</time>
      </trkpt>
      <trkpt lat="47.651761" lon="7.824691">
        <ele>373.349819</ele>
        <time>2021-11-22T09:57:38.247Z</time>
      </trkpt>
      <trkpt lat="47.651748" lon="7.824704">
        <ele>373.342007</ele>
        <time>2021-11-22T09:57:38.474Z</time>
      </trkpt>
      <trkpt lat="47.651700" lon="7.824581">
        <ele>373.294285</ele>
        <time>2021-11-22T09:57:39.829Z</time>
      </trkpt>
      <trkpt lat="47.651424" lon="7.824011">
        <ele>373.297455</ele>
        <time>2021-11-22T09:57:46.890Z</time>
      </trkpt>
      <trkpt lat="47.651188" lon="7.823521">
        <ele>373.381803</ele>
        <time>2021-11-22T09:57:53.812Z</time>
      </trkpt>
      <trkpt lat="47.651083" lon="7.823437">
        <ele>373.406597</ele>
        <time>2021-11-22T09:57:56.471Z</time>
      </trkpt>
      <trkpt lat="47.650952" lon="7.823452">
        <ele>373.433909</ele>
        <time>2021-11-22T09:57:59.951Z</time>
      </trkpt>
      <trkpt lat="47.650610" lon="7.823497">
        <ele>373.505279</ele>
        <time>2021-11-22T09:58:07.265Z</time>
      </trkpt>
      <trkpt lat="47.650368" lon="7.823542">
        <ele>373.555977</ele>
        <time>2021-11-22T09:58:11.899Z</time>
      </trkpt>
      <trkpt lat="47.650269" lon="7.823413">
        <ele>373.583360</ele>
        <time>2021-11-22T09:58:14.838Z</time>
      </trkpt>
      <trkpt lat="47.650217" lon="7.823229">
        <ele>373.584343</ele>
        <time>2021-11-22T09:58:17.328Z</time>
      </trkpt>
      <trkpt lat="47.650206" lon="7.823190">
        <ele>373.574707</ele>
        <time>2021-11-22T09:58:17.854Z</time>
      </trkpt>
      <trkpt lat="47.650127" lon="7.822807">
        <ele>373.483419</ele>
        <time>2021-11-22T09:58:23.378Z</time>
      </trkpt>
      <trkpt lat="47.650051" lon="7.822186">
        <ele>373.339572</ele>
        <time>2021-11-22T09:58:31.664Z</time>
      </trkpt>
      <trkpt lat="47.650014" lon="7.821990">
        <ele>373.293181</ele>
        <time>2021-11-22T09:58:34.323Z</time>
      </trkpt>
      <trkpt lat="47.649921" lon="7.821701">
        <ele>373.220186</ele>
        <time>2021-11-22T09:58:38.656Z</time>
      </trkpt>
      <trkpt lat="47.649837" lon="7.821496">
        <ele>373.165501</ele>
        <time>2021-11-22T09:58:41.719Z</time>
      </trkpt>
      <trkpt lat="47.649728" lon="7.821232">
        <ele>373.094932</ele>
        <time>2021-11-22T09:58:45.713Z</time>
      </trkpt>
      <trkpt lat="47.649484" lon="7.820580">
        <ele>372.831843</ele>
        <time>2021-11-22T09:58:54.449Z</time>
      </trkpt>
      <trkpt lat="47.649426" lon="7.820396">
        <ele>372.721768</ele>
        <time>2021-11-22T09:58:56.756Z</time>
      </trkpt>
      <trkpt lat="47.649395" lon="7.820289">
        <ele>372.658656</ele>
        <time>2021-11-22T09:58:58.120Z</time>
      </trkpt>
      <trkpt lat="47.649334" lon="7.820073">
        <ele>372.531749</ele>
        <time>2021-11-22T09:59:00.772Z</time>
      </trkpt>
      <trkpt lat="47.649291" lon="7.819778">
        <ele>372.368204</ele>
        <time>2021-11-22T09:59:03.306Z</time>
      </trkpt>
      <trkpt lat="47.649190" lon="7.818874">
        <ele>371.871680</ele>
        <time>2021-11-22T09:59:11.115Z</time>
      </trkpt>
      <trkpt lat="47.649183" lon="7.818814">
        <ele>371.838685</ele>
        <time>2021-11-22T09:59:11.635Z</time>
      </trkpt>
      <trkpt lat="47.649130" lon="7.818388">
        <ele>371.603953</ele>
        <time>2021-11-22T09:59:15.386Z</time>
      </trkpt>
      <trkpt lat="47.649107" lon="7.818248">
        <ele>371.534942</ele>
        <time>2021-11-22T09:59:16.653Z</time>
      </trkpt>
      <trkpt lat="47.649066" lon="7.818016">
        <ele>371.464039</ele>
        <time>2021-11-22T09:59:18.717Z</time>
      </trkpt>
      <trkpt lat="47.649051" lon="7.817919">
        <ele>371.434619</ele>
        <time>2021-11-22T09:59:19.600Z</time>
      </trkpt>
      <trkpt lat="47.649039" lon="7.817840">
        <ele>371.410679</ele>
        <time>2021-11-22T09:59:20.409Z</time>
      </trkpt>
      <trkpt lat="47.648907" lon="7.817325">
        <ele>371.247792</ele>
        <time>2021-11-22T09:59:25.193Z</time>
      </trkpt>
      <trkpt lat="47.648734" lon="7.816774">
        <ele>371.068087</ele>
        <time>2021-11-22T09:59:30.742Z</time>
      </trkpt>
      <trkpt lat="47.648715" lon="7.816710">
        <ele>371.047412</ele>
        <time>2021-11-22T09:59:31.367Z</time>
      </trkpt>
      <trkpt lat="47.648601" lon="7.816406">
        <ele>370.944560</ele>
        <time>2021-11-22T09:59:34.635Z</time>
      </trkpt>
      <trkpt lat="47.648460" lon="7.816084">
        <ele>370.831030</ele>
        <time>2021-11-22T09:59:38.164Z</time>
      </trkpt>
      <trkpt lat="47.648299" lon="7.815806">
        <ele>370.752426</ele>
        <time>2021-11-22T09:59:41.673Z</time>
      </trkpt>
      <trkpt lat="47.648281" lon="7.815744">
        <ele>370.749986</ele>
        <time>2021-11-22T09:59:42.313Z</time>
      </trkpt>
      <trkpt lat="47.648236" lon="7.815588">
        <ele>370.743855</ele>
        <time>2021-11-22T09:59:43.913Z</time>
      </trkpt>
      <trkpt lat="47.648240" lon="7.815548">
        <ele>370.742394</ele>
        <time>2021-11-22T09:59:44.273Z</time>
      </trkpt>
      <trkpt lat="47.648238" lon="7.815508">
        <ele>370.740945</ele>
        <time>2021-11-22T09:59:44.651Z</time>
      </trkpt>
      <trkpt lat="47.648231" lon="7.815470">
        <ele>370.739522</ele>
        <time>2021-11-22T09:59:45.027Z</time>
      </trkpt>
      <trkpt lat="47.648218" lon="7.815437">
        <ele>370.738140</ele>
        <time>2021-11-22T09:59:45.395Z</time>
      </trkpt>
      <trkpt lat="47.648201" lon="7.815408">
        <ele>370.736751</ele>
        <time>2021-11-22T09:59:45.759Z</time>
      </trkpt>
      <trkpt lat="47.648181" lon="7.815385">
        <ele>370.735395</ele>
        <time>2021-11-22T09:59:46.115Z</time>
      </trkpt>
      <trkpt lat="47.648157" lon="7.815369">
        <ele>370.733984</ele>
        <time>2021-11-22T09:59:46.466Z</time>
      </trkpt>
      <trkpt lat="47.648132" lon="7.815361">
        <ele>370.732612</ele>
        <time>2021-11-22T09:59:46.802Z</time>
      </trkpt>
      <trkpt lat="47.648106" lon="7.815361">
        <ele>370.731218</ele>
        <time>2021-11-22T09:59:47.163Z</time>
      </trkpt>
      <trkpt lat="47.648081" lon="7.815369">
        <ele>370.729846</ele>
        <time>2021-11-22T09:59:47.537Z</time>
      </trkpt>
      <trkpt lat="47.648057" lon="7.815385">
        <ele>370.728435</ele>
        <time>2021-11-22T09:59:47.885Z</time>
      </trkpt>
      <trkpt lat="47.648035" lon="7.815408">
        <ele>370.726992</ele>
        <time>2021-11-22T09:59:48.259Z</time>
      </trkpt>
      <trkpt lat="47.648018" lon="7.815437">
        <ele>370.725603</ele>
        <time>2021-11-22T09:59:48.638Z</time>
      </trkpt>
      <trkpt lat="47.647998" lon="7.815509">
        <ele>370.722789</ele>
        <time>2021-11-22T09:59:49.341Z</time>
      </trkpt>
      <trkpt lat="47.647996" lon="7.815548">
        <ele>370.721376</ele>
        <time>2021-11-22T09:59:49.709Z</time>
      </trkpt>
      <trkpt lat="47.647925" lon="7.815642">
        <ele>370.716273</ele>
        <time>2021-11-22T09:59:51.090Z</time>
      </trkpt>
      <trkpt lat="47.647882" lon="7.815699">
        <ele>370.713182</ele>
        <time>2021-11-22T09:59:51.887Z</time>
      </trkpt>
      <trkpt lat="47.647785" lon="7.815818">
        <ele>370.706433</ele>
        <time>2021-11-22T09:59:53.728Z</time>
      </trkpt>
      <trkpt lat="47.647716" lon="7.815862">
        <ele>370.702405</ele>
        <time>2021-11-22T09:59:54.775Z</time>
      </trkpt>
      <trkpt lat="47.647662" lon="7.815885">
        <ele>370.699392</ele>
        <time>2021-11-22T09:59:55.599Z</time>
      </trkpt>
      <trkpt lat="47.647487" lon="7.815940">
        <ele>370.689798</ele>
        <time>2021-11-22T09:59:58.340Z</time>
      </trkpt>
      <trkpt lat="47.647306" lon="7.815996">
        <ele>370.679883</ele>
        <time>2021-11-22T10:00:01.190Z</time>
      </trkpt>
      <trkpt lat="47.646940" lon="7.816087">
        <ele>370.660794</ele>
        <time>2021-11-22T10:00:07.019Z</time>
      </trkpt>
      <trkpt lat="47.646609" lon="7.816150">
        <ele>370.757611</ele>
        <time>2021-11-22T10:00:12.256Z</time>
      </trkpt>
      <trkpt lat="47.646346" lon="7.816173">
        <ele>370.834045</ele>
        <time>2021-11-22T10:00:16.249Z</time>
      </trkpt>
      <trkpt lat="47.645949" lon="7.816228">
        <ele>370.949724</ele>
        <time>2021-11-22T10:00:22.279Z</time>
      </trkpt>
      <trkpt lat="47.645844" lon="7.816242">
        <ele>370.980310</ele>
        <time>2021-11-22T10:00:23.899Z</time>
      </trkpt>
      <trkpt lat="47.645694" lon="7.816230">
        <ele>371.023891</ele>
        <time>2021-11-22T10:00:26.302Z</time>
      </trkpt>
      <trkpt lat="47.645635" lon="7.816215">
        <ele>371.041258</ele>
        <time>2021-11-22T10:00:27.264Z</time>
      </trkpt>
      <trkpt lat="47.645589" lon="7.816192">
        <ele>371.055340</ele>
        <time>2021-11-22T10:00:28.035Z</time>
      </trkpt>
      <trkpt lat="47.645566" lon="7.816166">
        <ele>371.063728</ele>
        <time>2021-11-22T10:00:28.489Z</time>
      </trkpt>
      <trkpt lat="47.645539" lon="7.816150">
        <ele>371.072162</ele>
        <time>2021-11-22T10:00:28.948Z</time>
      </trkpt>
      <trkpt lat="47.645511" lon="7.816145">
        <ele>371.080344</ele>
        <time>2021-11-22T10:00:29.414Z</time>
      </trkpt>
      <trkpt lat="47.645482" lon="7.816151">
        <ele>371.088839</ele>
        <time>2021-11-22T10:00:29.890Z</time>
      </trkpt>
      <trkpt lat="47.645432" lon="7.816197">
        <ele>371.105906</ele>
        <time>2021-11-22T10:00:30.822Z</time>
      </trkpt>
      <trkpt lat="47.645415" lon="7.816232">
        <ele>371.114340</ele>
        <time>2021-11-22T10:00:31.292Z</time>
      </trkpt>
      <trkpt lat="47.645404" lon="7.816264">
        <ele>371.121361</ele>
        <time>2021-11-22T10:00:31.689Z</time>
      </trkpt>
      <trkpt lat="47.645327" lon="7.816290">
        <ele>371.144272</ele>
        <time>2021-11-22T10:00:32.984Z</time>
      </trkpt>
      <trkpt lat="47.645172" lon="7.816339">
        <ele>371.269701</ele>
        <time>2021-11-22T10:00:35.658Z</time>
      </trkpt>
      <trkpt lat="47.645154" lon="7.816347">
        <ele>371.327236</ele>
        <time>2021-11-22T10:00:35.971Z</time>
      </trkpt>
      <trkpt lat="47.644927" lon="7.816376">
        <ele>372.024885</ele>
        <time>2021-11-22T10:00:40.064Z</time>
      </trkpt>
      <trkpt lat="47.644797" lon="7.816399">
        <ele>372.425766</ele>
        <time>2021-11-22T10:00:42.548Z</time>
      </trkpt>
      <trkpt lat="47.644357" lon="7.816478">
        <ele>373.782878</ele>
        <time>2021-11-22T10:00:51.691Z</time>
      </trkpt>
      <trkpt lat="47.643909" lon="7.816574">
        <ele>375.168887</ele>
        <time>2021-11-22T10:01:04.239Z</time>
      </trkpt>
      <trkpt lat="47.643638" lon="7.816626">
        <ele>376.005601</ele>
        <time>2021-11-22T10:01:13.287Z</time>
      </trkpt>
      <trkpt lat="47.642952" lon="7.816765">
        <ele>380.332097</ele>
        <time>2021-11-22T10:01:42.776Z</time>
      </trkpt>
      <trkpt lat="47.642758" lon="7.816795">
        <ele>381.846902</ele>
        <time>2021-11-22T10:01:51.991Z</time>
      </trkpt>
      <trkpt lat="47.642138" lon="7.816906">
        <ele>386.696874</ele>
        <time>2021-11-22T10:02:22.400Z</time>
      </trkpt>
      <trkpt lat="47.642025" lon="7.816914">
        <ele>387.575457</ele>
        <time>2021-11-22T10:02:28.360Z</time>
      </trkpt>
      <trkpt lat="47.641916" lon="7.816921">
        <ele>388.422769</ele>
        <time>2021-11-22T10:02:33.501Z</time>
      </trkpt>
      <trkpt lat="47.641819" lon="7.816919">
        <ele>389.176166</ele>
        <time>2021-11-22T10:02:38.300Z</time>
      </trkpt>
      <trkpt lat="47.641819" lon="7.816919">
        <ele>389.176166</ele>
        <time>2021-11-22T10:02:38.374Z</time>
      </trkpt>
      <trkpt lat="47.641819" lon="7.816919">
        <ele>389.176166</ele>
        <time>2021-11-22T10:02:38.380Z</time>
      </trkpt>
      <trkpt lat="47.641687" lon="7.816751">
        <ele>390.526610</ele>
        <time>2021-11-22T10:02:47.191Z</time>
      </trkpt>
      <trkpt lat="47.641514" lon="7.816229">
        <ele>392.760362</ele>
        <time>2021-11-22T10:03:05.675Z</time>
      </trkpt>
      <trkpt lat="47.641404" lon="7.815775">
        <ele>394.582599</ele>
        <time>2021-11-22T10:03:20.033Z</time>
      </trkpt>
      <trkpt lat="47.641246" lon="7.815390">
        <ele>396.285233</ele>
        <time>2021-11-22T10:03:31.810Z</time>
      </trkpt>
      <trkpt lat="47.640965" lon="7.814694">
        <ele>399.349826</ele>
        <time>2021-11-22T10:03:49.112Z</time>
      </trkpt>
      <trkpt lat="47.640406" lon="7.811979">
        <ele>405.202040</ele>
        <time>2021-11-22T10:04:35.221Z</time>
      </trkpt>
      <trkpt lat="47.640311" lon="7.811772">
        <ele>405.752397</ele>
        <time>2021-11-22T10:04:39.362Z</time>
      </trkpt>
      <trkpt lat="47.640114" lon="7.811584">
        <ele>407.040596</ele>
        <time>2021-11-22T10:04:46.575Z</time>
      </trkpt>
      <trkpt lat="47.640058" lon="7.811561">
        <ele>407.360181</ele>
        <time>2021-11-22T10:04:48.309Z</time>
      </trkpt>
      <trkpt lat="47.639913" lon="7.811500">
        <ele>408.189126</ele>
        <time>2021-11-22T10:04:52.781Z</time>
      </trkpt>
      <trkpt lat="47.639796" lon="7.811469">
        <ele>408.842821</ele>
        <time>2021-11-22T10:04:57.366Z</time>
      </trkpt>
      <trkpt lat="47.639195" lon="7.811442">
        <ele>412.149937</ele>
        <time>2021-11-22T10:05:19.421Z</time>
      </trkpt>
      <trkpt lat="47.638925" lon="7.811482">
        <ele>413.642363</ele>
        <time>2021-11-22T10:05:31.204Z</time>
      </trkpt>
      <trkpt lat="47.638511" lon="7.811552">
        <ele>416.146571</ele>
        <time>2021-11-22T10:05:49.865Z</time>
      </trkpt>
      <trkpt lat="47.637893" lon="7.811811">
        <ele>421.240750</ele>
        <time>2021-11-22T10:06:19.158Z</time>
      </trkpt>
      <trkpt lat="47.637370" lon="7.812117">
        <ele>425.700371</ele>
        <time>2021-11-22T10:06:47.880Z</time>
      </trkpt>
      <trkpt lat="47.637056" lon="7.812257">
        <ele>428.301247</ele>
        <time>2021-11-22T10:07:03.013Z</time>
      </trkpt>
      <trkpt lat="47.636514" lon="7.812384">
        <ele>432.453697</ele>
        <time>2021-11-22T10:07:26.955Z</time>
      </trkpt>
      <trkpt lat="47.636362" lon="7.812419">
        <ele>433.590514</ele>
        <time>2021-11-22T10:07:34.119Z</time>
      </trkpt>
      <trkpt lat="47.636234" lon="7.812469">
        <ele>434.568736</ele>
        <time>2021-11-22T10:07:39.421Z</time>
      </trkpt>
      <trkpt lat="47.635984" lon="7.812598">
        <ele>436.524893</ele>
        <time>2021-11-22T10:07:50.393Z</time>
      </trkpt>
      <trkpt lat="47.635678" lon="7.812872">
        <ele>439.166203</ele>
        <time>2021-11-22T10:08:05.910Z</time>
      </trkpt>
      <trkpt lat="47.635617" lon="7.812948">
        <ele>439.754845</ele>
        <time>2021-11-22T10:08:09.176Z</time>
      </trkpt>
      <trkpt lat="47.635537" lon="7.813043">
        <ele>440.512085</ele>
        <time>2021-11-22T10:08:14.297Z</time>
      </trkpt>
      <trkpt lat="47.635461" lon="7.813093">
        <ele>441.126493</ele>
        <time>2021-11-22T10:08:18.063Z</time>
      </trkpt>
      <trkpt lat="47.635241" lon="7.813237">
        <ele>442.903559</ele>
        <time>2021-11-22T10:08:28.737Z</time>
      </trkpt>
      <trkpt lat="47.634810" lon="7.813677">
        <ele>447.063437</ele>
        <time>2021-11-22T10:08:53.947Z</time>
      </trkpt>
      <trkpt lat="47.634638" lon="7.813802">
        <ele>448.589549</ele>
        <time>2021-11-22T10:09:02.181Z</time>
      </trkpt>
      <trkpt lat="47.634603" lon="7.813838">
        <ele>448.928890</ele>
        <time>2021-11-22T10:09:05.316Z</time>
      </trkpt>
      <trkpt lat="47.634267" lon="7.814103">
        <ele>451.960953</ele>
        <time>2021-11-22T10:09:22.666Z</time>
      </trkpt>
      <trkpt lat="47.634025" lon="7.814248">
        <ele>454.040588</ele>
        <time>2021-11-22T10:09:33.435Z</time>
      </trkpt>
      <trkpt lat="47.633899" lon="7.814255">
        <ele>455.045326</ele>
        <time>2021-11-22T10:09:39.981Z</time>
      </trkpt>
      <trkpt lat="47.633759" lon="7.814194">
        <ele>456.208012</ele>
        <time>2021-11-22T10:09:45.769Z</time>
      </trkpt>
      <trkpt lat="47.633391" lon="7.813533">
        <ele>460.589222</ele>
        <time>2021-11-22T10:10:16.149Z</time>
      </trkpt>
      <trkpt lat="47.633151" lon="7.812590">
        <ele>465.653847</ele>
        <time>2021-11-22T10:10:45.937Z</time>
      </trkpt>
      <trkpt lat="47.632938" lon="7.812283">
        <ele>467.867752</ele>
        <time>2021-11-22T10:10:57.466Z</time>
      </trkpt>
      <trkpt lat="47.632845" lon="7.812246">
        <ele>468.585642</ele>
        <time>2021-11-22T10:11:03.134Z</time>
      </trkpt>
      <trkpt lat="47.632790" lon="7.812277">
        <ele>469.024303</ele>
        <time>2021-11-22T10:11:05.533Z</time>
      </trkpt>
      <trkpt lat="47.632601" lon="7.813004">
        <ele>472.906596</ele>
        <time>2021-11-22T10:11:25.978Z</time>
      </trkpt>
      <trkpt lat="47.632573" lon="7.813067">
        <ele>473.280069</ele>
        <time>2021-11-22T10:11:28.873Z</time>
      </trkpt>
      <trkpt lat="47.632515" lon="7.813155">
        <ele>473.889224</ele>
        <time>2021-11-22T10:11:33.544Z</time>
      </trkpt>
      <trkpt lat="47.632179" lon="7.813790">
        <ele>477.884659</ele>
        <time>2021-11-22T10:11:54.596Z</time>
      </trkpt>
      <trkpt lat="47.632099" lon="7.813963">
        <ele>478.922987</ele>
        <time>2021-11-22T10:12:02.180Z</time>
      </trkpt>
      <trkpt lat="47.631707" lon="7.814641">
        <ele>483.343957</ele>
        <time>2021-11-22T10:12:29.104Z</time>
      </trkpt>
      <trkpt lat="47.631677" lon="7.814692">
        <ele>483.678975</ele>
        <time>2021-11-22T10:12:32.200Z</time>
      </trkpt>
      <trkpt lat="47.631227" lon="7.815205">
        <ele>488.367116</ele>
        <time>2021-11-22T10:12:59.286Z</time>
      </trkpt>
      <trkpt lat="47.631083" lon="7.815420">
        <ele>490.068678</ele>
        <time>2021-11-22T10:13:09.484Z</time>
      </trkpt>
      <trkpt lat="47.631021" lon="7.815514">
        <ele>490.807012</ele>
        <time>2021-11-22T10:13:13.640Z</time>
      </trkpt>
      <trkpt lat="47.630743" lon="7.815987">
        <ele>494.330095</ele>
        <time>2021-11-22T10:13:34.079Z</time>
      </trkpt>
      <trkpt lat="47.630342" lon="7.816400">
        <ele>498.396031</ele>
        <time>2021-11-22T10:13:57.864Z</time>
      </trkpt>
      <trkpt lat="47.630225" lon="7.816520">
        <ele>499.379674</ele>
        <time>2021-11-22T10:14:04.392Z</time>
      </trkpt>
      <trkpt lat="47.629850" lon="7.816905">
        <ele>501.968874</ele>
        <time>2021-11-22T10:14:27.678Z</time>
      </trkpt>
      <trkpt lat="47.629046" lon="7.818276">
        <ele>508.923163</ele>
        <time>2021-11-22T10:15:10.908Z</time>
      </trkpt>
      <trkpt lat="47.628903" lon="7.818442">
        <ele>509.153514</ele>
        <time>2021-11-22T10:15:15.947Z</time>
      </trkpt>
      <trkpt lat="47.627555" lon="7.818559">
        <ele>509.073638</ele>
        <time>2021-11-22T10:15:35.157Z</time>
      </trkpt>
      <trkpt lat="47.626983" lon="7.818622">
        <ele>508.177697</ele>
        <time>2021-11-22T10:15:41.025Z</time>
      </trkpt>
      <trkpt lat="47.626700" lon="7.818602">
        <ele>507.238538</ele>
        <time>2021-11-22T10:15:43.873Z</time>
      </trkpt>
      <trkpt lat="47.626443" lon="7.818467">
        <ele>506.334817</ele>
        <time>2021-11-22T10:15:46.595Z</time>
      </trkpt>
      <trkpt lat="47.625987" lon="7.818025">
        <ele>504.529300</ele>
        <time>2021-11-22T10:15:51.949Z</time>
      </trkpt>
      <trkpt lat="47.624281" lon="7.816985">
        <ele>497.398549</ele>
        <time>2021-11-22T10:16:10.332Z</time>
      </trkpt>
      <trkpt lat="47.623648" lon="7.816926">
        <ele>494.207890</ele>
        <time>2021-11-22T10:16:16.304Z</time>
      </trkpt>
      <trkpt lat="47.623368" lon="7.816962">
        <ele>492.354813</ele>
        <time>2021-11-22T10:16:18.879Z</time>
      </trkpt>
      <trkpt lat="47.623176" lon="7.817016">
        <ele>491.066332</ele>
        <time>2021-11-22T10:16:20.614Z</time>
      </trkpt>
      <trkpt lat="47.622635" lon="7.817204">
        <ele>487.402756</ele>
        <time>2021-11-22T10:16:25.658Z</time>
      </trkpt>
      <trkpt lat="47.622464" lon="7.817228">
        <ele>486.270248</ele>
        <time>2021-11-22T10:16:27.160Z</time>
      </trkpt>
      <trkpt lat="47.622034" lon="7.817274">
        <ele>483.447894</ele>
        <time>2021-11-22T10:16:30.964Z</time>
      </trkpt>
      <trkpt lat="47.621408" lon="7.817443">
        <ele>479.407143</ele>
        <time>2021-11-22T10:16:36.762Z</time>
      </trkpt>
      <trkpt lat="47.621327" lon="7.817470">
        <ele>478.879921</ele>
        <time>2021-11-22T10:16:37.472Z</time>
      </trkpt>
      <trkpt lat="47.621261" lon="7.817493">
        <ele>478.449375</ele>
        <time>2021-11-22T10:16:38.143Z</time>
      </trkpt>
      <trkpt lat="47.621173" lon="7.817554">
        <ele>477.832533</ele>
        <time>2021-11-22T10:16:39.047Z</time>
      </trkpt>
      <trkpt lat="47.621099" lon="7.817634">
        <ele>477.251059</ele>
        <time>2021-11-22T10:16:39.859Z</time>
      </trkpt>
      <trkpt lat="47.621041" lon="7.817725">
        <ele>476.714962</ele>
        <time>2021-11-22T10:16:40.598Z</time>
      </trkpt>
      <trkpt lat="47.620588" lon="7.818608">
        <ele>472.075594</ele>
        <time>2021-11-22T10:16:47.579Z</time>
      </trkpt>
      <trkpt lat="47.620135" lon="7.818917">
        <ele>469.504687</ele>
        <time>2021-11-22T10:16:52.241Z</time>
      </trkpt>
      <trkpt lat="47.620091" lon="7.818898">
        <ele>469.268391</ele>
        <time>2021-11-22T10:16:52.647Z</time>
      </trkpt>
      <trkpt lat="47.620052" lon="7.818861">
        <ele>469.029690</ele>
        <time>2021-11-22T10:16:53.107Z</time>
      </trkpt>
      <trkpt lat="47.619983" lon="7.818525">
        <ele>467.808881</ele>
        <time>2021-11-22T10:16:55.390Z</time>
      </trkpt>
      <trkpt lat="47.619948" lon="7.818387">
        <ele>467.296414</ele>
        <time>2021-11-22T10:16:56.309Z</time>
      </trkpt>
      <trkpt lat="47.619880" lon="7.818346">
        <ele>466.917928</ele>
        <time>2021-11-22T10:16:56.988Z</time>
      </trkpt>
      <trkpt lat="47.619481" lon="7.818077">
        <ele>464.658056</ele>
        <time>2021-11-22T10:17:01.159Z</time>
      </trkpt>
      <trkpt lat="47.619455" lon="7.818047">
        <ele>464.488215</ele>
        <time>2021-11-22T10:17:01.442Z</time>
      </trkpt>
      <trkpt lat="47.619414" lon="7.817980">
        <ele>464.173695</ele>
        <time>2021-11-22T10:17:02.060Z</time>
      </trkpt>
      <trkpt lat="47.619369" lon="7.817884">
        <ele>463.767279</ele>
        <time>2021-11-22T10:17:02.787Z</time>
      </trkpt>
      <trkpt lat="47.619286" lon="7.817698">
        <ele>463.019768</ele>
        <time>2021-11-22T10:17:04.205Z</time>
      </trkpt>
      <trkpt lat="47.619222" lon="7.817606">
        <ele>462.604806</ele>
        <time>2021-11-22T10:17:05.019Z</time>
      </trkpt>
      <trkpt lat="47.619023" lon="7.817353">
        <ele>461.384468</ele>
        <time>2021-11-22T10:17:07.493Z</time>
      </trkpt>
      <trkpt lat="47.618799" lon="7.817081">
        <ele>460.036584</ele>
        <time>2021-11-22T10:17:10.277Z</time>
      </trkpt>
      <trkpt lat="47.618674" lon="7.816980">
        <ele>459.373799</ele>
        <time>2021-11-22T10:17:11.598Z</time>
      </trkpt>
      <trkpt lat="47.618026" lon="7.816656">
        <ele>456.189662</ele>
        <time>2021-11-22T10:17:18.207Z</time>
      </trkpt>
      <trkpt lat="47.617819" lon="7.816612">
        <ele>455.215935</ele>
        <time>2021-11-22T10:17:20.180Z</time>
      </trkpt>
      <trkpt lat="47.617645" lon="7.816658">
        <ele>454.361418</ele>
        <time>2021-11-22T10:17:21.899Z</time>
      </trkpt>
      <trkpt lat="47.617591" lon="7.816685">
        <ele>454.079680</ele>
        <time>2021-11-22T10:17:22.437Z</time>
      </trkpt>
      <trkpt lat="47.617466" lon="7.816748">
        <ele>453.426975</ele>
        <time>2021-11-22T10:17:23.719Z</time>
      </trkpt>
      <trkpt lat="47.617373" lon="7.816786">
        <ele>452.950051</ele>
        <time>2021-11-22T10:17:24.691Z</time>
      </trkpt>
      <trkpt lat="47.617243" lon="7.816840">
        <ele>452.282597</ele>
        <time>2021-11-22T10:17:25.952Z</time>
      </trkpt>
      <trkpt lat="47.617000" lon="7.816677">
        <ele>450.964072</ele>
        <time>2021-11-22T10:17:28.594Z</time>
      </trkpt>
      <trkpt lat="47.616707" lon="7.816445">
        <ele>449.322017</ele>
        <time>2021-11-22T10:17:31.715Z</time>
      </trkpt>
      <trkpt lat="47.616632" lon="7.816335">
        <ele>448.800579</ele>
        <time>2021-11-22T10:17:32.672Z</time>
      </trkpt>
      <trkpt lat="47.616582" lon="7.816196">
        <ele>448.275494</ele>
        <time>2021-11-22T10:17:33.629Z</time>
      </trkpt>
      <trkpt lat="47.616439" lon="7.815458">
        <ele>445.694088</ele>
        <time>2021-11-22T10:17:38.536Z</time>
      </trkpt>
      <trkpt lat="47.616368" lon="7.815112">
        <ele>444.397705</ele>
        <time>2021-11-22T10:17:40.741Z</time>
      </trkpt>
      <trkpt lat="47.616291" lon="7.814920">
        <ele>443.596920</ele>
        <time>2021-11-22T10:17:42.195Z</time>
      </trkpt>
      <trkpt lat="47.616224" lon="7.814793">
        <ele>443.018867</ele>
        <time>2021-11-22T10:17:43.146Z</time>
      </trkpt>
      <trkpt lat="47.615803" lon="7.813616">
        <ele>438.242893</ele>
        <time>2021-11-22T10:17:51.580Z</time>
      </trkpt>
      <trkpt lat="47.615645" lon="7.813447">
        <ele>437.207138</ele>
        <time>2021-11-22T10:17:53.369Z</time>
      </trkpt>
      <trkpt lat="47.615387" lon="7.813324">
        <ele>435.895493</ele>
        <time>2021-11-22T10:17:55.958Z</time>
      </trkpt>
      <trkpt lat="47.614932" lon="7.812637">
        <ele>433.099410</ele>
        <time>2021-11-22T10:18:02.193Z</time>
      </trkpt>
      <trkpt lat="47.614764" lon="7.812475">
        <ele>432.236442</ele>
        <time>2021-11-22T10:18:04.150Z</time>
      </trkpt>
      <trkpt lat="47.614051" lon="7.812407">
        <ele>429.159368</ele>
        <time>2021-11-22T10:18:11.071Z</time>
      </trkpt>
      <trkpt lat="47.613868" lon="7.812544">
        <ele>428.437327</ele>
        <time>2021-11-22T10:18:13.065Z</time>
      </trkpt>
      <trkpt lat="47.613621" lon="7.812859">
        <ele>427.566710</ele>
        <time>2021-11-22T10:18:16.287Z</time>
      </trkpt>
      <trkpt lat="47.613501" lon="7.812899">
        <ele>427.237976</ele>
        <time>2021-11-22T10:18:17.533Z</time>
      </trkpt>
      <trkpt lat="47.612810" lon="7.813060">
        <ele>425.368426</ele>
        <time>2021-11-22T10:18:24.792Z</time>
      </trkpt>
      <trkpt lat="47.612555" lon="7.813076">
        <ele>424.686252</ele>
        <time>2021-11-22T10:18:27.581Z</time>
      </trkpt>
      <trkpt lat="47.612313" lon="7.813004">
        <ele>424.026552</ele>
        <time>2021-11-22T10:18:30.402Z</time>
      </trkpt>
      <trkpt lat="47.611013" lon="7.812221">
        <ele>422.491560</ele>
        <time>2021-11-22T10:18:48.116Z</time>
      </trkpt>
      <trkpt lat="47.610772" lon="7.811907">
        <ele>422.159349</ele>
        <time>2021-11-22T10:18:52.336Z</time>
      </trkpt>
      <trkpt lat="47.610233" lon="7.810909">
        <ele>419.834295</ele>
        <time>2021-11-22T10:19:02.151Z</time>
      </trkpt>
      <trkpt lat="47.609797" lon="7.810201">
        <ele>417.908988</ele>
        <time>2021-11-22T10:19:08.752Z</time>
      </trkpt>
      <trkpt lat="47.609427" lon="7.809753">
        <ele>416.258504</ele>
        <time>2021-11-22T10:19:13.287Z</time>
      </trkpt>
      <trkpt lat="47.608602" lon="7.809088">
        <ele>410.049875</ele>
        <time>2021-11-22T10:19:21.829Z</time>
      </trkpt>
      <trkpt lat="47.607803" lon="7.808223">
        <ele>403.434614</ele>
        <time>2021-11-22T10:19:30.637Z</time>
      </trkpt>
      <trkpt lat="47.607595" lon="7.808039">
        <ele>401.739461</ele>
        <time>2021-11-22T10:19:32.773Z</time>
      </trkpt>
      <trkpt lat="47.607385" lon="7.807967">
        <ele>400.230821</ele>
        <time>2021-11-22T10:19:34.699Z</time>
      </trkpt>
      <trkpt lat="47.606698" lon="7.808066">
        <ele>395.399569</ele>
        <time>2021-11-22T10:19:40.871Z</time>
      </trkpt>
      <trkpt lat="47.605899" lon="7.808010">
        <ele>390.183134</ele>
        <time>2021-11-22T10:19:48.217Z</time>
      </trkpt>
      <trkpt lat="47.605468" lon="7.808045">
        <ele>387.645208</ele>
        <time>2021-11-22T10:19:52.254Z</time>
      </trkpt>
      <trkpt lat="47.604338" lon="7.808356">
        <ele>380.935985</ele>
        <time>2021-11-22T10:20:02.827Z</time>
      </trkpt>
      <trkpt lat="47.604147" lon="7.808404">
        <ele>379.872433</ele>
        <time>2021-11-22T10:20:04.617Z</time>
      </trkpt>
      <trkpt lat="47.603933" lon="7.808453">
        <ele>378.683637</ele>
        <time>2021-11-22T10:20:06.527Z</time>
      </trkpt>
      <trkpt lat="47.603664" lon="7.808428">
        <ele>377.203909</ele>
        <time>2021-11-22T10:20:09.026Z</time>
      </trkpt>
      <trkpt lat="47.603050" lon="7.808058">
        <ele>373.565372</ele>
        <time>2021-11-22T10:20:15.219Z</time>
      </trkpt>
      <trkpt lat="47.602603" lon="7.807841">
        <ele>371.373981</ele>
        <time>2021-11-22T10:20:19.649Z</time>
      </trkpt>
      <trkpt lat="47.602352" lon="7.807799">
        <ele>370.702678</ele>
        <time>2021-11-22T10:20:22.210Z</time>
      </trkpt>
      <trkpt lat="47.602242" lon="7.807771">
        <ele>370.406061</ele>
        <time>2021-11-22T10:20:23.314Z</time>
      </trkpt>
      <trkpt lat="47.601856" lon="7.807444">
        <ele>369.224641</ele>
        <time>2021-11-22T10:20:27.922Z</time>
      </trkpt>
      <trkpt lat="47.601434" lon="7.806809">
        <ele>367.626924</ele>
        <time>2021-11-22T10:20:34.431Z</time>
      </trkpt>
      <trkpt lat="47.600919" lon="7.805847">
        <ele>365.882789</ele>
        <time>2021-11-22T10:20:45.236Z</time>
      </trkpt>
      <trkpt lat="47.600707" lon="7.805537">
        <ele>365.327183</ele>
        <time>2021-11-22T10:20:48.672Z</time>
      </trkpt>
      <trkpt lat="47.600367" lon="7.805144">
        <ele>364.522714</ele>
        <time>2021-11-22T10:20:53.411Z</time>
      </trkpt>
      <trkpt lat="47.599983" lon="7.804755">
        <ele>363.654864</ele>
        <time>2021-11-22T10:20:58.310Z</time>
      </trkpt>
      <trkpt lat="47.598398" lon="7.802889">
        <ele>356.643741</ele>
        <time>2021-11-22T10:21:18.258Z</time>
      </trkpt>
      <trkpt lat="47.598146" lon="7.802509">
        <ele>355.682764</ele>
        <time>2021-11-22T10:21:21.915Z</time>
      </trkpt>
      <trkpt lat="47.597927" lon="7.802250">
        <ele>354.933773</ele>
        <time>2021-11-22T10:21:24.862Z</time>
      </trkpt>
      <trkpt lat="47.597625" lon="7.801971">
        <ele>353.982384</ele>
        <time>2021-11-22T10:21:28.665Z</time>
      </trkpt>
      <trkpt lat="47.596866" lon="7.801508">
        <ele>352.055214</ele>
        <time>2021-11-22T10:21:37.400Z</time>
      </trkpt>
      <trkpt lat="47.596631" lon="7.801307">
        <ele>351.666889</ele>
        <time>2021-11-22T10:21:40.657Z</time>
      </trkpt>
      <trkpt lat="47.596154" lon="7.800842">
        <ele>350.849783</ele>
        <time>2021-11-22T10:21:47.629Z</time>
      </trkpt>
      <trkpt lat="47.596083" lon="7.800764">
        <ele>350.723302</ele>
        <time>2021-11-22T10:21:48.644Z</time>
      </trkpt>
      <trkpt lat="47.595950" lon="7.800596">
        <ele>350.473218</ele>
        <time>2021-11-22T10:21:50.727Z</time>
      </trkpt>
      <trkpt lat="47.595757" lon="7.800208">
        <ele>350.007822</ele>
        <time>2021-11-22T10:21:54.587Z</time>
      </trkpt>
      <trkpt lat="47.595466" lon="7.799497">
        <ele>349.829563</ele>
        <time>2021-11-22T10:22:01.063Z</time>
      </trkpt>
      <trkpt lat="47.595383" lon="7.799322">
        <ele>349.844072</ele>
        <time>2021-11-22T10:22:02.802Z</time>
      </trkpt>
      <trkpt lat="47.595344" lon="7.799256">
        <ele>349.850023</ele>
        <time>2021-11-22T10:22:03.484Z</time>
      </trkpt>
      <trkpt lat="47.595268" lon="7.799129">
        <ele>349.861538</ele>
        <time>2021-11-22T10:22:04.835Z</time>
      </trkpt>
      <trkpt lat="47.594957" lon="7.798605">
        <ele>349.908877</ele>
        <time>2021-11-22T10:22:10.941Z</time>
      </trkpt>
      <trkpt lat="47.594663" lon="7.797229">
        <ele>351.430029</ele>
        <time>2021-11-22T10:22:33.663Z</time>
      </trkpt>
      <trkpt lat="47.594601" lon="7.796746">
        <ele>352.734918</ele>
        <time>2021-11-22T10:22:43.135Z</time>
      </trkpt>
      <trkpt lat="47.594060" lon="7.796856">
        <ele>354.883940</ele>
        <time>2021-11-22T10:23:00.821Z</time>
      </trkpt>
      <trkpt lat="47.593608" lon="7.796793">
        <ele>356.670623</ele>
        <time>2021-11-22T10:23:16.303Z</time>
      </trkpt>
      <trkpt lat="47.592802" lon="7.796368">
        <ele>360.224000</ele>
        <time>2021-11-22T10:23:48.894Z</time>
      </trkpt>
      <trkpt lat="47.592429" lon="7.796406">
        <ele>361.787341</ele>
        <time>2021-11-22T10:24:01.043Z</time>
      </trkpt>
      <trkpt lat="47.592114" lon="7.796545">
        <ele>363.161570</ele>
        <time>2021-11-22T10:24:10.151Z</time>
      </trkpt>
      <trkpt lat="47.591728" lon="7.796915">
        <ele>364.584705</ele>
        <time>2021-11-22T10:24:21.623Z</time>
      </trkpt>
      <trkpt lat="47.591349" lon="7.797193">
        <ele>364.639209</ele>
        <time>2021-11-22T10:24:30.210Z</time>
      </trkpt>
      <trkpt lat="47.590924" lon="7.797504">
        <ele>364.700300</ele>
        <time>2021-11-22T10:24:37.458Z</time>
      </trkpt>
      <trkpt lat="47.589924" lon="7.798072">
        <ele>364.219354</ele>
        <time>2021-11-22T10:24:50.275Z</time>
      </trkpt>
      <trkpt lat="47.589911" lon="7.798082">
        <ele>364.190204</ele>
        <time>2021-11-22T10:24:50.408Z</time>
      </trkpt>
      <trkpt lat="47.589692" lon="7.798248">
        <ele>363.700658</ele>
        <time>2021-11-22T10:24:53.108Z</time>
      </trkpt>
      <trkpt lat="47.589486" lon="7.798387">
        <ele>363.250182</ele>
        <time>2021-11-22T10:24:55.589Z</time>
      </trkpt>
      <trkpt lat="47.589272" lon="7.798569">
        <ele>362.759150</ele>
        <time>2021-11-22T10:24:58.265Z</time>
      </trkpt>
      <trkpt lat="47.589153" lon="7.798651">
        <ele>362.497968</ele>
        <time>2021-11-22T10:24:59.793Z</time>
      </trkpt>
      <trkpt lat="47.589010" lon="7.798691">
        <ele>362.208324</ele>
        <time>2021-11-22T10:25:01.349Z</time>
      </trkpt>
      <trkpt lat="47.588797" lon="7.798670">
        <ele>361.783440</ele>
        <time>2021-11-22T10:25:03.673Z</time>
      </trkpt>
      <trkpt lat="47.588390" lon="7.798556">
        <ele>360.810516</ele>
        <time>2021-11-22T10:25:07.992Z</time>
      </trkpt>
      <trkpt lat="47.588177" lon="7.798477">
        <ele>360.125493</ele>
        <time>2021-11-22T10:25:10.331Z</time>
      </trkpt>
      <trkpt lat="47.587698" lon="7.798426">
        <ele>358.627194</ele>
        <time>2021-11-22T10:25:15.334Z</time>
      </trkpt>
      <trkpt lat="47.587388" lon="7.798430">
        <ele>357.659977</ele>
        <time>2021-11-22T10:25:18.450Z</time>
      </trkpt>
      <trkpt lat="47.587282" lon="7.798453">
        <ele>357.325741</ele>
        <time>2021-11-22T10:25:19.487Z</time>
      </trkpt>
      <trkpt lat="47.586543" lon="7.798436">
        <ele>354.883780</ele>
        <time>2021-11-22T10:25:26.822Z</time>
      </trkpt>
      <trkpt lat="47.586281" lon="7.798381">
        <ele>353.867588</ele>
        <time>2021-11-22T10:25:29.515Z</time>
      </trkpt>
      <trkpt lat="47.585911" lon="7.798303">
        <ele>352.432388</ele>
        <time>2021-11-22T10:25:33.139Z</time>
      </trkpt>
      <trkpt lat="47.585534" lon="7.798199">
        <ele>350.959750</ele>
        <time>2021-11-22T10:25:36.897Z</time>
      </trkpt>
      <trkpt lat="47.585233" lon="7.798047">
        <ele>349.738610</ele>
        <time>2021-11-22T10:25:40.005Z</time>
      </trkpt>
      <trkpt lat="47.584729" lon="7.797820">
        <ele>347.766676</ele>
        <time>2021-11-22T10:25:45.198Z</time>
      </trkpt>
      <trkpt lat="47.584517" lon="7.797802">
        <ele>346.993310</ele>
        <time>2021-11-22T10:25:47.227Z</time>
      </trkpt>
      <trkpt lat="47.583508" lon="7.797910">
        <ele>343.308982</ele>
        <time>2021-11-22T10:25:57.462Z</time>
      </trkpt>
      <trkpt lat="47.582752" lon="7.797833">
        <ele>339.898573</ele>
        <time>2021-11-22T10:26:04.895Z</time>
      </trkpt>
      <trkpt lat="47.582160" lon="7.797772">
        <ele>336.859605</ele>
        <time>2021-11-22T10:26:10.578Z</time>
      </trkpt>
      <trkpt lat="47.581869" lon="7.797750">
        <ele>335.367447</ele>
        <time>2021-11-22T10:26:13.309Z</time>
      </trkpt>
      <trkpt lat="47.581379" lon="7.797757">
        <ele>332.798879</ele>
        <time>2021-11-22T10:26:17.761Z</time>
      </trkpt>
      <trkpt lat="47.580966" lon="7.797737">
        <ele>329.159858</ele>
        <time>2021-11-22T10:26:21.442Z</time>
      </trkpt>
      <trkpt lat="47.580444" lon="7.797575">
        <ele>324.463218</ele>
        <time>2021-11-22T10:26:26.105Z</time>
      </trkpt>
      <trkpt lat="47.580222" lon="7.797578">
        <ele>322.508096</ele>
        <time>2021-11-22T10:26:28.015Z</time>
      </trkpt>
      <trkpt lat="47.579900" lon="7.797779">
        <ele>319.431267</ele>
        <time>2021-11-22T10:26:31.033Z</time>
      </trkpt>
      <trkpt lat="47.579284" lon="7.798330">
        <ele>313.212115</ele>
        <time>2021-11-22T10:26:37.233Z</time>
      </trkpt>
      <trkpt lat="47.579085" lon="7.798411">
        <ele>311.447701</ele>
        <time>2021-11-22T10:26:39.008Z</time>
      </trkpt>
      <trkpt lat="47.578882" lon="7.798252">
        <ele>309.484687</ele>
        <time>2021-11-22T10:26:41.001Z</time>
      </trkpt>
      <trkpt lat="47.578679" lon="7.797723">
        <ele>305.974500</ele>
        <time>2021-11-22T10:26:44.613Z</time>
      </trkpt>
      <trkpt lat="47.578554" lon="7.797534">
        <ele>304.447906</ele>
        <time>2021-11-22T10:26:46.203Z</time>
      </trkpt>
      <trkpt lat="47.577944" lon="7.797172">
        <ele>300.238682</ele>
        <time>2021-11-22T10:26:52.135Z</time>
      </trkpt>
      <trkpt lat="47.577686" lon="7.796814">
        <ele>298.688853</ele>
        <time>2021-11-22T10:26:55.430Z</time>
      </trkpt>
      <trkpt lat="47.577609" lon="7.796684">
        <ele>298.177043</ele>
        <time>2021-11-22T10:26:56.570Z</time>
      </trkpt>
      <trkpt lat="47.577554" lon="7.796595">
        <ele>297.819960</ele>
        <time>2021-11-22T10:26:57.370Z</time>
      </trkpt>
      <trkpt lat="47.577537" lon="7.796525">
        <ele>297.599857</ele>
        <time>2021-11-22T10:26:57.848Z</time>
      </trkpt>
      <trkpt lat="47.577514" lon="7.796460">
        <ele>297.382708</ele>
        <time>2021-11-22T10:26:58.320Z</time>
      </trkpt>
      <trkpt lat="47.577487" lon="7.796404">
        <ele>297.179070</ele>
        <time>2021-11-22T10:26:58.750Z</time>
      </trkpt>
      <trkpt lat="47.577336" lon="7.796248">
        <ele>296.371893</ele>
        <time>2021-11-22T10:27:00.618Z</time>
      </trkpt>
      <trkpt lat="47.577291" lon="7.796229">
        <ele>296.166694</ele>
        <time>2021-11-22T10:27:01.080Z</time>
      </trkpt>
      <trkpt lat="47.577222" lon="7.796219">
        <ele>295.862648</ele>
        <time>2021-11-22T10:27:01.754Z</time>
      </trkpt>
      <trkpt lat="47.577124" lon="7.796239">
        <ele>295.428810</ele>
        <time>2021-11-22T10:27:02.719Z</time>
      </trkpt>
      <trkpt lat="47.576960" lon="7.796396">
        <ele>294.572634</ele>
        <time>2021-11-22T10:27:04.869Z</time>
      </trkpt>
      <trkpt lat="47.576906" lon="7.796519">
        <ele>294.138465</ele>
        <time>2021-11-22T10:27:05.859Z</time>
      </trkpt>
      <trkpt lat="47.576884" lon="7.796617">
        <ele>293.833698</ele>
        <time>2021-11-22T10:27:06.606Z</time>
      </trkpt>
      <trkpt lat="47.576845" lon="7.796669">
        <ele>293.757904</ele>
        <time>2021-11-22T10:27:07.209Z</time>
      </trkpt>
      <trkpt lat="47.576565" lon="7.796902">
        <ele>293.293934</ele>
        <time>2021-11-22T10:27:10.918Z</time>
      </trkpt>
      <trkpt lat="47.576087" lon="7.797118">
        <ele>292.571877</ele>
        <time>2021-11-22T10:27:16.778Z</time>
      </trkpt>
      <trkpt lat="47.575978" lon="7.797131">
        <ele>292.413871</ele>
        <time>2021-11-22T10:27:17.954Z</time>
      </trkpt>
      <trkpt lat="47.575955" lon="7.797114">
        <ele>292.376735</ele>
        <time>2021-11-22T10:27:18.232Z</time>
      </trkpt>
      <trkpt lat="47.575928" lon="7.797105">
        <ele>292.336748</ele>
        <time>2021-11-22T10:27:18.545Z</time>
      </trkpt>
      <trkpt lat="47.575913" lon="7.797101">
        <ele>292.314726</ele>
        <time>2021-11-22T10:27:18.732Z</time>
      </trkpt>
      <trkpt lat="47.575798" lon="7.797141">
        <ele>292.144046</ele>
        <time>2021-11-22T10:27:20.107Z</time>
      </trkpt>
      <trkpt lat="47.575766" lon="7.797180">
        <ele>292.084186</ele>
        <time>2021-11-22T10:27:20.674Z</time>
      </trkpt>
      <trkpt lat="47.575752" lon="7.797206">
        <ele>292.051759</ele>
        <time>2021-11-22T10:27:20.966Z</time>
      </trkpt>
      <trkpt lat="47.575736" lon="7.797256">
        <ele>291.997815</ele>
        <time>2021-11-22T10:27:21.427Z</time>
      </trkpt>
      <trkpt lat="47.575731" lon="7.797285">
        <ele>291.968638</ele>
        <time>2021-11-22T10:27:21.649Z</time>
      </trkpt>
      <trkpt lat="47.575703" lon="7.797314">
        <ele>291.919282</ele>
        <time>2021-11-22T10:27:22.028Z</time>
      </trkpt>
      <trkpt lat="47.575578" lon="7.797427">
        <ele>291.707728</ele>
        <time>2021-11-22T10:27:23.759Z</time>
      </trkpt>
      <trkpt lat="47.575499" lon="7.797497">
        <ele>291.574739</ele>
        <time>2021-11-22T10:27:24.912Z</time>
      </trkpt>
      <trkpt lat="47.575391" lon="7.797551">
        <ele>291.410048</ele>
        <time>2021-11-22T10:27:26.313Z</time>
      </trkpt>
      <trkpt lat="47.575240" lon="7.797626">
        <ele>291.213975</ele>
        <time>2021-11-22T10:27:28.376Z</time>
      </trkpt>
      <trkpt lat="47.574910" lon="7.797787">
        <ele>291.021308</ele>
        <time>2021-11-22T10:27:32.941Z</time>
      </trkpt>
      <trkpt lat="47.574296" lon="7.798050">
        <ele>290.666866</ele>
        <time>2021-11-22T10:27:41.736Z</time>
      </trkpt>
      <trkpt lat="47.573813" lon="7.798212">
        <ele>290.392235</ele>
        <time>2021-11-22T10:27:48.220Z</time>
      </trkpt>
      <trkpt lat="47.573410" lon="7.798344">
        <ele>290.141980</ele>
        <time>2021-11-22T10:27:53.599Z</time>
      </trkpt>
      <trkpt lat="47.573055" lon="7.798459">
        <ele>289.882532</ele>
        <time>2021-11-22T10:27:58.271Z</time>
      </trkpt>
      <trkpt lat="47.572628" lon="7.798599">
        <ele>289.570290</ele>
        <time>2021-11-22T10:28:03.927Z</time>
      </trkpt>
      <trkpt lat="47.572527" lon="7.798632">
        <ele>289.496446</ele>
        <time>2021-11-22T10:28:05.236Z</time>
      </trkpt>
      <trkpt lat="47.572308" lon="7.798703">
        <ele>289.336387</ele>
        <time>2021-11-22T10:28:08.184Z</time>
      </trkpt>
      <trkpt lat="47.571985" lon="7.798809">
        <ele>289.100184</ele>
        <time>2021-11-22T10:28:12.425Z</time>
      </trkpt>
      <trkpt lat="47.571921" lon="7.798830">
        <ele>289.053383</ele>
        <time>2021-11-22T10:28:13.204Z</time>
      </trkpt>
      <trkpt lat="47.571202" lon="7.799089">
        <ele>288.430651</ele>
        <time>2021-11-22T10:28:22.044Z</time>
      </trkpt>
      <trkpt lat="47.569912" lon="7.799564">
        <ele>287.325385</ele>
        <time>2021-11-22T10:28:38.939Z</time>
      </trkpt>
      <trkpt lat="47.569327" lon="7.799762">
        <ele>287.045927</ele>
        <time>2021-11-22T10:28:46.362Z</time>
      </trkpt>
      <trkpt lat="47.569185" lon="7.799810">
        <ele>286.978097</ele>
        <time>2021-11-22T10:28:48.433Z</time>
      </trkpt>
      <trkpt lat="47.568449" lon="7.800039">
        <ele>286.627858</ele>
        <time>2021-11-22T10:28:58.992Z</time>
      </trkpt>
      <trkpt lat="47.568384" lon="7.800059">
        <ele>286.596941</ele>
        <time>2021-11-22T10:28:59.889Z</time>
      </trkpt>
      <trkpt lat="47.568315" lon="7.800179">
        <ele>286.547190</ele>
        <time>2021-11-22T10:29:01.349Z</time>
      </trkpt>
      <trkpt lat="47.568185" lon="7.800003">
        <ele>286.450199</ele>
        <time>2021-11-22T10:29:04.278Z</time>
      </trkpt>
      <trkpt lat="47.567987" lon="7.799745">
        <ele>286.304969</ele>
        <time>2021-11-22T10:29:07.903Z</time>
      </trkpt>
      <trkpt lat="47.567788" lon="7.799488">
        <ele>286.159570</ele>
        <time>2021-11-22T10:29:11.401Z</time>
      </trkpt>
      <trkpt lat="47.567386" lon="7.798946">
        <ele>285.860203</ele>
        <time>2021-11-22T10:29:18.440Z</time>
      </trkpt>
      <trkpt lat="47.567213" lon="7.798707">
        <ele>285.729923</ele>
        <time>2021-11-22T10:29:21.434Z</time>
      </trkpt>
      <trkpt lat="47.567200" lon="7.798690">
        <ele>285.720373</ele>
        <time>2021-11-22T10:29:21.652Z</time>
      </trkpt>
      <trkpt lat="47.567008" lon="7.798425">
        <ele>285.575847</ele>
        <time>2021-11-22T10:29:25.394Z</time>
      </trkpt>
      <trkpt lat="47.566478" lon="7.797694">
        <ele>283.545085</ele>
        <time>2021-11-22T10:29:33.984Z</time>
      </trkpt>
      <trkpt lat="47.566454" lon="7.797771">
        <ele>283.378422</ele>
        <time>2021-11-22T10:29:34.609Z</time>
      </trkpt>
      <trkpt lat="47.566114" lon="7.798822">
        <ele>281.088180</ele>
        <time>2021-11-22T10:29:42.367Z</time>
      </trkpt>
      <trkpt lat="47.565704" lon="7.800090">
        <ele>277.203512</ele>
        <time>2021-11-22T10:29:51.282Z</time>
      </trkpt>
      <trkpt lat="47.565627" lon="7.800333">
        <ele>276.379296</ele>
        <time>2021-11-22T10:29:53.722Z</time>
      </trkpt>
      <trkpt lat="47.565490" lon="7.800752">
        <ele>274.949826</ele>
        <time>2021-11-22T10:29:58.030Z</time>
      </trkpt>
      <trkpt lat="47.565485" lon="7.800897">
        <ele>274.504073</ele>
        <time>2021-11-22T10:29:59.298Z</time>
      </trkpt>
      <trkpt lat="47.565517" lon="7.801041">
        <ele>274.038611</ele>
        <time>2021-11-22T10:30:00.288Z</time>
      </trkpt>
      <trkpt lat="47.566334" lon="7.802192">
        <ele>270.861295</ele>
        <time>2021-11-22T10:30:11.509Z</time>
      </trkpt>
      <trkpt lat="47.566532" lon="7.802465">
        <ele>270.375175</ele>
        <time>2021-11-22T10:30:14.581Z</time>
      </trkpt>
      <trkpt lat="47.567287" lon="7.803523">
        <ele>268.914427</ele>
        <time>2021-11-22T10:30:29.187Z</time>
      </trkpt>
      <trkpt lat="47.567503" lon="7.803912">
        <ele>268.932594</ele>
        <time>2021-11-22T10:30:34.154Z</time>
      </trkpt>
      <trkpt lat="47.567677" lon="7.804308">
        <ele>268.949634</ele>
        <time>2021-11-22T10:30:38.879Z</time>
      </trkpt>
      <trkpt lat="47.567792" lon="7.804628">
        <ele>268.962708</ele>
        <time>2021-11-22T10:30:42.523Z</time>
      </trkpt>
      <trkpt lat="47.568803" lon="7.807323">
        <ele>269.686175</ele>
        <time>2021-11-22T10:31:15.521Z</time>
      </trkpt>
      <trkpt lat="47.568962" lon="7.807589">
        <ele>269.803468</ele>
        <time>2021-11-22T10:31:19.506Z</time>
      </trkpt>
      <trkpt lat="47.570185" lon="7.808855">
        <ele>272.634996</ele>
        <time>2021-11-22T10:31:50.102Z</time>
      </trkpt>
      <trkpt lat="47.570299" lon="7.808969">
        <ele>272.918288</ele>
        <time>2021-11-22T10:31:53.604Z</time>
      </trkpt>
      <trkpt lat="47.570259" lon="7.809051">
        <ele>273.058924</ele>
        <time>2021-11-22T10:31:55.194Z</time>
      </trkpt>
      <trkpt lat="47.570230" lon="7.809116">
        <ele>273.167230</ele>
        <time>2021-11-22T10:31:56.631Z</time>
      </trkpt>
      <trkpt lat="47.568896" lon="7.812282">
        <ele>283.813877</ele>
        <time>2021-11-22T10:33:21.134Z</time>
      </trkpt>
      <trkpt lat="47.568525" lon="7.813167">
        <ele>286.742028</ele>
        <time>2021-11-22T10:33:43.759Z</time>
      </trkpt>
      <trkpt lat="47.568430" lon="7.813371">
        <ele>287.438644</ele>
        <time>2021-11-22T10:33:49.240Z</time>
      </trkpt>
      <trkpt lat="47.568248" lon="7.813814">
        <ele>288.896285</ele>
        <time>2021-11-22T10:33:59.658Z</time>
      </trkpt>
      <trkpt lat="47.568572" lon="7.814114">
        <ele>289.916059</ele>
        <time>2021-11-22T10:34:10.456Z</time>
      </trkpt>
      <trkpt lat="47.568480" lon="7.814364">
        <ele>290.374370</ele>
        <time>2021-11-22T10:34:14.886Z</time>
      </trkpt>
      <trkpt lat="47.568280" lon="7.815138">
        <ele>291.708293</ele>
        <time>2021-11-22T10:34:29.736Z</time>
      </trkpt>
      <trkpt lat="47.568245" lon="7.815273">
        <ele>291.941053</ele>
        <time>2021-11-22T10:34:31.510Z</time>
      </trkpt>
      <trkpt lat="47.568245" lon="7.815273">
        <ele>291.941053</ele>
        <time>2021-11-22T10:34:31.515Z</time>
      </trkpt>
      <trkpt lat="47.568209" lon="7.815459">
        <ele>292.252480</ele>
        <time>2021-11-22T10:34:35.107Z</time>
      </trkpt>
      <trkpt lat="47.567988" lon="7.816752">
        <ele>293.586648</ele>
        <time>2021-11-22T10:34:52.693Z</time>
      </trkpt>
      <trkpt lat="47.568049" lon="7.817619">
        <ele>293.800412</ele>
        <time>2021-11-22T10:35:03.495Z</time>
      </trkpt>
      <trkpt lat="47.568146" lon="7.818228">
        <ele>293.953860</ele>
        <time>2021-11-22T10:35:09.549Z</time>
      </trkpt>
      <trkpt lat="47.568272" lon="7.818798">
        <ele>294.084205</ele>
        <time>2021-11-22T10:35:40.625Z</time>
      </trkpt>
      <trkpt lat="47.568311" lon="7.819210">
        <ele>293.929097</ele>
        <time>2021-11-22T10:36:02.158Z</time>
      </trkpt>
      <trkpt lat="47.568417" lon="7.819772">
        <ele>293.711539</ele>
        <time>2021-11-22T10:36:32.297Z</time>
      </trkpt>
      <trkpt lat="47.568443" lon="7.820342">
        <ele>293.498546</ele>
        <time>2021-11-22T10:37:01.741Z</time>
      </trkpt>
      <trkpt lat="47.568400" lon="7.820924">
        <ele>293.280267</ele>
        <time>2021-11-22T10:37:31.982Z</time>
      </trkpt>
      <trkpt lat="47.568380" lon="7.822935">
        <ele>293.320210</ele>
        <time>2021-11-22T10:37:52.377Z</time>
      </trkpt>
      <trkpt lat="47.568448" lon="7.824552">
        <ele>293.544357</ele>
        <time>2021-11-22T10:38:10.988Z</time>
      </trkpt>
      <trkpt lat="47.568503" lon="7.825849">
        <ele>293.707646</ele>
        <time>2021-11-22T10:38:24.294Z</time>
      </trkpt>
      <trkpt lat="47.568555" lon="7.826544">
        <ele>293.795508</ele>
        <time>2021-11-22T10:38:31.330Z</time>
      </trkpt>
      <trkpt lat="47.568659" lon="7.828544">
        <ele>294.077626</ele>
        <time>2021-11-22T10:38:51.813Z</time>
      </trkpt>
      <trkpt lat="47.568703" lon="7.829421">
        <ele>294.221467</ele>
        <time>2021-11-22T10:39:01.551Z</time>
      </trkpt>
      <trkpt lat="47.568703" lon="7.829453">
        <ele>294.242868</ele>
        <time>2021-11-22T10:39:01.902Z</time>
      </trkpt>
      <trkpt lat="47.568745" lon="7.830356">
        <ele>294.848217</ele>
        <time>2021-11-22T10:39:12.758Z</time>
      </trkpt>
      <trkpt lat="47.568775" lon="7.830924">
        <ele>295.229250</ele>
        <time>2021-11-22T10:39:19.922Z</time>
      </trkpt>
      <trkpt lat="47.568760" lon="7.831139">
        <ele>295.373806</ele>
        <time>2021-11-22T10:39:22.705Z</time>
      </trkpt>
      <trkpt lat="47.568694" lon="7.831293">
        <ele>295.495821</ele>
        <time>2021-11-22T10:39:25.155Z</time>
      </trkpt>
      <trkpt lat="47.568550" lon="7.831407">
        <ele>295.657644</ele>
        <time>2021-11-22T10:39:28.495Z</time>
      </trkpt>
      <trkpt lat="47.567257" lon="7.831926">
        <ele>297.183817</ele>
        <time>2021-11-22T10:39:56.070Z</time>
      </trkpt>
      <trkpt lat="47.566920" lon="7.832056">
        <ele>297.597110</ele>
        <time>2021-11-22T10:40:02.798Z</time>
      </trkpt>
      <trkpt lat="47.566755" lon="7.832115">
        <ele>297.798558</ele>
        <time>2021-11-22T10:40:05.898Z</time>
      </trkpt>
      <trkpt lat="47.566477" lon="7.832241">
        <ele>298.127391</ele>
        <time>2021-11-22T10:40:11.210Z</time>
      </trkpt>
      <trkpt lat="47.566366" lon="7.832333">
        <ele>298.192416</ele>
        <time>2021-11-22T10:40:13.476Z</time>
      </trkpt>
      <trkpt lat="47.566744" lon="7.833235">
        <ele>298.558725</ele>
        <time>2021-11-22T10:40:25.599Z</time>
      </trkpt>
      <trkpt lat="47.567179" lon="7.834275">
        <ele>298.980850</ele>
        <time>2021-11-22T10:40:38.889Z</time>
      </trkpt>
      <trkpt lat="47.567558" lon="7.835042">
        <ele>299.382986</ele>
        <time>2021-11-22T10:40:49.958Z</time>
      </trkpt>
      <trkpt lat="47.567674" lon="7.835182">
        <ele>299.480172</ele>
        <time>2021-11-22T10:40:52.451Z</time>
      </trkpt>
      <trkpt lat="47.567566" lon="7.835567">
        <ele>299.662937</ele>
        <time>2021-11-22T10:40:57.308Z</time>
      </trkpt>
      <trkpt lat="47.567562" lon="7.835760">
        <ele>299.747576</ele>
        <time>2021-11-22T10:40:59.605Z</time>
      </trkpt>
      <trkpt lat="47.567583" lon="7.836155">
        <ele>299.921257</ele>
        <time>2021-11-22T10:41:04.263Z</time>
      </trkpt>
      <trkpt lat="47.567647" lon="7.836576">
        <ele>300.110423</ele>
        <time>2021-11-22T10:41:09.463Z</time>
      </trkpt>
      <trkpt lat="47.567670" lon="7.836721">
        <ele>300.175715</ele>
        <time>2021-11-22T10:41:11.267Z</time>
      </trkpt>
      <trkpt lat="47.567822" lon="7.837479">
        <ele>300.509316</ele>
        <time>2021-11-22T10:41:21.093Z</time>
      </trkpt>
      <trkpt lat="47.567944" lon="7.838073">
        <ele>300.770376</ele>
        <time>2021-11-22T10:41:28.744Z</time>
      </trkpt>
      <trkpt lat="47.567961" lon="7.838248">
        <ele>300.844712</ele>
        <time>2021-11-22T10:41:30.747Z</time>
      </trkpt>
      <trkpt lat="47.567936" lon="7.838380">
        <ele>300.902356</ele>
        <time>2021-11-22T10:41:32.417Z</time>
      </trkpt>
      <trkpt lat="47.567846" lon="7.838609">
        <ele>301.013781</ele>
        <time>2021-11-22T10:41:35.143Z</time>
      </trkpt>
      <trkpt lat="47.567823" lon="7.838648">
        <ele>301.035559</ele>
        <time>2021-11-22T10:41:35.735Z</time>
      </trkpt>
      <trkpt lat="47.567634" lon="7.839037">
        <ele>301.237105</ele>
        <time>2021-11-22T10:41:40.782Z</time>
      </trkpt>
      <trkpt lat="47.567626" lon="7.839064">
        <ele>301.249504</ele>
        <time>2021-11-22T10:41:41.160Z</time>
      </trkpt>
      <trkpt lat="47.567564" lon="7.839283">
        <ele>301.353620</ele>
        <time>2021-11-22T10:41:43.824Z</time>
      </trkpt>
      <trkpt lat="47.567530" lon="7.839459">
        <ele>301.443570</ele>
        <time>2021-11-22T10:41:45.861Z</time>
      </trkpt>
      <trkpt lat="47.567510" lon="7.839548">
        <ele>301.489660</ele>
        <time>2021-11-22T10:41:46.901Z</time>
      </trkpt>
      <trkpt lat="47.567481" lon="7.839664">
        <ele>301.550442</ele>
        <time>2021-11-22T10:41:48.108Z</time>
      </trkpt>
      <trkpt lat="47.567406" lon="7.839778">
        <ele>301.628673</ele>
        <time>2021-11-22T10:41:50.318Z</time>
      </trkpt>
      <trkpt lat="47.567286" lon="7.839868">
        <ele>301.726610</ele>
        <time>2021-11-22T10:41:52.627Z</time>
      </trkpt>
      <trkpt lat="47.567111" lon="7.839998">
        <ele>301.869157</ele>
        <time>2021-11-22T10:41:56.115Z</time>
      </trkpt>
      <trkpt lat="47.566826" lon="7.840179">
        <ele>302.094947</ele>
        <time>2021-11-22T10:42:01.460Z</time>
      </trkpt>
      <trkpt lat="47.566592" lon="7.840279">
        <ele>302.272290</ele>
        <time>2021-11-22T10:42:06.129Z</time>
      </trkpt>
      <trkpt lat="47.566515" lon="7.840312">
        <ele>302.330659</ele>
        <time>2021-11-22T10:42:07.330Z</time>
      </trkpt>
      <trkpt lat="47.566450" lon="7.840326">
        <ele>302.378490</ele>
        <time>2021-11-22T10:42:08.712Z</time>
      </trkpt>
      <trkpt lat="47.566350" lon="7.840350">
        <ele>302.452259</ele>
        <time>2021-11-22T10:42:10.686Z</time>
      </trkpt>
      <trkpt lat="47.566221" lon="7.840340">
        <ele>302.546326</ele>
        <time>2021-11-22T10:42:12.879Z</time>
      </trkpt>
      <trkpt lat="47.566142" lon="7.840322">
        <ele>302.604530</ele>
        <time>2021-11-22T10:42:14.051Z</time>
      </trkpt>
      <trkpt lat="47.566081" lon="7.840309">
        <ele>302.658762</ele>
        <time>2021-11-22T10:42:15.439Z</time>
      </trkpt>
      <trkpt lat="47.565906" lon="7.840272">
        <ele>302.864968</ele>
        <time>2021-11-22T10:42:18.822Z</time>
      </trkpt>
      <trkpt lat="47.565343" lon="7.840185">
        <ele>303.525274</ele>
        <time>2021-11-22T10:42:29.621Z</time>
      </trkpt>
      <trkpt lat="47.565233" lon="7.840176">
        <ele>303.653785</ele>
        <time>2021-11-22T10:42:31.958Z</time>
      </trkpt>
      <trkpt lat="47.565168" lon="7.840179">
        <ele>303.729645</ele>
        <time>2021-11-22T10:42:33.334Z</time>
      </trkpt>
      <trkpt lat="47.565057" lon="7.840213">
        <ele>303.861865</ele>
        <time>2021-11-22T10:42:35.577Z</time>
      </trkpt>
      <trkpt lat="47.564936" lon="7.840261">
        <ele>304.007981</ele>
        <time>2021-11-22T10:42:38.293Z</time>
      </trkpt>
      <trkpt lat="47.564558" lon="7.840516">
        <ele>304.492455</ele>
        <time>2021-11-22T10:42:46.575Z</time>
      </trkpt>
      <trkpt lat="47.564534" lon="7.840532">
        <ele>304.523154</ele>
        <time>2021-11-22T10:42:47.073Z</time>
      </trkpt>
      <trkpt lat="47.564463" lon="7.840580">
        <ele>304.614186</ele>
        <time>2021-11-22T10:42:48.687Z</time>
      </trkpt>
      <trkpt lat="47.564094" lon="7.840838">
        <ele>305.044246</ele>
        <time>2021-11-22T10:42:56.356Z</time>
      </trkpt>
      <trkpt lat="47.563986" lon="7.840916">
        <ele>305.166438</ele>
        <time>2021-11-22T10:42:58.639Z</time>
      </trkpt>
      <trkpt lat="47.563941" lon="7.840948">
        <ele>305.217202</ele>
        <time>2021-11-22T10:42:59.564Z</time>
      </trkpt>
      <trkpt lat="47.563805" lon="7.841046">
        <ele>305.371006</ele>
        <time>2021-11-22T10:43:02.377Z</time>
      </trkpt>
      <trkpt lat="47.563659" lon="7.841150">
        <ele>305.535760</ele>
        <time>2021-11-22T10:43:05.262Z</time>
      </trkpt>
      <trkpt lat="47.563483" lon="7.841269">
        <ele>305.732512</ele>
        <time>2021-11-22T10:43:08.998Z</time>
      </trkpt>
      <trkpt lat="47.563300" lon="7.841391">
        <ele>305.936600</ele>
        <time>2021-11-22T10:43:12.550Z</time>
      </trkpt>
      <trkpt lat="47.563016" lon="7.841568">
        <ele>306.249948</ele>
        <time>2021-11-22T10:43:18.409Z</time>
      </trkpt>
      <trkpt lat="47.562965" lon="7.841597">
        <ele>306.305505</ele>
        <time>2021-11-22T10:43:19.385Z</time>
      </trkpt>
      <trkpt lat="47.562904" lon="7.841632">
        <ele>306.372034</ele>
        <time>2021-11-22T10:43:20.626Z</time>
      </trkpt>
      <trkpt lat="47.562574" lon="7.841873">
        <ele>306.799953</ele>
        <time>2021-11-22T10:43:27.591Z</time>
      </trkpt>
      <trkpt lat="47.562440" lon="7.842083">
        <ele>307.055978</ele>
        <time>2021-11-22T10:43:31.203Z</time>
      </trkpt>
      <trkpt lat="47.562385" lon="7.842183">
        <ele>307.170258</ele>
        <time>2021-11-22T10:43:32.766Z</time>
      </trkpt>
      <trkpt lat="47.562300" lon="7.842326">
        <ele>307.339070</ele>
        <time>2021-11-22T10:43:35.675Z</time>
      </trkpt>
      <trkpt lat="47.562179" lon="7.842500">
        <ele>307.560403</ele>
        <time>2021-11-22T10:43:39.147Z</time>
      </trkpt>
      <trkpt lat="47.561498" lon="7.843130">
        <ele>308.614282</ele>
        <time>2021-11-22T10:43:55.855Z</time>
      </trkpt>
      <trkpt lat="47.561434" lon="7.843181">
        <ele>308.709675</ele>
        <time>2021-11-22T10:43:57.658Z</time>
      </trkpt>
      <trkpt lat="47.561038" lon="7.843502">
        <ele>309.110789</ele>
        <time>2021-11-22T10:44:06.359Z</time>
      </trkpt>
      <trkpt lat="47.560934" lon="7.843550">
        <ele>309.181694</ele>
        <time>2021-11-22T10:44:08.514Z</time>
      </trkpt>
      <trkpt lat="47.560812" lon="7.843560">
        <ele>309.261230</ele>
        <time>2021-11-22T10:44:10.757Z</time>
      </trkpt>
      <trkpt lat="47.560515" lon="7.843379">
        <ele>309.470270</ele>
        <time>2021-11-22T10:44:16.494Z</time>
      </trkpt>
      <trkpt lat="47.560430" lon="7.843341">
        <ele>309.528063</ele>
        <time>2021-11-22T10:44:18.296Z</time>
      </trkpt>
      <trkpt lat="47.560338" lon="7.843341">
        <ele>309.587950</ele>
        <time>2021-11-22T10:44:19.519Z</time>
      </trkpt>
      <trkpt lat="47.560209" lon="7.843393">
        <ele>309.674972</ele>
        <time>2021-11-22T10:44:21.994Z</time>
      </trkpt>
      <trkpt lat="47.560139" lon="7.843433">
        <ele>309.723809</ele>
        <time>2021-11-22T10:44:23.314Z</time>
      </trkpt>
      <trkpt lat="47.559847" lon="7.843604">
        <ele>309.928188</ele>
        <time>2021-11-22T10:44:28.482Z</time>
      </trkpt>
      <trkpt lat="47.559583" lon="7.843813">
        <ele>310.084619</ele>
        <time>2021-11-22T10:44:32.972Z</time>
      </trkpt>
      <trkpt lat="47.559158" lon="7.844233">
        <ele>309.987228</ele>
        <time>2021-11-22T10:44:40.059Z</time>
      </trkpt>
      <trkpt lat="47.559109" lon="7.844229">
        <ele>309.977872</ele>
        <time>2021-11-22T10:44:40.673Z</time>
      </trkpt>
      <trkpt lat="47.559060" lon="7.844197">
        <ele>309.967663</ele>
        <time>2021-11-22T10:44:41.318Z</time>
      </trkpt>
      <trkpt lat="47.558884" lon="7.843836">
        <ele>309.910365</ele>
        <time>2021-11-22T10:44:45.505Z</time>
      </trkpt>
      <trkpt lat="47.558555" lon="7.843392">
        <ele>309.825528</ele>
        <time>2021-11-22T10:44:51.529Z</time>
      </trkpt>
      <trkpt lat="47.558471" lon="7.843365">
        <ele>309.809141</ele>
        <time>2021-11-22T10:44:52.799Z</time>
      </trkpt>
      <trkpt lat="47.558479" lon="7.843288">
        <ele>309.799118</ele>
        <time>2021-11-22T10:44:53.589Z</time>
      </trkpt>
      <trkpt lat="47.558471" lon="7.843365">
        <ele>309.789095</ele>
        <time>2021-11-22T10:44:54.337Z</time>
      </trkpt>
      <trkpt lat="47.558405" lon="7.843371">
        <ele>309.776488</ele>
        <time>2021-11-22T10:44:55.417Z</time>
      </trkpt>
      <trkpt lat="47.558136" lon="7.843582">
        <ele>309.793931</ele>
        <time>2021-11-22T10:44:59.705Z</time>
      </trkpt>
      <trkpt lat="47.557967" lon="7.843683">
        <ele>309.841260</ele>
        <time>2021-11-22T10:45:02.306Z</time>
      </trkpt>
      <trkpt lat="47.557846" lon="7.843756">
        <ele>309.875192</ele>
        <time>2021-11-22T10:45:04.311Z</time>
      </trkpt>
      <trkpt lat="47.557759" lon="7.843839">
        <ele>309.902066</ele>
        <time>2021-11-22T10:45:06.057Z</time>
      </trkpt>
      <trkpt lat="47.557715" lon="7.843940">
        <ele>309.923137</ele>
        <time>2021-11-22T10:45:07.284Z</time>
      </trkpt>
      <trkpt lat="47.557560" lon="7.844433">
        <ele>310.018466</ele>
        <time>2021-11-22T10:45:13.240Z</time>
      </trkpt>
      <trkpt lat="47.557282" lon="7.844832">
        <ele>310.118987</ele>
        <time>2021-11-22T10:45:19.619Z</time>
      </trkpt>
      <trkpt lat="47.557134" lon="7.845095">
        <ele>310.179008</ele>
        <time>2021-11-22T10:45:23.337Z</time>
      </trkpt>
      <trkpt lat="47.556636" lon="7.845928">
        <ele>310.739697</ele>
        <time>2021-11-22T10:45:36.172Z</time>
      </trkpt>
      <trkpt lat="47.556157" lon="7.846702">
        <ele>311.353815</ele>
        <time>2021-11-22T10:45:49.312Z</time>
      </trkpt>
      <trkpt lat="47.556060" lon="7.846859">
        <ele>311.478290</ele>
        <time>2021-11-22T10:45:52.335Z</time>
      </trkpt>
      <trkpt lat="47.555990" lon="7.846965">
        <ele>311.565017</ele>
        <time>2021-11-22T10:45:54.280Z</time>
      </trkpt>
      <trkpt lat="47.555966" lon="7.846932">
        <ele>311.593387</ele>
        <time>2021-11-22T10:45:54.857Z</time>
      </trkpt>
      <trkpt lat="47.555892" lon="7.846856">
        <ele>311.671406</ele>
        <time>2021-11-22T10:45:56.425Z</time>
      </trkpt>
      <trkpt lat="47.555855" lon="7.846815">
        <ele>311.711440</ele>
        <time>2021-11-22T10:45:57.348Z</time>
      </trkpt>
      <trkpt lat="47.555727" lon="7.846715">
        <ele>311.871499</ele>
        <time>2021-11-22T10:46:00.357Z</time>
      </trkpt>
      <trkpt lat="47.555295" lon="7.846692">
        <ele>312.460001</ele>
        <time>2021-11-22T10:46:08.575Z</time>
      </trkpt>
      <trkpt lat="47.555199" lon="7.846687">
        <ele>312.590775</ele>
        <time>2021-11-22T10:46:10.305Z</time>
      </trkpt>
      <trkpt lat="47.555068" lon="7.846672">
        <ele>312.769650</ele>
        <time>2021-11-22T10:46:13.219Z</time>
      </trkpt>
      <trkpt lat="47.554995" lon="7.846915">
        <ele>313.014033</ele>
        <time>2021-11-22T10:46:16.920Z</time>
      </trkpt>
      <trkpt lat="47.554892" lon="7.847148">
        <ele>313.269946</ele>
        <time>2021-11-22T10:46:20.975Z</time>
      </trkpt>
      <trkpt lat="47.554759" lon="7.847388">
        <ele>313.555268</ele>
        <time>2021-11-22T10:46:25.305Z</time>
      </trkpt>
      <trkpt lat="47.554618" lon="7.847626">
        <ele>313.846239</ele>
        <time>2021-11-22T10:46:29.848Z</time>
      </trkpt>
      <trkpt lat="47.554465" lon="7.847858">
        <ele>314.144271</ele>
        <time>2021-11-22T10:46:34.497Z</time>
      </trkpt>
      <trkpt lat="47.554351" lon="7.848049">
        <ele>314.387197</ele>
        <time>2021-11-22T10:46:37.776Z</time>
      </trkpt>
      <trkpt lat="47.554269" lon="7.848188">
        <ele>314.566369</ele>
        <time>2021-11-22T10:46:40.303Z</time>
      </trkpt>
      <trkpt lat="47.554209" lon="7.848300">
        <ele>314.705147</ele>
        <time>2021-11-22T10:46:42.444Z</time>
      </trkpt>
      <trkpt lat="47.554055" lon="7.848586">
        <ele>315.060232</ele>
        <time>2021-11-22T10:46:47.243Z</time>
      </trkpt>
      <trkpt lat="47.553725" lon="7.849291">
        <ele>315.892903</ele>
        <time>2021-11-22T10:46:58.618Z</time>
      </trkpt>
      <trkpt lat="47.553605" lon="7.849629">
        <ele>316.263557</ele>
        <time>2021-11-22T10:47:04.137Z</time>
      </trkpt>
      <trkpt lat="47.553537" lon="7.849904">
        <ele>316.547800</ele>
        <time>2021-11-22T10:47:08.203Z</time>
      </trkpt>
      <trkpt lat="47.553380" lon="7.850453">
        <ele>317.345512</ele>
        <time>2021-11-22T10:47:17.106Z</time>
      </trkpt>
      <trkpt lat="47.553344" lon="7.850525">
        <ele>317.492908</ele>
        <time>2021-11-22T10:47:18.410Z</time>
      </trkpt>
      <trkpt lat="47.553283" lon="7.850634">
        <ele>317.725827</ele>
        <time>2021-11-22T10:47:20.476Z</time>
      </trkpt>
      <trkpt lat="47.552876" lon="7.851300">
        <ele>319.203727</ele>
        <time>2021-11-22T10:47:34.286Z</time>
      </trkpt>
      <trkpt lat="47.552678" lon="7.851709">
        <ele>320.031689</ele>
        <time>2021-11-22T10:47:42.955Z</time>
      </trkpt>
      <trkpt lat="47.552449" lon="7.852231">
        <ele>321.055809</ele>
        <time>2021-11-22T10:47:54.459Z</time>
      </trkpt>
      <trkpt lat="47.552272" lon="7.852167">
        <ele>321.603180</ele>
        <time>2021-11-22T10:47:59.860Z</time>
      </trkpt>
      <trkpt lat="47.552097" lon="7.852063">
        <ele>322.218493</ele>
        <time>2021-11-22T10:48:05.107Z</time>
      </trkpt>
      <trkpt lat="47.552042" lon="7.852007">
        <ele>322.436273</ele>
        <time>2021-11-22T10:48:07.507Z</time>
      </trkpt>
      <trkpt lat="47.551925" lon="7.851845">
        <ele>322.958855</ele>
        <time>2021-11-22T10:48:11.772Z</time>
      </trkpt>
      <trkpt lat="47.551830" lon="7.851603">
        <ele>323.575468</ele>
        <time>2021-11-22T10:48:17.594Z</time>
      </trkpt>
      <trkpt lat="47.551660" lon="7.851725">
        <ele>324.191889</ele>
        <time>2021-11-22T10:48:22.828Z</time>
      </trkpt>
      <trkpt lat="47.551516" lon="7.851950">
        <ele>324.874837</ele>
        <time>2021-11-22T10:48:29.386Z</time>
      </trkpt>
      <trkpt lat="47.550221" lon="7.853833">
        <ele>329.441413</ele>
        <time>2021-11-22T10:49:16.678Z</time>
      </trkpt>
      <trkpt lat="47.549883" lon="7.854434">
        <ele>330.538945</ele>
        <time>2021-11-22T10:49:26.798Z</time>
      </trkpt>
      <trkpt lat="47.549566" lon="7.855225">
        <ele>330.861566</ele>
        <time>2021-11-22T10:49:40.657Z</time>
      </trkpt>
      <trkpt lat="47.549362" lon="7.855774">
        <ele>330.911396</ele>
        <time>2021-11-22T10:49:49.146Z</time>
      </trkpt>
      <trkpt lat="47.548887" lon="7.857308">
        <ele>331.115453</ele>
        <time>2021-11-22T10:50:11.254Z</time>
      </trkpt>
      <trkpt lat="47.548743" lon="7.857692">
        <ele>331.230928</ele>
        <time>2021-11-22T10:50:17.226Z</time>
      </trkpt>
      <trkpt lat="47.548701" lon="7.857893">
        <ele>331.286239</ele>
        <time>2021-11-22T10:50:20.197Z</time>
      </trkpt>
      <trkpt lat="47.548686" lon="7.857973">
        <ele>331.308065</ele>
        <time>2021-11-22T10:50:21.320Z</time>
      </trkpt>
      <trkpt lat="47.548611" lon="7.858381">
        <ele>331.419222</ele>
        <time>2021-11-22T10:50:27.534Z</time>
      </trkpt>
      <trkpt lat="47.548334" lon="7.859801">
        <ele>332.057098</ele>
        <time>2021-11-22T10:50:50.572Z</time>
      </trkpt>
      <trkpt lat="47.548049" lon="7.860929">
        <ele>333.231908</ele>
        <time>2021-11-22T10:51:11.590Z</time>
      </trkpt>
      <trkpt lat="47.547930" lon="7.861711">
        <ele>334.013819</ele>
        <time>2021-11-22T10:51:26.354Z</time>
      </trkpt>
      <trkpt lat="47.547568" lon="7.863151">
        <ele>335.407851</ele>
        <time>2021-11-22T10:51:55.482Z</time>
      </trkpt>
      <trkpt lat="47.547320" lon="7.863864">
        <ele>336.121762</ele>
        <time>2021-11-22T10:52:09.422Z</time>
      </trkpt>
      <trkpt lat="47.546974" lon="7.864423">
        <ele>336.644621</ele>
        <time>2021-11-22T10:52:20.245Z</time>
      </trkpt>
      <trkpt lat="47.546885" lon="7.864500">
        <ele>336.592571</ele>
        <time>2021-11-22T10:52:23.330Z</time>
      </trkpt>
      <trkpt lat="47.546894" lon="7.864837">
        <ele>336.477601</ele>
        <time>2021-11-22T10:52:27.214Z</time>
      </trkpt>
      <trkpt lat="47.546889" lon="7.865225">
        <ele>336.345313</ele>
        <time>2021-11-22T10:52:32.639Z</time>
      </trkpt>
      <trkpt lat="47.546819" lon="7.865489">
        <ele>336.248624</ele>
        <time>2021-11-22T10:52:36.583Z</time>
      </trkpt>
      <trkpt lat="47.546510" lon="7.865766">
        <ele>336.066225</ele>
        <time>2021-11-22T10:52:43.217Z</time>
      </trkpt>
      <trkpt lat="47.546327" lon="7.865959">
        <ele>335.952779</ele>
        <time>2021-11-22T10:52:46.732Z</time>
      </trkpt>
      <trkpt lat="47.546096" lon="7.866147">
        <ele>335.819673</ele>
        <time>2021-11-22T10:52:51.288Z</time>
      </trkpt>
      <trkpt lat="47.545240" lon="7.866887">
        <ele>335.590553</ele>
        <time>2021-11-22T10:53:07.962Z</time>
      </trkpt>
      <trkpt lat="47.545160" lon="7.866985">
        <ele>335.569109</ele>
        <time>2021-11-22T10:53:09.918Z</time>
      </trkpt>
      <trkpt lat="47.545003" lon="7.867278">
        <ele>335.516946</ele>
        <time>2021-11-22T10:53:15.586Z</time>
      </trkpt>
      <trkpt lat="47.544568" lon="7.867693">
        <ele>335.410065</ele>
        <time>2021-11-22T10:53:28.377Z</time>
      </trkpt>
      <trkpt lat="47.544469" lon="7.867776">
        <ele>335.549781</ele>
        <time>2021-11-22T10:53:31.239Z</time>
      </trkpt>
      <trkpt lat="47.544410" lon="7.867825">
        <ele>335.648235</ele>
        <time>2021-11-22T10:53:33.327Z</time>
      </trkpt>
      <trkpt lat="47.544246" lon="7.867967">
        <ele>335.924733</ele>
        <time>2021-11-22T10:53:38.011Z</time>
      </trkpt>
      <trkpt lat="47.544214" lon="7.867988">
        <ele>335.975677</ele>
        <time>2021-11-22T10:53:38.859Z</time>
      </trkpt>
      <trkpt lat="47.543801" lon="7.868269">
        <ele>336.637203</ele>
        <time>2021-11-22T10:53:50.462Z</time>
      </trkpt>
      <trkpt lat="47.543657" lon="7.868359">
        <ele>336.864697</ele>
        <time>2021-11-22T10:53:54.811Z</time>
      </trkpt>
      <trkpt lat="47.543201" lon="7.868657">
        <ele>337.590157</ele>
        <time>2021-11-22T10:54:05.012Z</time>
      </trkpt>
      <trkpt lat="47.543105" lon="7.868711">
        <ele>337.739627</ele>
        <time>2021-11-22T10:54:07.596Z</time>
      </trkpt>
      <trkpt lat="47.543049" lon="7.868759">
        <ele>337.833801</ele>
        <time>2021-11-22T10:54:08.973Z</time>
      </trkpt>
      <trkpt lat="47.542722" lon="7.869201">
        <ele>338.024922</ele>
        <time>2021-11-22T10:54:18.805Z</time>
      </trkpt>
      <trkpt lat="47.542696" lon="7.869257">
        <ele>338.024922</ele>
        <time>2021-11-22T10:54:19.635Z</time>
      </trkpt>
      <trkpt lat="47.542657" lon="7.869354">
        <ele>338.024922</ele>
        <time>2021-11-22T10:54:21.070Z</time>
      </trkpt>
      <trkpt lat="47.542372" lon="7.869746">
        <ele>338.024922</ele>
        <time>2021-11-22T10:54:28.146Z</time>
      </trkpt>
      <trkpt lat="47.542329" lon="7.869820">
        <ele>338.024922</ele>
        <time>2021-11-22T10:54:29.329Z</time>
      </trkpt>
      <trkpt lat="47.542348" lon="7.869983">
        <ele>338.024922</ele>
        <time>2021-11-22T10:54:30.886Z</time>
      </trkpt>
      <trkpt lat="47.542317" lon="7.870012">
        <ele>338.024922</ele>
        <time>2021-11-22T10:54:31.585Z</time>
      </trkpt>
      <trkpt lat="47.542181" lon="7.870131">
        <ele>338.024922</ele>
        <time>2021-11-22T10:54:34.074Z</time>
      </trkpt>
      <trkpt lat="47.542118" lon="7.870135">
        <ele>338.024922</ele>
        <time>2021-11-22T10:54:35.078Z</time>
      </trkpt>
      <trkpt lat="47.542014" lon="7.870126">
        <ele>338.024922</ele>
        <time>2021-11-22T10:54:36.448Z</time>
      </trkpt>
      <trkpt lat="47.541910" lon="7.870106">
        <ele>338.024922</ele>
        <time>2021-11-22T10:54:38.070Z</time>
      </trkpt>
      <trkpt lat="47.541606" lon="7.870424">
        <ele>338.024922</ele>
        <time>2021-11-22T10:54:43.284Z</time>
      </trkpt>
      <trkpt lat="47.541521" lon="7.870517">
        <ele>338.024922</ele>
        <time>2021-11-22T10:54:44.712Z</time>
      </trkpt>
      <trkpt lat="47.541550" lon="7.870601">
        <ele>338.024922</ele>
        <time>2021-11-22T10:54:45.572Z</time>
      </trkpt>
      <trkpt lat="47.541576" lon="7.870664">
        <ele>338.024922</ele>
        <time>2021-11-22T10:54:46.244Z</time>
      </trkpt>
      <trkpt lat="47.541483" lon="7.870735">
        <ele>338.024922</ele>
        <time>2021-11-22T10:54:48.090Z</time>
      </trkpt>
    </trkseg>
  </trk>
</gpx>